<?xml version="1.0" encoding="UTF-8" standalone="no" ?>
<gpx xmlns="http://www.topografix.com/GPX/1/1" xmlns:xsi="http://www.w3.org/2001/XMLSchema-instance" xsi:schemaLocation="http://www.topografix.com/GPX/1/1 http://www.topografix.com/GPX/1/1/gpx.xsd" version="1.1" creator="VisuGPX - https://www.visugpx.com">
  <metadata>
    <name>Gr99 b telechargé</name>
    <desc><![CDATA[GR 99 b téléchargé GR infos hw]]></desc>
  </metadata>
  <trk>
    <name><![CDATA[GR99 De St Martin-de-Pallières aux Gorges du Verdon (Var)]]></name>
    <cmt><![CDATA[Randonnée avec le GR99 à travers le Var de St Martin-de-Pallières aux Gorges du Verdon. Gîtes d'étapes, Chambres d'hôtes, Hôtels, Camping, Refuges, Auberges.]]></cmt>
    <desc><![CDATA[Randonnée avec le GR99 à travers le Var de St Martin-de-Pallières aux Gorges du Verdon. Gîtes d'étapes, Chambres d'hôtes, Hôtels, Camping, Refuges, Auberges.]]></desc>
    <trkseg>
      <trkpt lat="43.58904" lon="5.88446">
        <ele>478</ele>
        <time>2017-03-09T09:27:55Z</time>
      </trkpt>
      <trkpt lat="43.58906" lon="5.88431">
        <ele>475</ele>
        <time>2017-03-09T09:28:15Z</time>
      </trkpt>
      <trkpt lat="43.58866" lon="5.8838">
        <ele>466</ele>
        <time>2017-03-09T09:28:35Z</time>
      </trkpt>
      <trkpt lat="43.58863" lon="5.88359">
        <ele>464</ele>
        <time>2017-03-09T09:28:55Z</time>
      </trkpt>
      <trkpt lat="43.58915" lon="5.88389">
        <ele>466</ele>
        <time>2017-03-09T09:29:15Z</time>
      </trkpt>
      <trkpt lat="43.58933" lon="5.88409">
        <ele>460</ele>
        <time>2017-03-09T09:29:35Z</time>
      </trkpt>
      <trkpt lat="43.58941" lon="5.88406">
        <ele>457</ele>
        <time>2017-03-09T09:29:55Z</time>
      </trkpt>
      <trkpt lat="43.5894" lon="5.88387">
        <ele>454</ele>
        <time>2017-03-09T09:30:15Z</time>
      </trkpt>
      <trkpt lat="43.58921" lon="5.8834">
        <ele>453</ele>
        <time>2017-03-09T09:30:35Z</time>
      </trkpt>
      <trkpt lat="43.58853" lon="5.8829">
        <ele>451</ele>
        <time>2017-03-09T09:30:55Z</time>
      </trkpt>
      <trkpt lat="43.58806" lon="5.88282">
        <ele>458</ele>
        <time>2017-03-09T09:31:15Z</time>
      </trkpt>
      <trkpt lat="43.58797" lon="5.88274">
        <ele>458</ele>
        <time>2017-03-09T09:31:35Z</time>
      </trkpt>
      <trkpt lat="43.58798" lon="5.88249">
        <ele>460</ele>
        <time>2017-03-09T09:31:55Z</time>
      </trkpt>
      <trkpt lat="43.58813" lon="5.88234">
        <ele>460</ele>
        <time>2017-03-09T09:32:15Z</time>
      </trkpt>
      <trkpt lat="43.58837" lon="5.88227">
        <ele>452</ele>
        <time>2017-03-09T09:32:35Z</time>
      </trkpt>
      <trkpt lat="43.58899" lon="5.88139">
        <ele>462</ele>
        <time>2017-03-09T09:32:55Z</time>
      </trkpt>
      <trkpt lat="43.5897" lon="5.88126">
        <ele>444</ele>
        <time>2017-03-09T09:33:15Z</time>
      </trkpt>
      <trkpt lat="43.59039" lon="5.88072">
        <ele>443</ele>
        <time>2017-03-09T09:33:35Z</time>
      </trkpt>
      <trkpt lat="43.59052" lon="5.88081">
        <ele>441</ele>
        <time>2017-03-09T09:33:55Z</time>
      </trkpt>
      <trkpt lat="43.5907" lon="5.88118">
        <ele>431</ele>
        <time>2017-03-09T09:34:15Z</time>
      </trkpt>
      <trkpt lat="43.59105" lon="5.88167">
        <ele>421</ele>
        <time>2017-03-09T09:34:35Z</time>
      </trkpt>
      <trkpt lat="43.59174" lon="5.88212">
        <ele>416</ele>
        <time>2017-03-09T09:34:55Z</time>
      </trkpt>
      <trkpt lat="43.59193" lon="5.8821">
        <ele>416</ele>
        <time>2017-03-09T09:35:15Z</time>
      </trkpt>
      <trkpt lat="43.59208" lon="5.88234">
        <ele>416</ele>
        <time>2017-03-09T09:35:35Z</time>
      </trkpt>
      <trkpt lat="43.59237" lon="5.8824">
        <ele>415</ele>
        <time>2017-03-09T09:35:55Z</time>
      </trkpt>
      <trkpt lat="43.59246" lon="5.88256">
        <ele>414</ele>
        <time>2017-03-09T09:36:15Z</time>
      </trkpt>
      <trkpt lat="43.59268" lon="5.88272">
        <ele>413</ele>
        <time>2017-03-09T09:36:35Z</time>
      </trkpt>
      <trkpt lat="43.59324" lon="5.88353">
        <ele>412</ele>
        <time>2017-03-09T09:36:55Z</time>
      </trkpt>
      <trkpt lat="43.59353" lon="5.8837">
        <ele>410</ele>
        <time>2017-03-09T09:37:15Z</time>
      </trkpt>
      <trkpt lat="43.59391" lon="5.8838">
        <ele>410</ele>
        <time>2017-03-09T09:37:35Z</time>
      </trkpt>
      <trkpt lat="43.59435" lon="5.88383">
        <ele>408</ele>
        <time>2017-03-09T09:37:55Z</time>
      </trkpt>
      <trkpt lat="43.59484" lon="5.88405">
        <ele>407</ele>
        <time>2017-03-09T09:38:15Z</time>
      </trkpt>
      <trkpt lat="43.59592" lon="5.88477">
        <ele>402</ele>
        <time>2017-03-09T09:38:35Z</time>
      </trkpt>
      <trkpt lat="43.59625" lon="5.88494">
        <ele>401</ele>
        <time>2017-03-09T09:38:55Z</time>
      </trkpt>
      <trkpt lat="43.59686" lon="5.88508">
        <ele>399</ele>
        <time>2017-03-09T09:39:15Z</time>
      </trkpt>
      <trkpt lat="43.59731" lon="5.88501">
        <ele>396</ele>
        <time>2017-03-09T09:39:35Z</time>
      </trkpt>
      <trkpt lat="43.59754" lon="5.88486">
        <ele>393</ele>
        <time>2017-03-09T09:39:55Z</time>
      </trkpt>
      <trkpt lat="43.59769" lon="5.88456">
        <ele>392</ele>
        <time>2017-03-09T09:40:15Z</time>
      </trkpt>
      <trkpt lat="43.59782" lon="5.88464">
        <ele>392</ele>
        <time>2017-03-09T09:40:35Z</time>
      </trkpt>
      <trkpt lat="43.59781" lon="5.88496">
        <ele>392</ele>
        <time>2017-03-09T09:40:55Z</time>
      </trkpt>
      <trkpt lat="43.59793" lon="5.88515">
        <ele>392</ele>
        <time>2017-03-09T09:41:15Z</time>
      </trkpt>
      <trkpt lat="43.59847" lon="5.885">
        <ele>387</ele>
        <time>2017-03-09T09:41:35Z</time>
      </trkpt>
      <trkpt lat="43.59894" lon="5.88494">
        <ele>384</ele>
        <time>2017-03-09T09:41:55Z</time>
      </trkpt>
      <trkpt lat="43.5997" lon="5.88568">
        <ele>378</ele>
        <time>2017-03-09T09:42:15Z</time>
      </trkpt>
      <trkpt lat="43.6002" lon="5.88562">
        <ele>377</ele>
        <time>2017-03-09T09:42:35Z</time>
      </trkpt>
      <trkpt lat="43.60046" lon="5.8857">
        <ele>378</ele>
        <time>2017-03-09T09:42:55Z</time>
      </trkpt>
      <trkpt lat="43.60045" lon="5.88527">
        <ele>379</ele>
        <time>2017-03-09T09:43:15Z</time>
      </trkpt>
      <trkpt lat="43.60062" lon="5.88495">
        <ele>381</ele>
        <time>2017-03-09T09:43:35Z</time>
      </trkpt>
      <trkpt lat="43.60065" lon="5.88391">
        <ele>381</ele>
        <time>2017-03-09T09:43:55Z</time>
      </trkpt>
      <trkpt lat="43.6007" lon="5.88394">
        <ele>381</ele>
        <time>2017-03-09T09:44:15Z</time>
      </trkpt>
      <trkpt lat="43.60076" lon="5.88451">
        <ele>381</ele>
        <time>2017-03-09T09:44:35Z</time>
      </trkpt>
      <trkpt lat="43.60099" lon="5.88498">
        <ele>386</ele>
        <time>2017-03-09T09:44:55Z</time>
      </trkpt>
      <trkpt lat="43.6012" lon="5.88529">
        <ele>387</ele>
        <time>2017-03-09T09:45:15Z</time>
      </trkpt>
      <trkpt lat="43.60148" lon="5.88595">
        <ele>388</ele>
        <time>2017-03-09T09:45:35Z</time>
      </trkpt>
      <trkpt lat="43.60172" lon="5.88668">
        <ele>392</ele>
        <time>2017-03-09T09:45:55Z</time>
      </trkpt>
      <trkpt lat="43.60177" lon="5.8875">
        <ele>392</ele>
        <time>2017-03-09T09:46:15Z</time>
      </trkpt>
      <trkpt lat="43.60177" lon="5.88788">
        <ele>394</ele>
        <time>2017-03-09T09:46:35Z</time>
      </trkpt>
      <trkpt lat="43.60192" lon="5.88786">
        <ele>394</ele>
        <time>2017-03-09T09:46:55Z</time>
      </trkpt>
      <trkpt lat="43.60198" lon="5.88767">
        <ele>394</ele>
        <time>2017-03-09T09:47:15Z</time>
      </trkpt>
      <trkpt lat="43.60205" lon="5.88714">
        <ele>395</ele>
        <time>2017-03-09T09:47:35Z</time>
      </trkpt>
      <trkpt lat="43.60219" lon="5.88705">
        <ele>396</ele>
        <time>2017-03-09T09:47:55Z</time>
      </trkpt>
      <trkpt lat="43.60341" lon="5.88735">
        <ele>405</ele>
        <time>2017-03-09T09:48:15Z</time>
      </trkpt>
      <trkpt lat="43.60355" lon="5.88734">
        <ele>406</ele>
        <time>2017-03-09T09:48:35Z</time>
      </trkpt>
      <trkpt lat="43.60371" lon="5.88719">
        <ele>407</ele>
        <time>2017-03-09T09:48:55Z</time>
      </trkpt>
      <trkpt lat="43.60439" lon="5.88449">
        <ele>421</ele>
        <time>2017-03-09T09:49:15Z</time>
      </trkpt>
      <trkpt lat="43.60456" lon="5.88434">
        <ele>423</ele>
        <time>2017-03-09T09:49:35Z</time>
      </trkpt>
      <trkpt lat="43.60465" lon="5.88442">
        <ele>424</ele>
        <time>2017-03-09T09:49:55Z</time>
      </trkpt>
      <trkpt lat="43.60483" lon="5.88441">
        <ele>426</ele>
        <time>2017-03-09T09:50:15Z</time>
      </trkpt>
      <trkpt lat="43.60489" lon="5.88472">
        <ele>427</ele>
        <time>2017-03-09T09:50:35Z</time>
      </trkpt>
      <trkpt lat="43.60496" lon="5.88476">
        <ele>428</ele>
        <time>2017-03-09T09:50:55Z</time>
      </trkpt>
      <trkpt lat="43.60514" lon="5.88469">
        <ele>440</ele>
        <time>2017-03-09T09:51:15Z</time>
      </trkpt>
      <trkpt lat="43.60554" lon="5.88478">
        <ele>446</ele>
        <time>2017-03-09T09:51:35Z</time>
      </trkpt>
      <trkpt lat="43.60566" lon="5.88493">
        <ele>449</ele>
        <time>2017-03-09T09:51:55Z</time>
      </trkpt>
      <trkpt lat="43.6057" lon="5.88515">
        <ele>449</ele>
        <time>2017-03-09T09:52:15Z</time>
      </trkpt>
      <trkpt lat="43.60585" lon="5.88509">
        <ele>456</ele>
        <time>2017-03-09T09:52:35Z</time>
      </trkpt>
      <trkpt lat="43.60601" lon="5.8852">
        <ele>457</ele>
        <time>2017-03-09T09:52:55Z</time>
      </trkpt>
      <trkpt lat="43.60613" lon="5.88485">
        <ele>458</ele>
        <time>2017-03-09T09:53:15Z</time>
      </trkpt>
      <trkpt lat="43.60607" lon="5.88435">
        <ele>458</ele>
        <time>2017-03-09T09:53:35Z</time>
      </trkpt>
      <trkpt lat="43.60616" lon="5.88395">
        <ele>458</ele>
        <time>2017-03-09T09:53:55Z</time>
      </trkpt>
      <trkpt lat="43.6062" lon="5.88361">
        <ele>458</ele>
        <time>2017-03-09T09:54:15Z</time>
      </trkpt>
      <trkpt lat="43.60614" lon="5.88338">
        <ele>457</ele>
        <time>2017-03-09T09:54:35Z</time>
      </trkpt>
      <trkpt lat="43.60636" lon="5.88276">
        <ele>456</ele>
        <time>2017-03-09T09:54:55Z</time>
      </trkpt>
      <trkpt lat="43.60634" lon="5.88242">
        <ele>455</ele>
        <time>2017-03-09T09:55:15Z</time>
      </trkpt>
      <trkpt lat="43.60648" lon="5.88219">
        <ele>456</ele>
        <time>2017-03-09T09:55:35Z</time>
      </trkpt>
      <trkpt lat="43.60641" lon="5.88178">
        <ele>455</ele>
        <time>2017-03-09T09:55:55Z</time>
      </trkpt>
      <trkpt lat="43.60645" lon="5.88147">
        <ele>454</ele>
        <time>2017-03-09T09:56:15Z</time>
      </trkpt>
      <trkpt lat="43.60642" lon="5.881">
        <ele>453</ele>
        <time>2017-03-09T09:56:35Z</time>
      </trkpt>
      <trkpt lat="43.60651" lon="5.88082">
        <ele>452</ele>
        <time>2017-03-09T09:56:55Z</time>
      </trkpt>
      <trkpt lat="43.60645" lon="5.88031">
        <ele>449</ele>
        <time>2017-03-09T09:57:15Z</time>
      </trkpt>
      <trkpt lat="43.60634" lon="5.8801">
        <ele>448</ele>
        <time>2017-03-09T09:57:35Z</time>
      </trkpt>
      <trkpt lat="43.60648" lon="5.87935">
        <ele>448</ele>
        <time>2017-03-09T09:57:55Z</time>
      </trkpt>
      <trkpt lat="43.60638" lon="5.87916">
        <ele>448</ele>
        <time>2017-03-09T09:58:15Z</time>
      </trkpt>
      <trkpt lat="43.60685" lon="5.87886">
        <ele>452</ele>
        <time>2017-03-09T09:58:35Z</time>
      </trkpt>
      <trkpt lat="43.60729" lon="5.87807">
        <ele>453</ele>
        <time>2017-03-09T09:58:55Z</time>
      </trkpt>
      <trkpt lat="43.60747" lon="5.87785">
        <ele>452</ele>
        <time>2017-03-09T09:59:15Z</time>
      </trkpt>
      <trkpt lat="43.60768" lon="5.87754">
        <ele>449</ele>
        <time>2017-03-09T09:59:35Z</time>
      </trkpt>
      <trkpt lat="43.60801" lon="5.87827">
        <ele>448</ele>
        <time>2017-03-09T09:59:55Z</time>
      </trkpt>
      <trkpt lat="43.60831" lon="5.87784">
        <ele>447</ele>
        <time>2017-03-09T10:00:15Z</time>
      </trkpt>
      <trkpt lat="43.60851" lon="5.87764">
        <ele>444</ele>
        <time>2017-03-09T10:00:35Z</time>
      </trkpt>
      <trkpt lat="43.60869" lon="5.87726">
        <ele>443</ele>
        <time>2017-03-09T10:00:55Z</time>
      </trkpt>
      <trkpt lat="43.60891" lon="5.87717">
        <ele>443</ele>
        <time>2017-03-09T10:01:15Z</time>
      </trkpt>
      <trkpt lat="43.6092" lon="5.8772">
        <ele>439</ele>
        <time>2017-03-09T10:01:35Z</time>
      </trkpt>
      <trkpt lat="43.6093" lon="5.87714">
        <ele>439</ele>
        <time>2017-03-09T10:01:55Z</time>
      </trkpt>
      <trkpt lat="43.60938" lon="5.87655">
        <ele>439</ele>
        <time>2017-03-09T10:02:15Z</time>
      </trkpt>
      <trkpt lat="43.61036" lon="5.87624">
        <ele>434</ele>
        <time>2017-03-09T10:02:35Z</time>
      </trkpt>
      <trkpt lat="43.61062" lon="5.87591">
        <ele>435</ele>
        <time>2017-03-09T10:02:55Z</time>
      </trkpt>
      <trkpt lat="43.61088" lon="5.87575">
        <ele>435</ele>
        <time>2017-03-09T10:03:15Z</time>
      </trkpt>
      <trkpt lat="43.61095" lon="5.87562">
        <ele>434</ele>
        <time>2017-03-09T10:03:35Z</time>
      </trkpt>
      <trkpt lat="43.61142" lon="5.87541">
        <ele>433</ele>
        <time>2017-03-09T10:03:55Z</time>
      </trkpt>
      <trkpt lat="43.61181" lon="5.87513">
        <ele>432</ele>
        <time>2017-03-09T10:04:15Z</time>
      </trkpt>
      <trkpt lat="43.61196" lon="5.87483">
        <ele>432</ele>
        <time>2017-03-09T10:04:35Z</time>
      </trkpt>
      <trkpt lat="43.61234" lon="5.87465">
        <ele>432</ele>
        <time>2017-03-09T10:04:55Z</time>
      </trkpt>
      <trkpt lat="43.61247" lon="5.87491">
        <ele>431</ele>
        <time>2017-03-09T10:05:15Z</time>
      </trkpt>
      <trkpt lat="43.61289" lon="5.87482">
        <ele>428</ele>
        <time>2017-03-09T10:05:35Z</time>
      </trkpt>
      <trkpt lat="43.61323" lon="5.8749">
        <ele>427</ele>
        <time>2017-03-09T10:05:55Z</time>
      </trkpt>
      <trkpt lat="43.61404" lon="5.87478">
        <ele>421</ele>
        <time>2017-03-09T10:06:15Z</time>
      </trkpt>
      <trkpt lat="43.61454" lon="5.87365">
        <ele>414</ele>
        <time>2017-03-09T10:06:35Z</time>
      </trkpt>
      <trkpt lat="43.61519" lon="5.87372">
        <ele>409</ele>
        <time>2017-03-09T10:06:55Z</time>
      </trkpt>
      <trkpt lat="43.61539" lon="5.87329">
        <ele>407</ele>
        <time>2017-03-09T10:07:15Z</time>
      </trkpt>
      <trkpt lat="43.61668" lon="5.87231">
        <ele>391</ele>
        <time>2017-03-09T10:07:35Z</time>
      </trkpt>
      <trkpt lat="43.61693" lon="5.87236">
        <ele>390</ele>
        <time>2017-03-09T10:07:55Z</time>
      </trkpt>
      <trkpt lat="43.61748" lon="5.87301">
        <ele>387</ele>
        <time>2017-03-09T10:08:15Z</time>
      </trkpt>
      <trkpt lat="43.6186" lon="5.87359">
        <ele>373</ele>
        <time>2017-03-09T10:08:35Z</time>
      </trkpt>
      <trkpt lat="43.61862" lon="5.87439">
        <ele>371</ele>
        <time>2017-03-09T10:08:55Z</time>
      </trkpt>
      <trkpt lat="43.61917" lon="5.87451">
        <ele>369</ele>
        <time>2017-03-09T10:09:15Z</time>
      </trkpt>
      <trkpt lat="43.61987" lon="5.87454">
        <ele>368</ele>
        <time>2017-03-09T10:09:35Z</time>
      </trkpt>
      <trkpt lat="43.62008" lon="5.87486">
        <ele>366</ele>
        <time>2017-03-09T10:09:55Z</time>
      </trkpt>
      <trkpt lat="43.62043" lon="5.87518">
        <ele>365</ele>
        <time>2017-03-09T10:10:15Z</time>
      </trkpt>
      <trkpt lat="43.62076" lon="5.876">
        <ele>364</ele>
        <time>2017-03-09T10:10:35Z</time>
      </trkpt>
      <trkpt lat="43.62125" lon="5.87703">
        <ele>362</ele>
        <time>2017-03-09T10:10:55Z</time>
      </trkpt>
      <trkpt lat="43.62106" lon="5.87749">
        <ele>362</ele>
        <time>2017-03-09T10:11:15Z</time>
      </trkpt>
      <trkpt lat="43.6212" lon="5.87798">
        <ele>362</ele>
        <time>2017-03-09T10:11:35Z</time>
      </trkpt>
      <trkpt lat="43.62147" lon="5.87823">
        <ele>362</ele>
        <time>2017-03-09T10:11:55Z</time>
      </trkpt>
      <trkpt lat="43.62157" lon="5.8784">
        <ele>362</ele>
        <time>2017-03-09T10:12:15Z</time>
      </trkpt>
      <trkpt lat="43.62176" lon="5.8785">
        <ele>363</ele>
        <time>2017-03-09T10:12:35Z</time>
      </trkpt>
      <trkpt lat="43.62296" lon="5.87809">
        <ele>367</ele>
        <time>2017-03-09T10:12:55Z</time>
      </trkpt>
      <trkpt lat="43.62322" lon="5.87835">
        <ele>367</ele>
        <time>2017-03-09T10:13:15Z</time>
      </trkpt>
      <trkpt lat="43.6233" lon="5.87872">
        <ele>368</ele>
        <time>2017-03-09T10:13:35Z</time>
      </trkpt>
      <trkpt lat="43.62322" lon="5.87922">
        <ele>371</ele>
        <time>2017-03-09T10:13:55Z</time>
      </trkpt>
      <trkpt lat="43.62304" lon="5.87976">
        <ele>371</ele>
        <time>2017-03-09T10:14:15Z</time>
      </trkpt>
      <trkpt lat="43.6231" lon="5.88055">
        <ele>372</ele>
        <time>2017-03-09T10:14:35Z</time>
      </trkpt>
      <trkpt lat="43.62308" lon="5.88078">
        <ele>372</ele>
        <time>2017-03-09T10:14:55Z</time>
      </trkpt>
      <trkpt lat="43.62319" lon="5.88121">
        <ele>372</ele>
        <time>2017-03-09T10:15:15Z</time>
      </trkpt>
      <trkpt lat="43.6234" lon="5.88131">
        <ele>373</ele>
        <time>2017-03-09T10:15:35Z</time>
      </trkpt>
      <trkpt lat="43.62355" lon="5.88175">
        <ele>374</ele>
        <time>2017-03-09T10:15:55Z</time>
      </trkpt>
      <trkpt lat="43.6236" lon="5.88147">
        <ele>373</ele>
        <time>2017-03-09T10:16:15Z</time>
      </trkpt>
      <trkpt lat="43.62391" lon="5.88129">
        <ele>374</ele>
        <time>2017-03-09T10:16:35Z</time>
      </trkpt>
      <trkpt lat="43.62412" lon="5.88088">
        <ele>374</ele>
        <time>2017-03-09T10:16:55Z</time>
      </trkpt>
      <trkpt lat="43.62435" lon="5.88093">
        <ele>375</ele>
        <time>2017-03-09T10:17:15Z</time>
      </trkpt>
      <trkpt lat="43.62431" lon="5.88119">
        <ele>376</ele>
        <time>2017-03-09T10:17:35Z</time>
      </trkpt>
      <trkpt lat="43.62434" lon="5.88153">
        <ele>376</ele>
        <time>2017-03-09T10:17:55Z</time>
      </trkpt>
      <trkpt lat="43.62492" lon="5.88143">
        <ele>378</ele>
        <time>2017-03-09T10:18:15Z</time>
      </trkpt>
      <trkpt lat="43.6253" lon="5.88157">
        <ele>381</ele>
        <time>2017-03-09T10:18:35Z</time>
      </trkpt>
      <trkpt lat="43.62558" lon="5.88156">
        <ele>382</ele>
        <time>2017-03-09T10:18:55Z</time>
      </trkpt>
      <trkpt lat="43.62567" lon="5.88175">
        <ele>384</ele>
        <time>2017-03-09T10:19:15Z</time>
      </trkpt>
      <trkpt lat="43.62631" lon="5.88174">
        <ele>388</ele>
        <time>2017-03-09T10:19:35Z</time>
      </trkpt>
      <trkpt lat="43.62649" lon="5.88222">
        <ele>391</ele>
        <time>2017-03-09T10:19:55Z</time>
      </trkpt>
      <trkpt lat="43.62672" lon="5.88256">
        <ele>398</ele>
        <time>2017-03-09T10:20:15Z</time>
      </trkpt>
      <trkpt lat="43.62674" lon="5.88274">
        <ele>400</ele>
        <time>2017-03-09T10:20:35Z</time>
      </trkpt>
      <trkpt lat="43.62699" lon="5.88306">
        <ele>402</ele>
        <time>2017-03-09T10:20:55Z</time>
      </trkpt>
      <trkpt lat="43.62701" lon="5.8834">
        <ele>405</ele>
        <time>2017-03-09T10:21:15Z</time>
      </trkpt>
      <trkpt lat="43.62736" lon="5.88377">
        <ele>408</ele>
        <time>2017-03-09T10:21:35Z</time>
      </trkpt>
      <trkpt lat="43.62757" lon="5.88402">
        <ele>414</ele>
        <time>2017-03-09T10:21:55Z</time>
      </trkpt>
      <trkpt lat="43.6289" lon="5.88565">
        <ele>426</ele>
        <time>2017-03-09T10:22:15Z</time>
      </trkpt>
      <trkpt lat="43.62986" lon="5.88569">
        <ele>426</ele>
        <time>2017-03-09T10:22:35Z</time>
      </trkpt>
      <trkpt lat="43.63015" lon="5.88539">
        <ele>427</ele>
        <time>2017-03-09T10:22:55Z</time>
      </trkpt>
      <trkpt lat="43.63028" lon="5.88534">
        <ele>427</ele>
        <time>2017-03-09T10:23:15Z</time>
      </trkpt>
      <trkpt lat="43.63044" lon="5.88543">
        <ele>427</ele>
        <time>2017-03-09T10:23:35Z</time>
      </trkpt>
      <trkpt lat="43.63062" lon="5.88573">
        <ele>428</ele>
        <time>2017-03-09T10:23:55Z</time>
      </trkpt>
      <trkpt lat="43.6306" lon="5.88612">
        <ele>427</ele>
        <time>2017-03-09T10:24:15Z</time>
      </trkpt>
      <trkpt lat="43.63038" lon="5.88633">
        <ele>427</ele>
        <time>2017-03-09T10:24:35Z</time>
      </trkpt>
      <trkpt lat="43.63017" lon="5.88673">
        <ele>425</ele>
        <time>2017-03-09T10:24:55Z</time>
      </trkpt>
      <trkpt lat="43.63002" lon="5.88728">
        <ele>425</ele>
        <time>2017-03-09T10:25:15Z</time>
      </trkpt>
      <trkpt lat="43.62999" lon="5.88777">
        <ele>424</ele>
        <time>2017-03-09T10:25:35Z</time>
      </trkpt>
      <trkpt lat="43.63007" lon="5.88819">
        <ele>424</ele>
        <time>2017-03-09T10:25:55Z</time>
      </trkpt>
      <trkpt lat="43.6302" lon="5.88838">
        <ele>423</ele>
        <time>2017-03-09T10:26:15Z</time>
      </trkpt>
      <trkpt lat="43.63016" lon="5.88887">
        <ele>422</ele>
        <time>2017-03-09T10:26:35Z</time>
      </trkpt>
      <trkpt lat="43.63054" lon="5.88995">
        <ele>420</ele>
        <time>2017-03-09T10:26:55Z</time>
      </trkpt>
      <trkpt lat="43.63058" lon="5.89066">
        <ele>418</ele>
        <time>2017-03-09T10:27:15Z</time>
      </trkpt>
      <trkpt lat="43.63045" lon="5.89104">
        <ele>417</ele>
        <time>2017-03-09T10:27:35Z</time>
      </trkpt>
      <trkpt lat="43.63048" lon="5.89132">
        <ele>416</ele>
        <time>2017-03-09T10:27:55Z</time>
      </trkpt>
      <trkpt lat="43.63036" lon="5.89184">
        <ele>416</ele>
        <time>2017-03-09T10:28:15Z</time>
      </trkpt>
      <trkpt lat="43.63017" lon="5.8925">
        <ele>415</ele>
        <time>2017-03-09T10:28:35Z</time>
      </trkpt>
      <trkpt lat="43.63011" lon="5.89321">
        <ele>414</ele>
        <time>2017-03-09T10:28:55Z</time>
      </trkpt>
      <trkpt lat="43.63007" lon="5.89388">
        <ele>411</ele>
        <time>2017-03-09T10:29:15Z</time>
      </trkpt>
      <trkpt lat="43.62985" lon="5.89477">
        <ele>408</ele>
        <time>2017-03-09T10:29:35Z</time>
      </trkpt>
      <trkpt lat="43.63029" lon="5.89587">
        <ele>404</ele>
        <time>2017-03-09T10:29:55Z</time>
      </trkpt>
      <trkpt lat="43.63069" lon="5.8965">
        <ele>404</ele>
        <time>2017-03-09T10:30:15Z</time>
      </trkpt>
      <trkpt lat="43.63083" lon="5.89715">
        <ele>402</ele>
        <time>2017-03-09T10:30:35Z</time>
      </trkpt>
      <trkpt lat="43.631" lon="5.89746">
        <ele>404</ele>
        <time>2017-03-09T10:30:55Z</time>
      </trkpt>
      <trkpt lat="43.63118" lon="5.89844">
        <ele>401</ele>
        <time>2017-03-09T10:31:15Z</time>
      </trkpt>
      <trkpt lat="43.63119" lon="5.89944">
        <ele>401</ele>
        <time>2017-03-09T10:31:35Z</time>
      </trkpt>
      <trkpt lat="43.63105" lon="5.89991">
        <ele>400</ele>
        <time>2017-03-09T10:31:55Z</time>
      </trkpt>
      <trkpt lat="43.63107" lon="5.90112">
        <ele>401</ele>
        <time>2017-03-09T10:32:15Z</time>
      </trkpt>
      <trkpt lat="43.63098" lon="5.90138">
        <ele>400</ele>
        <time>2017-03-09T10:32:35Z</time>
      </trkpt>
      <trkpt lat="43.63083" lon="5.90166">
        <ele>398</ele>
        <time>2017-03-09T10:32:55Z</time>
      </trkpt>
      <trkpt lat="43.63063" lon="5.90232">
        <ele>398</ele>
        <time>2017-03-09T10:33:15Z</time>
      </trkpt>
      <trkpt lat="43.63072" lon="5.90259">
        <ele>398</ele>
        <time>2017-03-09T10:33:35Z</time>
      </trkpt>
      <trkpt lat="43.63072" lon="5.90259">
        <ele>398</ele>
        <time>2017-03-09T10:33:55Z</time>
      </trkpt>
      <trkpt lat="43.63063" lon="5.9029">
        <ele>398</ele>
        <time>2017-03-09T10:34:15Z</time>
      </trkpt>
      <trkpt lat="43.63062" lon="5.90315">
        <ele>398</ele>
        <time>2017-03-09T10:34:35Z</time>
      </trkpt>
      <trkpt lat="43.63076" lon="5.90338">
        <ele>397</ele>
        <time>2017-03-09T10:34:55Z</time>
      </trkpt>
      <trkpt lat="43.63139" lon="5.90392">
        <ele>398</ele>
        <time>2017-03-09T10:35:15Z</time>
      </trkpt>
      <trkpt lat="43.63271" lon="5.90456">
        <ele>402</ele>
        <time>2017-03-09T10:35:35Z</time>
      </trkpt>
      <trkpt lat="43.63431" lon="5.90533">
        <ele>406</ele>
        <time>2017-03-09T10:35:55Z</time>
      </trkpt>
      <trkpt lat="43.63535" lon="5.90535">
        <ele>408</ele>
        <time>2017-03-09T10:36:15Z</time>
      </trkpt>
      <trkpt lat="43.63553" lon="5.90525">
        <ele>408</ele>
        <time>2017-03-09T10:36:35Z</time>
      </trkpt>
      <trkpt lat="43.63567" lon="5.90506">
        <ele>408</ele>
        <time>2017-03-09T10:36:55Z</time>
      </trkpt>
      <trkpt lat="43.63604" lon="5.90492">
        <ele>408</ele>
        <time>2017-03-09T10:37:15Z</time>
      </trkpt>
      <trkpt lat="43.63649" lon="5.90441">
        <ele>409</ele>
        <time>2017-03-09T10:37:35Z</time>
      </trkpt>
      <trkpt lat="43.6369" lon="5.90378">
        <ele>411</ele>
        <time>2017-03-09T10:37:55Z</time>
      </trkpt>
      <trkpt lat="43.63764" lon="5.90379">
        <ele>408</ele>
        <time>2017-03-09T10:38:15Z</time>
      </trkpt>
      <trkpt lat="43.63808" lon="5.90389">
        <ele>408</ele>
        <time>2017-03-09T10:38:35Z</time>
      </trkpt>
      <trkpt lat="43.63801" lon="5.9042">
        <ele>406</ele>
        <time>2017-03-09T10:38:55Z</time>
      </trkpt>
      <trkpt lat="43.6381" lon="5.90494">
        <ele>406</ele>
        <time>2017-03-09T10:39:15Z</time>
      </trkpt>
      <trkpt lat="43.6383" lon="5.90553">
        <ele>406</ele>
        <time>2017-03-09T10:39:35Z</time>
      </trkpt>
      <trkpt lat="43.63849" lon="5.90585">
        <ele>408</ele>
        <time>2017-03-09T10:39:55Z</time>
      </trkpt>
      <trkpt lat="43.63844" lon="5.90539">
        <ele>408</ele>
        <time>2017-03-09T10:40:15Z</time>
      </trkpt>
      <trkpt lat="43.63847" lon="5.90514">
        <ele>408</ele>
        <time>2017-03-09T10:40:35Z</time>
      </trkpt>
      <trkpt lat="43.64044" lon="5.90589">
        <ele>416</ele>
        <time>2017-03-09T10:40:55Z</time>
      </trkpt>
      <trkpt lat="43.64173" lon="5.90654">
        <ele>424</ele>
        <time>2017-03-09T10:41:15Z</time>
      </trkpt>
      <trkpt lat="43.64213" lon="5.90655">
        <ele>426</ele>
        <time>2017-03-09T10:41:35Z</time>
      </trkpt>
      <trkpt lat="43.64241" lon="5.90638">
        <ele>427</ele>
        <time>2017-03-09T10:41:55Z</time>
      </trkpt>
      <trkpt lat="43.64286" lon="5.90603">
        <ele>428</ele>
        <time>2017-03-09T10:42:15Z</time>
      </trkpt>
      <trkpt lat="43.64314" lon="5.90591">
        <ele>428</ele>
        <time>2017-03-09T10:42:35Z</time>
      </trkpt>
      <trkpt lat="43.6434" lon="5.90574">
        <ele>428</ele>
        <time>2017-03-09T10:42:55Z</time>
      </trkpt>
      <trkpt lat="43.64361" lon="5.90579">
        <ele>429</ele>
        <time>2017-03-09T10:43:15Z</time>
      </trkpt>
      <trkpt lat="43.64385" lon="5.90604">
        <ele>430</ele>
        <time>2017-03-09T10:43:35Z</time>
      </trkpt>
      <trkpt lat="43.64412" lon="5.90644">
        <ele>431</ele>
        <time>2017-03-09T10:43:55Z</time>
      </trkpt>
      <trkpt lat="43.64381" lon="5.90678">
        <ele>433</ele>
        <time>2017-03-09T10:44:15Z</time>
      </trkpt>
      <trkpt lat="43.64327" lon="5.90717">
        <ele>432</ele>
        <time>2017-03-09T10:44:35Z</time>
      </trkpt>
      <trkpt lat="43.64273" lon="5.90752">
        <ele>435</ele>
        <time>2017-03-09T10:44:55Z</time>
      </trkpt>
      <trkpt lat="43.64182" lon="5.90906">
        <ele>433</ele>
        <time>2017-03-09T10:45:15Z</time>
      </trkpt>
      <trkpt lat="43.64153" lon="5.9097">
        <ele>429</ele>
        <time>2017-03-09T10:45:35Z</time>
      </trkpt>
      <trkpt lat="43.64126" lon="5.9105">
        <ele>428</ele>
        <time>2017-03-09T10:45:55Z</time>
      </trkpt>
      <trkpt lat="43.6405" lon="5.91154">
        <ele>422</ele>
        <time>2017-03-09T10:46:15Z</time>
      </trkpt>
      <trkpt lat="43.64003" lon="5.91262">
        <ele>423</ele>
        <time>2017-03-09T10:46:35Z</time>
      </trkpt>
      <trkpt lat="43.64022" lon="5.91343">
        <ele>429</ele>
        <time>2017-03-09T10:46:55Z</time>
      </trkpt>
      <trkpt lat="43.64017" lon="5.91372">
        <ele>430</ele>
        <time>2017-03-09T10:47:15Z</time>
      </trkpt>
      <trkpt lat="43.63981" lon="5.91454">
        <ele>429</ele>
        <time>2017-03-09T10:47:35Z</time>
      </trkpt>
      <trkpt lat="43.63945" lon="5.91515">
        <ele>428</ele>
        <time>2017-03-09T10:47:55Z</time>
      </trkpt>
      <trkpt lat="43.63922" lon="5.91541">
        <ele>427</ele>
        <time>2017-03-09T10:48:15Z</time>
      </trkpt>
      <trkpt lat="43.63912" lon="5.91583">
        <ele>424</ele>
        <time>2017-03-09T10:48:35Z</time>
      </trkpt>
      <trkpt lat="43.63895" lon="5.91626">
        <ele>422</ele>
        <time>2017-03-09T10:48:55Z</time>
      </trkpt>
      <trkpt lat="43.63846" lon="5.91654">
        <ele>421</ele>
        <time>2017-03-09T10:49:15Z</time>
      </trkpt>
      <trkpt lat="43.63829" lon="5.91684">
        <ele>421</ele>
        <time>2017-03-09T10:49:35Z</time>
      </trkpt>
      <trkpt lat="43.63794" lon="5.9165">
        <ele>419</ele>
        <time>2017-03-09T10:49:55Z</time>
      </trkpt>
      <trkpt lat="43.63755" lon="5.91779">
        <ele>423</ele>
        <time>2017-03-09T10:50:15Z</time>
      </trkpt>
      <trkpt lat="43.63724" lon="5.91841">
        <ele>422</ele>
        <time>2017-03-09T10:50:35Z</time>
      </trkpt>
      <trkpt lat="43.63745" lon="5.91878">
        <ele>422</ele>
        <time>2017-03-09T10:50:55Z</time>
      </trkpt>
      <trkpt lat="43.63813" lon="5.91928">
        <ele>424</ele>
        <time>2017-03-09T10:51:15Z</time>
      </trkpt>
      <trkpt lat="43.63839" lon="5.9195">
        <ele>426</ele>
        <time>2017-03-09T10:51:35Z</time>
      </trkpt>
      <trkpt lat="43.63834" lon="5.91998">
        <ele>425</ele>
        <time>2017-03-09T10:51:55Z</time>
      </trkpt>
      <trkpt lat="43.63817" lon="5.92042">
        <ele>423</ele>
        <time>2017-03-09T10:52:15Z</time>
      </trkpt>
      <trkpt lat="43.63829" lon="5.92132">
        <ele>425</ele>
        <time>2017-03-09T10:52:35Z</time>
      </trkpt>
      <trkpt lat="43.6384" lon="5.92159">
        <ele>428</ele>
        <time>2017-03-09T10:52:55Z</time>
      </trkpt>
      <trkpt lat="43.6386" lon="5.92194">
        <ele>429</ele>
        <time>2017-03-09T10:53:15Z</time>
      </trkpt>
      <trkpt lat="43.63899" lon="5.92251">
        <ele>432</ele>
        <time>2017-03-09T10:53:35Z</time>
      </trkpt>
      <trkpt lat="43.63903" lon="5.92298">
        <ele>432</ele>
        <time>2017-03-09T10:53:55Z</time>
      </trkpt>
      <trkpt lat="43.6393" lon="5.92412">
        <ele>438</ele>
        <time>2017-03-09T10:54:15Z</time>
      </trkpt>
      <trkpt lat="43.63944" lon="5.92487">
        <ele>442</ele>
        <time>2017-03-09T10:54:35Z</time>
      </trkpt>
      <trkpt lat="43.63943" lon="5.92509">
        <ele>444</ele>
        <time>2017-03-09T10:54:55Z</time>
      </trkpt>
      <trkpt lat="43.63909" lon="5.92544">
        <ele>442</ele>
        <time>2017-03-09T10:55:15Z</time>
      </trkpt>
      <trkpt lat="43.63868" lon="5.92643">
        <ele>443</ele>
        <time>2017-03-09T10:55:35Z</time>
      </trkpt>
      <trkpt lat="43.6382" lon="5.92739">
        <ele>441</ele>
        <time>2017-03-09T10:55:55Z</time>
      </trkpt>
      <trkpt lat="43.63817" lon="5.92781">
        <ele>438</ele>
        <time>2017-03-09T10:56:15Z</time>
      </trkpt>
      <trkpt lat="43.63815" lon="5.92876">
        <ele>437</ele>
        <time>2017-03-09T10:56:35Z</time>
      </trkpt>
      <trkpt lat="43.63784" lon="5.92979">
        <ele>437</ele>
        <time>2017-03-09T10:56:55Z</time>
      </trkpt>
      <trkpt lat="43.63785" lon="5.92994">
        <ele>437</ele>
        <time>2017-03-09T10:57:15Z</time>
      </trkpt>
      <trkpt lat="43.63778" lon="5.93016">
        <ele>436</ele>
        <time>2017-03-09T10:57:35Z</time>
      </trkpt>
      <trkpt lat="43.63792" lon="5.93091">
        <ele>430</ele>
        <time>2017-03-09T10:57:55Z</time>
      </trkpt>
      <trkpt lat="43.63785" lon="5.93161">
        <ele>425</ele>
        <time>2017-03-09T10:58:15Z</time>
      </trkpt>
      <trkpt lat="43.63785" lon="5.93211">
        <ele>414</ele>
        <time>2017-03-09T10:58:35Z</time>
      </trkpt>
      <trkpt lat="43.63874" lon="5.93241">
        <ele>418</ele>
        <time>2017-03-09T10:58:55Z</time>
      </trkpt>
      <trkpt lat="43.63866" lon="5.93309">
        <ele>412</ele>
        <time>2017-03-09T10:59:15Z</time>
      </trkpt>
      <trkpt lat="43.63922" lon="5.93414">
        <ele>423</ele>
        <time>2017-03-09T10:59:35Z</time>
      </trkpt>
      <trkpt lat="43.63953" lon="5.93525">
        <ele>431</ele>
        <time>2017-03-09T10:59:55Z</time>
      </trkpt>
      <trkpt lat="43.6398" lon="5.93555">
        <ele>429</ele>
        <time>2017-03-09T11:00:15Z</time>
      </trkpt>
      <trkpt lat="43.63992" lon="5.93591">
        <ele>428</ele>
        <time>2017-03-09T11:00:35Z</time>
      </trkpt>
      <trkpt lat="43.64022" lon="5.93603">
        <ele>425</ele>
        <time>2017-03-09T11:00:55Z</time>
      </trkpt>
      <trkpt lat="43.64068" lon="5.93603">
        <ele>423</ele>
        <time>2017-03-09T11:01:15Z</time>
      </trkpt>
      <trkpt lat="43.64105" lon="5.93619">
        <ele>419</ele>
        <time>2017-03-09T11:01:35Z</time>
      </trkpt>
      <trkpt lat="43.64142" lon="5.93667">
        <ele>421</ele>
        <time>2017-03-09T11:01:55Z</time>
      </trkpt>
      <trkpt lat="43.6417" lon="5.93699">
        <ele>418</ele>
        <time>2017-03-09T11:02:15Z</time>
      </trkpt>
      <trkpt lat="43.64202" lon="5.93703">
        <ele>418</ele>
        <time>2017-03-09T11:02:35Z</time>
      </trkpt>
      <trkpt lat="43.64232" lon="5.93683">
        <ele>417</ele>
        <time>2017-03-09T11:02:55Z</time>
      </trkpt>
      <trkpt lat="43.64253" lon="5.93661">
        <ele>417</ele>
        <time>2017-03-09T11:03:15Z</time>
      </trkpt>
      <trkpt lat="43.64297" lon="5.93725">
        <ele>421</ele>
        <time>2017-03-09T11:03:35Z</time>
      </trkpt>
      <trkpt lat="43.64347" lon="5.93772">
        <ele>423</ele>
        <time>2017-03-09T11:03:55Z</time>
      </trkpt>
      <trkpt lat="43.64393" lon="5.93805">
        <ele>425</ele>
        <time>2017-03-09T11:04:15Z</time>
      </trkpt>
      <trkpt lat="43.64421" lon="5.93826">
        <ele>426</ele>
        <time>2017-03-09T11:04:35Z</time>
      </trkpt>
      <trkpt lat="43.64457" lon="5.93865">
        <ele>427</ele>
        <time>2017-03-09T11:04:55Z</time>
      </trkpt>
      <trkpt lat="43.64492" lon="5.93898">
        <ele>428</ele>
        <time>2017-03-09T11:05:15Z</time>
      </trkpt>
      <trkpt lat="43.64563" lon="5.93941">
        <ele>431</ele>
        <time>2017-03-09T11:05:35Z</time>
      </trkpt>
      <trkpt lat="43.64611" lon="5.93977">
        <ele>433</ele>
        <time>2017-03-09T11:05:55Z</time>
      </trkpt>
      <trkpt lat="43.64673" lon="5.93999">
        <ele>436</ele>
        <time>2017-03-09T11:06:15Z</time>
      </trkpt>
      <trkpt lat="43.64738" lon="5.94">
        <ele>440</ele>
        <time>2017-03-09T11:06:35Z</time>
      </trkpt>
      <trkpt lat="43.64768" lon="5.94002">
        <ele>444</ele>
        <time>2017-03-09T11:06:55Z</time>
      </trkpt>
      <trkpt lat="43.64793" lon="5.94008">
        <ele>447</ele>
        <time>2017-03-09T11:07:15Z</time>
      </trkpt>
      <trkpt lat="43.64837" lon="5.93996">
        <ele>453</ele>
        <time>2017-03-09T11:07:35Z</time>
      </trkpt>
      <trkpt lat="43.64869" lon="5.9399">
        <ele>455</ele>
        <time>2017-03-09T11:07:55Z</time>
      </trkpt>
      <trkpt lat="43.64952" lon="5.93955">
        <ele>463</ele>
        <time>2017-03-09T11:08:15Z</time>
      </trkpt>
      <trkpt lat="43.64972" lon="5.93962">
        <ele>464</ele>
        <time>2017-03-09T11:08:35Z</time>
      </trkpt>
      <trkpt lat="43.65035" lon="5.93999">
        <ele>471</ele>
        <time>2017-03-09T11:08:55Z</time>
      </trkpt>
      <trkpt lat="43.65111" lon="5.93932">
        <ele>484</ele>
        <time>2017-03-09T11:09:15Z</time>
      </trkpt>
      <trkpt lat="43.65132" lon="5.93982">
        <ele>486</ele>
        <time>2017-03-09T11:09:35Z</time>
      </trkpt>
      <trkpt lat="43.65179" lon="5.94025">
        <ele>491</ele>
        <time>2017-03-09T11:09:55Z</time>
      </trkpt>
      <trkpt lat="43.65188" lon="5.94075">
        <ele>490</ele>
        <time>2017-03-09T11:10:15Z</time>
      </trkpt>
      <trkpt lat="43.6521" lon="5.94098">
        <ele>491</ele>
        <time>2017-03-09T11:10:35Z</time>
      </trkpt>
      <trkpt lat="43.65227" lon="5.94092">
        <ele>490</ele>
        <time>2017-03-09T11:10:55Z</time>
      </trkpt>
      <trkpt lat="43.65253" lon="5.94101">
        <ele>489</ele>
        <time>2017-03-09T11:11:15Z</time>
      </trkpt>
      <trkpt lat="43.65306" lon="5.94125">
        <ele>487</ele>
        <time>2017-03-09T11:11:35Z</time>
      </trkpt>
      <trkpt lat="43.65384" lon="5.94169">
        <ele>483</ele>
        <time>2017-03-09T11:11:55Z</time>
      </trkpt>
      <trkpt lat="43.65423" lon="5.94197">
        <ele>483</ele>
        <time>2017-03-09T11:12:15Z</time>
      </trkpt>
      <trkpt lat="43.65456" lon="5.94242">
        <ele>484</ele>
        <time>2017-03-09T11:12:35Z</time>
      </trkpt>
      <trkpt lat="43.65473" lon="5.94271">
        <ele>484</ele>
        <time>2017-03-09T11:12:55Z</time>
      </trkpt>
      <trkpt lat="43.6552" lon="5.94224">
        <ele>485</ele>
        <time>2017-03-09T11:13:15Z</time>
      </trkpt>
      <trkpt lat="43.65611" lon="5.94165">
        <ele>484</ele>
        <time>2017-03-09T11:13:35Z</time>
      </trkpt>
      <trkpt lat="43.65633" lon="5.9417">
        <ele>484</ele>
        <time>2017-03-09T11:13:55Z</time>
      </trkpt>
      <trkpt lat="43.65734" lon="5.94238">
        <ele>484</ele>
        <time>2017-03-09T11:14:15Z</time>
      </trkpt>
      <trkpt lat="43.65863" lon="5.9428">
        <ele>482</ele>
        <time>2017-03-09T11:14:35Z</time>
      </trkpt>
      <trkpt lat="43.65962" lon="5.94324">
        <ele>481</ele>
        <time>2017-03-09T11:14:55Z</time>
      </trkpt>
      <trkpt lat="43.66084" lon="5.94312">
        <ele>486</ele>
        <time>2017-03-09T11:15:15Z</time>
      </trkpt>
      <trkpt lat="43.66182" lon="5.94312">
        <ele>487</ele>
        <time>2017-03-09T11:15:35Z</time>
      </trkpt>
      <trkpt lat="43.66248" lon="5.94319">
        <ele>488</ele>
        <time>2017-03-09T11:15:55Z</time>
      </trkpt>
      <trkpt lat="43.66326" lon="5.94302">
        <ele>489</ele>
        <time>2017-03-09T11:16:15Z</time>
      </trkpt>
      <trkpt lat="43.66404" lon="5.94326">
        <ele>490</ele>
        <time>2017-03-09T11:16:35Z</time>
      </trkpt>
      <trkpt lat="43.66439" lon="5.94324">
        <ele>491</ele>
        <time>2017-03-09T11:16:55Z</time>
      </trkpt>
      <trkpt lat="43.66454" lon="5.94309">
        <ele>491</ele>
        <time>2017-03-09T11:17:15Z</time>
      </trkpt>
      <trkpt lat="43.66522" lon="5.9428">
        <ele>491</ele>
        <time>2017-03-09T11:17:35Z</time>
      </trkpt>
      <trkpt lat="43.66549" lon="5.94307">
        <ele>492</ele>
        <time>2017-03-09T11:17:55Z</time>
      </trkpt>
      <trkpt lat="43.66641" lon="5.9431">
        <ele>495</ele>
        <time>2017-03-09T11:18:15Z</time>
      </trkpt>
      <trkpt lat="43.66682" lon="5.94281">
        <ele>496</ele>
        <time>2017-03-09T11:18:35Z</time>
      </trkpt>
      <trkpt lat="43.6686" lon="5.94287">
        <ele>501</ele>
        <time>2017-03-09T11:18:55Z</time>
      </trkpt>
      <trkpt lat="43.6691" lon="5.94266">
        <ele>501</ele>
        <time>2017-03-09T11:19:15Z</time>
      </trkpt>
      <trkpt lat="43.66994" lon="5.9425">
        <ele>502</ele>
        <time>2017-03-09T11:19:35Z</time>
      </trkpt>
      <trkpt lat="43.67188" lon="5.94255">
        <ele>507</ele>
        <time>2017-03-09T11:19:55Z</time>
      </trkpt>
      <trkpt lat="43.67301" lon="5.94243">
        <ele>510</ele>
        <time>2017-03-09T11:20:15Z</time>
      </trkpt>
      <trkpt lat="43.67357" lon="5.94213">
        <ele>510</ele>
        <time>2017-03-09T11:20:35Z</time>
      </trkpt>
      <trkpt lat="43.67407" lon="5.94206">
        <ele>510</ele>
        <time>2017-03-09T11:20:55Z</time>
      </trkpt>
      <trkpt lat="43.67451" lon="5.94195">
        <ele>511</ele>
        <time>2017-03-09T11:21:15Z</time>
      </trkpt>
      <trkpt lat="43.67496" lon="5.94161">
        <ele>512</ele>
        <time>2017-03-09T11:21:35Z</time>
      </trkpt>
      <trkpt lat="43.67534" lon="5.94128">
        <ele>514</ele>
        <time>2017-03-09T11:21:55Z</time>
      </trkpt>
      <trkpt lat="43.67572" lon="5.9409">
        <ele>515</ele>
        <time>2017-03-09T11:22:15Z</time>
      </trkpt>
      <trkpt lat="43.676" lon="5.94058">
        <ele>514</ele>
        <time>2017-03-09T11:22:35Z</time>
      </trkpt>
      <trkpt lat="43.67642" lon="5.94029">
        <ele>513</ele>
        <time>2017-03-09T11:22:55Z</time>
      </trkpt>
      <trkpt lat="43.67684" lon="5.94017">
        <ele>512</ele>
        <time>2017-03-09T11:23:15Z</time>
      </trkpt>
      <trkpt lat="43.67768" lon="5.93927">
        <ele>508</ele>
        <time>2017-03-09T11:23:35Z</time>
      </trkpt>
      <trkpt lat="43.67806" lon="5.93863">
        <ele>505</ele>
        <time>2017-03-09T11:23:55Z</time>
      </trkpt>
      <trkpt lat="43.67877" lon="5.9377">
        <ele>500</ele>
        <time>2017-03-09T11:24:15Z</time>
      </trkpt>
      <trkpt lat="43.67923" lon="5.93678">
        <ele>495</ele>
        <time>2017-03-09T11:24:35Z</time>
      </trkpt>
      <trkpt lat="43.67963" lon="5.93617">
        <ele>493</ele>
        <time>2017-03-09T11:24:55Z</time>
      </trkpt>
      <trkpt lat="43.68024" lon="5.93543">
        <ele>481</ele>
        <time>2017-03-09T11:25:15Z</time>
      </trkpt>
      <trkpt lat="43.68028" lon="5.9349">
        <ele>481</ele>
        <time>2017-03-09T11:25:35Z</time>
      </trkpt>
      <trkpt lat="43.68094" lon="5.93451">
        <ele>472</ele>
        <time>2017-03-09T11:25:55Z</time>
      </trkpt>
      <trkpt lat="43.68112" lon="5.93402">
        <ele>472</ele>
        <time>2017-03-09T11:26:15Z</time>
      </trkpt>
      <trkpt lat="43.68206" lon="5.93367">
        <ele>466</ele>
        <time>2017-03-09T11:26:35Z</time>
      </trkpt>
      <trkpt lat="43.68218" lon="5.93209">
        <ele>463</ele>
        <time>2017-03-09T11:26:55Z</time>
      </trkpt>
      <trkpt lat="43.68243" lon="5.93206">
        <ele>462</ele>
        <time>2017-03-09T11:27:15Z</time>
      </trkpt>
      <trkpt lat="43.68301" lon="5.93185">
        <ele>459</ele>
        <time>2017-03-09T11:27:35Z</time>
      </trkpt>
      <trkpt lat="43.68361" lon="5.93157">
        <ele>456</ele>
        <time>2017-03-09T11:27:55Z</time>
      </trkpt>
      <trkpt lat="43.68405" lon="5.92964">
        <ele>458</ele>
        <time>2017-03-09T11:28:15Z</time>
      </trkpt>
      <trkpt lat="43.68507" lon="5.92987">
        <ele>454</ele>
        <time>2017-03-09T11:28:35Z</time>
      </trkpt>
      <trkpt lat="43.68565" lon="5.9301">
        <ele>453</ele>
        <time>2017-03-09T11:28:55Z</time>
      </trkpt>
      <trkpt lat="43.68628" lon="5.93019">
        <ele>456</ele>
        <time>2017-03-09T11:29:15Z</time>
      </trkpt>
      <trkpt lat="43.6867" lon="5.93005">
        <ele>459</ele>
        <time>2017-03-09T11:29:35Z</time>
      </trkpt>
      <trkpt lat="43.68688" lon="5.92998">
        <ele>458</ele>
        <time>2017-03-09T11:29:55Z</time>
      </trkpt>
      <trkpt lat="43.68708" lon="5.92975">
        <ele>459</ele>
        <time>2017-03-09T11:30:15Z</time>
      </trkpt>
      <trkpt lat="43.68783" lon="5.92813">
        <ele>454</ele>
        <time>2017-03-09T11:30:35Z</time>
      </trkpt>
      <trkpt lat="43.6882" lon="5.92761">
        <ele>454</ele>
        <time>2017-03-09T11:30:55Z</time>
      </trkpt>
      <trkpt lat="43.68995" lon="5.92434">
        <ele>448</ele>
        <time>2017-03-09T11:31:15Z</time>
      </trkpt>
      <trkpt lat="43.69036" lon="5.92552">
        <ele>450</ele>
        <time>2017-03-09T11:31:35Z</time>
      </trkpt>
      <trkpt lat="43.69039" lon="5.926">
        <ele>452</ele>
        <time>2017-03-09T11:31:55Z</time>
      </trkpt>
      <trkpt lat="43.69062" lon="5.92712">
        <ele>456</ele>
        <time>2017-03-09T11:32:15Z</time>
      </trkpt>
      <trkpt lat="43.69124" lon="5.92813">
        <ele>467</ele>
        <time>2017-03-09T11:32:35Z</time>
      </trkpt>
      <trkpt lat="43.69118" lon="5.92881">
        <ele>472</ele>
        <time>2017-03-09T11:32:55Z</time>
      </trkpt>
      <trkpt lat="43.6912" lon="5.92954">
        <ele>475</ele>
        <time>2017-03-09T11:33:15Z</time>
      </trkpt>
      <trkpt lat="43.69111" lon="5.92988">
        <ele>475</ele>
        <time>2017-03-09T11:33:35Z</time>
      </trkpt>
      <trkpt lat="43.6912" lon="5.9303">
        <ele>477</ele>
        <time>2017-03-09T11:33:55Z</time>
      </trkpt>
      <trkpt lat="43.69118" lon="5.93069">
        <ele>478</ele>
        <time>2017-03-09T11:34:15Z</time>
      </trkpt>
      <trkpt lat="43.69154" lon="5.93071">
        <ele>476</ele>
        <time>2017-03-09T11:34:35Z</time>
      </trkpt>
      <trkpt lat="43.69173" lon="5.93086">
        <ele>476</ele>
        <time>2017-03-09T11:34:55Z</time>
      </trkpt>
      <trkpt lat="43.69183" lon="5.93104">
        <ele>478</ele>
        <time>2017-03-09T11:35:15Z</time>
      </trkpt>
      <trkpt lat="43.69195" lon="5.93105">
        <ele>479</ele>
        <time>2017-03-09T11:35:35Z</time>
      </trkpt>
      <trkpt lat="43.69223" lon="5.93074">
        <ele>480</ele>
        <time>2017-03-09T11:35:55Z</time>
      </trkpt>
      <trkpt lat="43.69256" lon="5.93088">
        <ele>480</ele>
        <time>2017-03-09T11:36:15Z</time>
      </trkpt>
      <trkpt lat="43.69317" lon="5.93102">
        <ele>484</ele>
        <time>2017-03-09T11:36:35Z</time>
      </trkpt>
      <trkpt lat="43.69343" lon="5.93129">
        <ele>488</ele>
        <time>2017-03-09T11:36:55Z</time>
      </trkpt>
      <trkpt lat="43.69354" lon="5.93175">
        <ele>487</ele>
        <time>2017-03-09T11:37:15Z</time>
      </trkpt>
      <trkpt lat="43.69374" lon="5.93218">
        <ele>489</ele>
        <time>2017-03-09T11:37:35Z</time>
      </trkpt>
      <trkpt lat="43.69397" lon="5.9322">
        <ele>489</ele>
        <time>2017-03-09T11:37:55Z</time>
      </trkpt>
      <trkpt lat="43.69412" lon="5.93245">
        <ele>489</ele>
        <time>2017-03-09T11:38:15Z</time>
      </trkpt>
      <trkpt lat="43.69434" lon="5.93267">
        <ele>492</ele>
        <time>2017-03-09T11:38:35Z</time>
      </trkpt>
      <trkpt lat="43.69442" lon="5.93338">
        <ele>491</ele>
        <time>2017-03-09T11:38:55Z</time>
      </trkpt>
      <trkpt lat="43.69452" lon="5.93367">
        <ele>491</ele>
        <time>2017-03-09T11:39:15Z</time>
      </trkpt>
      <trkpt lat="43.69439" lon="5.93389">
        <ele>491</ele>
        <time>2017-03-09T11:39:35Z</time>
      </trkpt>
      <trkpt lat="43.6942" lon="5.93455">
        <ele>490</ele>
        <time>2017-03-09T11:39:55Z</time>
      </trkpt>
      <trkpt lat="43.69395" lon="5.93493">
        <ele>494</ele>
        <time>2017-03-09T11:40:15Z</time>
      </trkpt>
      <trkpt lat="43.69329" lon="5.93517">
        <ele>499</ele>
        <time>2017-03-09T11:40:35Z</time>
      </trkpt>
      <trkpt lat="43.693" lon="5.93533">
        <ele>500</ele>
        <time>2017-03-09T11:40:55Z</time>
      </trkpt>
      <trkpt lat="43.69246" lon="5.93616">
        <ele>499</ele>
        <time>2017-03-09T11:41:15Z</time>
      </trkpt>
      <trkpt lat="43.69224" lon="5.93644">
        <ele>498</ele>
        <time>2017-03-09T11:41:35Z</time>
      </trkpt>
      <trkpt lat="43.69203" lon="5.93637">
        <ele>499</ele>
        <time>2017-03-09T11:41:55Z</time>
      </trkpt>
      <trkpt lat="43.69175" lon="5.93667">
        <ele>496</ele>
        <time>2017-03-09T11:42:15Z</time>
      </trkpt>
      <trkpt lat="43.69155" lon="5.93726">
        <ele>493</ele>
        <time>2017-03-09T11:42:35Z</time>
      </trkpt>
      <trkpt lat="43.69133" lon="5.93763">
        <ele>488</ele>
        <time>2017-03-09T11:42:55Z</time>
      </trkpt>
      <trkpt lat="43.69126" lon="5.93805">
        <ele>486</ele>
        <time>2017-03-09T11:43:15Z</time>
      </trkpt>
      <trkpt lat="43.69133" lon="5.93816">
        <ele>485</ele>
        <time>2017-03-09T11:43:35Z</time>
      </trkpt>
      <trkpt lat="43.69167" lon="5.93789">
        <ele>483</ele>
        <time>2017-03-09T11:43:55Z</time>
      </trkpt>
      <trkpt lat="43.69188" lon="5.9381">
        <ele>482</ele>
        <time>2017-03-09T11:44:15Z</time>
      </trkpt>
      <trkpt lat="43.69241" lon="5.93801">
        <ele>483</ele>
        <time>2017-03-09T11:44:35Z</time>
      </trkpt>
      <trkpt lat="43.69284" lon="5.93869">
        <ele>478</ele>
        <time>2017-03-09T11:44:55Z</time>
      </trkpt>
      <trkpt lat="43.69282" lon="5.9391">
        <ele>477</ele>
        <time>2017-03-09T11:45:15Z</time>
      </trkpt>
      <trkpt lat="43.69289" lon="5.93934">
        <ele>478</ele>
        <time>2017-03-09T11:45:35Z</time>
      </trkpt>
      <trkpt lat="43.69271" lon="5.93999">
        <ele>478</ele>
        <time>2017-03-09T11:45:55Z</time>
      </trkpt>
      <trkpt lat="43.69263" lon="5.9407">
        <ele>484</ele>
        <time>2017-03-09T11:46:15Z</time>
      </trkpt>
      <trkpt lat="43.6926" lon="5.94161">
        <ele>488</ele>
        <time>2017-03-09T11:46:35Z</time>
      </trkpt>
      <trkpt lat="43.69255" lon="5.94254">
        <ele>498</ele>
        <time>2017-03-09T11:46:55Z</time>
      </trkpt>
      <trkpt lat="43.6926" lon="5.94289">
        <ele>499</ele>
        <time>2017-03-09T11:47:15Z</time>
      </trkpt>
      <trkpt lat="43.69252" lon="5.94302">
        <ele>499</ele>
        <time>2017-03-09T11:47:35Z</time>
      </trkpt>
      <trkpt lat="43.69272" lon="5.94322">
        <ele>500</ele>
        <time>2017-03-09T11:47:55Z</time>
      </trkpt>
      <trkpt lat="43.69293" lon="5.94412">
        <ele>504</ele>
        <time>2017-03-09T11:48:15Z</time>
      </trkpt>
      <trkpt lat="43.6928" lon="5.94478">
        <ele>511</ele>
        <time>2017-03-09T11:48:35Z</time>
      </trkpt>
      <trkpt lat="43.69292" lon="5.94499">
        <ele>512</ele>
        <time>2017-03-09T11:48:55Z</time>
      </trkpt>
      <trkpt lat="43.69297" lon="5.94573">
        <ele>520</ele>
        <time>2017-03-09T11:49:15Z</time>
      </trkpt>
      <trkpt lat="43.6933" lon="5.94604">
        <ele>525</ele>
        <time>2017-03-09T11:49:35Z</time>
      </trkpt>
      <trkpt lat="43.69356" lon="5.94605">
        <ele>524</ele>
        <time>2017-03-09T11:49:55Z</time>
      </trkpt>
      <trkpt lat="43.69428" lon="5.94662">
        <ele>524</ele>
        <time>2017-03-09T11:50:15Z</time>
      </trkpt>
      <trkpt lat="43.69461" lon="5.94709">
        <ele>526</ele>
        <time>2017-03-09T11:50:35Z</time>
      </trkpt>
      <trkpt lat="43.69513" lon="5.94804">
        <ele>529</ele>
        <time>2017-03-09T11:50:55Z</time>
      </trkpt>
      <trkpt lat="43.69601" lon="5.94886">
        <ele>534</ele>
        <time>2017-03-09T11:51:15Z</time>
      </trkpt>
      <trkpt lat="43.69664" lon="5.9505">
        <ele>535</ele>
        <time>2017-03-09T11:51:35Z</time>
      </trkpt>
      <trkpt lat="43.69693" lon="5.95101">
        <ele>537</ele>
        <time>2017-03-09T11:51:55Z</time>
      </trkpt>
      <trkpt lat="43.69727" lon="5.95195">
        <ele>539</ele>
        <time>2017-03-09T11:52:15Z</time>
      </trkpt>
      <trkpt lat="43.69726" lon="5.95272">
        <ele>540</ele>
        <time>2017-03-09T11:52:35Z</time>
      </trkpt>
      <trkpt lat="43.69851" lon="5.95456">
        <ele>543</ele>
        <time>2017-03-09T11:52:55Z</time>
      </trkpt>
      <trkpt lat="43.69871" lon="5.95446">
        <ele>543</ele>
        <time>2017-03-09T11:53:15Z</time>
      </trkpt>
      <trkpt lat="43.69881" lon="5.95449">
        <ele>543</ele>
        <time>2017-03-09T11:53:35Z</time>
      </trkpt>
      <trkpt lat="43.69898" lon="5.95424">
        <ele>543</ele>
        <time>2017-03-09T11:53:55Z</time>
      </trkpt>
      <trkpt lat="43.69909" lon="5.95427">
        <ele>543</ele>
        <time>2017-03-09T11:54:15Z</time>
      </trkpt>
      <trkpt lat="43.69931" lon="5.95389">
        <ele>542</ele>
        <time>2017-03-09T11:54:35Z</time>
      </trkpt>
      <trkpt lat="43.69944" lon="5.9535">
        <ele>542</ele>
        <time>2017-03-09T11:54:55Z</time>
      </trkpt>
      <trkpt lat="43.69974" lon="5.95362">
        <ele>540</ele>
        <time>2017-03-09T11:55:15Z</time>
      </trkpt>
      <trkpt lat="43.70086" lon="5.95412">
        <ele>531</ele>
        <time>2017-03-09T11:55:35Z</time>
      </trkpt>
      <trkpt lat="43.70151" lon="5.95435">
        <ele>526</ele>
        <time>2017-03-09T11:55:55Z</time>
      </trkpt>
      <trkpt lat="43.70215" lon="5.9544">
        <ele>521</ele>
        <time>2017-03-09T11:56:15Z</time>
      </trkpt>
      <trkpt lat="43.70272" lon="5.95453">
        <ele>518</ele>
        <time>2017-03-09T11:56:35Z</time>
      </trkpt>
      <trkpt lat="43.70351" lon="5.95443">
        <ele>516</ele>
        <time>2017-03-09T11:56:55Z</time>
      </trkpt>
      <trkpt lat="43.70289" lon="5.95578">
        <ele>518</ele>
        <time>2017-03-09T11:57:15Z</time>
      </trkpt>
      <trkpt lat="43.70188" lon="5.95814">
        <ele>516</ele>
        <time>2017-03-09T11:57:35Z</time>
      </trkpt>
      <trkpt lat="43.70153" lon="5.95898">
        <ele>517</ele>
        <time>2017-03-09T11:57:55Z</time>
      </trkpt>
      <trkpt lat="43.7002" lon="5.96197">
        <ele>523</ele>
        <time>2017-03-09T11:58:15Z</time>
      </trkpt>
      <trkpt lat="43.69988" lon="5.96244">
        <ele>523</ele>
        <time>2017-03-09T11:58:35Z</time>
      </trkpt>
      <trkpt lat="43.70023" lon="5.96367">
        <ele>519</ele>
        <time>2017-03-09T11:58:55Z</time>
      </trkpt>
      <trkpt lat="43.7008" lon="5.96453">
        <ele>516</ele>
        <time>2017-03-09T11:59:15Z</time>
      </trkpt>
      <trkpt lat="43.70091" lon="5.96553">
        <ele>515</ele>
        <time>2017-03-09T11:59:35Z</time>
      </trkpt>
      <trkpt lat="43.70103" lon="5.96579">
        <ele>515</ele>
        <time>2017-03-09T11:59:55Z</time>
      </trkpt>
      <trkpt lat="43.70089" lon="5.96706">
        <ele>517</ele>
        <time>2017-03-09T12:00:15Z</time>
      </trkpt>
      <trkpt lat="43.70075" lon="5.96774">
        <ele>519</ele>
        <time>2017-03-09T12:00:35Z</time>
      </trkpt>
      <trkpt lat="43.70049" lon="5.96845">
        <ele>519</ele>
        <time>2017-03-09T12:00:55Z</time>
      </trkpt>
      <trkpt lat="43.69954" lon="5.96957">
        <ele>520</ele>
        <time>2017-03-09T12:01:15Z</time>
      </trkpt>
      <trkpt lat="43.69863" lon="5.97116">
        <ele>524</ele>
        <time>2017-03-09T12:01:35Z</time>
      </trkpt>
      <trkpt lat="43.69785" lon="5.97266">
        <ele>525</ele>
        <time>2017-03-09T12:01:55Z</time>
      </trkpt>
      <trkpt lat="43.69756" lon="5.97362">
        <ele>528</ele>
        <time>2017-03-09T12:02:15Z</time>
      </trkpt>
      <trkpt lat="43.69656" lon="5.97304">
        <ele>533</ele>
        <time>2017-03-09T12:02:35Z</time>
      </trkpt>
      <trkpt lat="43.69647" lon="5.97403">
        <ele>534</ele>
        <time>2017-03-09T12:02:55Z</time>
      </trkpt>
      <trkpt lat="43.69624" lon="5.97489">
        <ele>534</ele>
        <time>2017-03-09T12:03:15Z</time>
      </trkpt>
      <trkpt lat="43.69601" lon="5.97553">
        <ele>534</ele>
        <time>2017-03-09T12:03:35Z</time>
      </trkpt>
      <trkpt lat="43.69576" lon="5.97633">
        <ele>537</ele>
        <time>2017-03-09T12:03:55Z</time>
      </trkpt>
      <trkpt lat="43.69527" lon="5.9786">
        <ele>539</ele>
        <time>2017-03-09T12:04:15Z</time>
      </trkpt>
      <trkpt lat="43.69512" lon="5.97918">
        <ele>540</ele>
        <time>2017-03-09T12:04:35Z</time>
      </trkpt>
      <trkpt lat="43.69472" lon="5.98253">
        <ele>542</ele>
        <time>2017-03-09T12:04:55Z</time>
      </trkpt>
      <trkpt lat="43.69481" lon="5.98315">
        <ele>542</ele>
        <time>2017-03-09T12:05:15Z</time>
      </trkpt>
      <trkpt lat="43.69472" lon="5.98482">
        <ele>543</ele>
        <time>2017-03-09T12:05:35Z</time>
      </trkpt>
      <trkpt lat="43.69484" lon="5.98534">
        <ele>544</ele>
        <time>2017-03-09T12:05:55Z</time>
      </trkpt>
      <trkpt lat="43.69521" lon="5.98693">
        <ele>546</ele>
        <time>2017-03-09T12:06:15Z</time>
      </trkpt>
      <trkpt lat="43.69569" lon="5.98815">
        <ele>547</ele>
        <time>2017-03-09T12:06:35Z</time>
      </trkpt>
      <trkpt lat="43.69597" lon="5.98836">
        <ele>547</ele>
        <time>2017-03-09T12:06:55Z</time>
      </trkpt>
      <trkpt lat="43.69647" lon="5.98886">
        <ele>548</ele>
        <time>2017-03-09T12:07:15Z</time>
      </trkpt>
      <trkpt lat="43.69661" lon="5.98929">
        <ele>547</ele>
        <time>2017-03-09T12:07:35Z</time>
      </trkpt>
      <trkpt lat="43.69687" lon="5.98954">
        <ele>549</ele>
        <time>2017-03-09T12:07:55Z</time>
      </trkpt>
      <trkpt lat="43.6969" lon="5.99008">
        <ele>548</ele>
        <time>2017-03-09T12:08:15Z</time>
      </trkpt>
      <trkpt lat="43.69739" lon="5.99077">
        <ele>550</ele>
        <time>2017-03-09T12:08:35Z</time>
      </trkpt>
      <trkpt lat="43.69764" lon="5.99167">
        <ele>552</ele>
        <time>2017-03-09T12:08:55Z</time>
      </trkpt>
      <trkpt lat="43.69804" lon="5.99195">
        <ele>555</ele>
        <time>2017-03-09T12:09:15Z</time>
      </trkpt>
      <trkpt lat="43.6981" lon="5.99309">
        <ele>556</ele>
        <time>2017-03-09T12:09:35Z</time>
      </trkpt>
      <trkpt lat="43.69827" lon="5.99369">
        <ele>555</ele>
        <time>2017-03-09T12:09:55Z</time>
      </trkpt>
      <trkpt lat="43.69809" lon="5.99429">
        <ele>553</ele>
        <time>2017-03-09T12:10:15Z</time>
      </trkpt>
      <trkpt lat="43.69779" lon="5.99457">
        <ele>554</ele>
        <time>2017-03-09T12:10:35Z</time>
      </trkpt>
      <trkpt lat="43.69762" lon="5.99564">
        <ele>554</ele>
        <time>2017-03-09T12:10:55Z</time>
      </trkpt>
      <trkpt lat="43.6979" lon="5.99708">
        <ele>555</ele>
        <time>2017-03-09T12:11:15Z</time>
      </trkpt>
      <trkpt lat="43.69762" lon="5.99766">
        <ele>555</ele>
        <time>2017-03-09T12:11:35Z</time>
      </trkpt>
      <trkpt lat="43.69779" lon="5.99871">
        <ele>555</ele>
        <time>2017-03-09T12:11:55Z</time>
      </trkpt>
      <trkpt lat="43.69762" lon="5.99892">
        <ele>555</ele>
        <time>2017-03-09T12:12:15Z</time>
      </trkpt>
      <trkpt lat="43.69761" lon="5.99943">
        <ele>555</ele>
        <time>2017-03-09T12:12:35Z</time>
      </trkpt>
      <trkpt lat="43.69753" lon="5.99995">
        <ele>555</ele>
        <time>2017-03-09T12:12:55Z</time>
      </trkpt>
      <trkpt lat="43.69725" lon="6.00079">
        <ele>553</ele>
        <time>2017-03-09T12:13:15Z</time>
      </trkpt>
      <trkpt lat="43.69716" lon="6.00183">
        <ele>553</ele>
        <time>2017-03-09T12:13:35Z</time>
      </trkpt>
      <trkpt lat="43.69698" lon="6.00241">
        <ele>553</ele>
        <time>2017-03-09T12:13:55Z</time>
      </trkpt>
      <trkpt lat="43.6968" lon="6.00337">
        <ele>551</ele>
        <time>2017-03-09T12:14:15Z</time>
      </trkpt>
      <trkpt lat="43.69669" lon="6.00405">
        <ele>551</ele>
        <time>2017-03-09T12:14:35Z</time>
      </trkpt>
      <trkpt lat="43.69649" lon="6.00451">
        <ele>550</ele>
        <time>2017-03-09T12:14:55Z</time>
      </trkpt>
      <trkpt lat="43.6964" lon="6.00496">
        <ele>549</ele>
        <time>2017-03-09T12:15:15Z</time>
      </trkpt>
      <trkpt lat="43.69631" lon="6.00535">
        <ele>547</ele>
        <time>2017-03-09T12:15:35Z</time>
      </trkpt>
      <trkpt lat="43.69592" lon="6.0064">
        <ele>543</ele>
        <time>2017-03-09T12:15:55Z</time>
      </trkpt>
      <trkpt lat="43.69578" lon="6.00694">
        <ele>541</ele>
        <time>2017-03-09T12:16:15Z</time>
      </trkpt>
      <trkpt lat="43.69579" lon="6.00788">
        <ele>536</ele>
        <time>2017-03-09T12:16:35Z</time>
      </trkpt>
      <trkpt lat="43.69569" lon="6.00821">
        <ele>535</ele>
        <time>2017-03-09T12:16:55Z</time>
      </trkpt>
      <trkpt lat="43.6956" lon="6.00845">
        <ele>532</ele>
        <time>2017-03-09T12:17:15Z</time>
      </trkpt>
      <trkpt lat="43.69533" lon="6.00948">
        <ele>526</ele>
        <time>2017-03-09T12:17:35Z</time>
      </trkpt>
      <trkpt lat="43.69506" lon="6.00965">
        <ele>525</ele>
        <time>2017-03-09T12:17:55Z</time>
      </trkpt>
      <trkpt lat="43.69462" lon="6.01036">
        <ele>509</ele>
        <time>2017-03-09T12:18:15Z</time>
      </trkpt>
      <trkpt lat="43.69436" lon="6.01028">
        <ele>508</ele>
        <time>2017-03-09T12:18:35Z</time>
      </trkpt>
      <trkpt lat="43.69414" lon="6.01066">
        <ele>502</ele>
        <time>2017-03-09T12:18:55Z</time>
      </trkpt>
      <trkpt lat="43.69379" lon="6.01109">
        <ele>498</ele>
        <time>2017-03-09T12:19:15Z</time>
      </trkpt>
      <trkpt lat="43.69301" lon="6.01197">
        <ele>500</ele>
        <time>2017-03-09T12:19:35Z</time>
      </trkpt>
      <trkpt lat="43.69275" lon="6.0122">
        <ele>501</ele>
        <time>2017-03-09T12:19:55Z</time>
      </trkpt>
      <trkpt lat="43.69318" lon="6.01229">
        <ele>500</ele>
        <time>2017-03-09T12:20:15Z</time>
      </trkpt>
      <trkpt lat="43.69368" lon="6.01195">
        <ele>500</ele>
        <time>2017-03-09T12:20:35Z</time>
      </trkpt>
      <trkpt lat="43.6952" lon="6.01139">
        <ele>499</ele>
        <time>2017-03-09T12:20:55Z</time>
      </trkpt>
      <trkpt lat="43.69577" lon="6.01158">
        <ele>496</ele>
        <time>2017-03-09T12:21:15Z</time>
      </trkpt>
      <trkpt lat="43.69574" lon="6.01162">
        <ele>496</ele>
        <time>2017-03-09T12:21:35Z</time>
      </trkpt>
      <trkpt lat="43.69594" lon="6.01244">
        <ele>491</ele>
        <time>2017-03-09T12:21:55Z</time>
      </trkpt>
      <trkpt lat="43.69609" lon="6.01265">
        <ele>492</ele>
        <time>2017-03-09T12:22:15Z</time>
      </trkpt>
      <trkpt lat="43.69614" lon="6.01294">
        <ele>493</ele>
        <time>2017-03-09T12:22:35Z</time>
      </trkpt>
      <trkpt lat="43.69628" lon="6.01322">
        <ele>492</ele>
        <time>2017-03-09T12:22:55Z</time>
      </trkpt>
      <trkpt lat="43.69644" lon="6.01323">
        <ele>491</ele>
        <time>2017-03-09T12:23:15Z</time>
      </trkpt>
      <trkpt lat="43.69656" lon="6.01318">
        <ele>491</ele>
        <time>2017-03-09T12:23:35Z</time>
      </trkpt>
      <trkpt lat="43.6973" lon="6.01347">
        <ele>490</ele>
        <time>2017-03-09T12:23:55Z</time>
      </trkpt>
      <trkpt lat="43.69782" lon="6.01379">
        <ele>490</ele>
        <time>2017-03-09T12:24:15Z</time>
      </trkpt>
      <trkpt lat="43.6982" lon="6.01371">
        <ele>488</ele>
        <time>2017-03-09T12:24:35Z</time>
      </trkpt>
      <trkpt lat="43.69858" lon="6.01331">
        <ele>489</ele>
        <time>2017-03-09T12:24:55Z</time>
      </trkpt>
      <trkpt lat="43.69851" lon="6.0129">
        <ele>491</ele>
        <time>2017-03-09T12:25:15Z</time>
      </trkpt>
      <trkpt lat="43.69818" lon="6.01269">
        <ele>484</ele>
        <time>2017-03-09T12:25:35Z</time>
      </trkpt>
      <trkpt lat="43.69753" lon="6.01264">
        <ele>481</ele>
        <time>2017-03-09T12:25:55Z</time>
      </trkpt>
      <trkpt lat="43.69712" lon="6.01163">
        <ele>485</ele>
        <time>2017-03-09T12:26:15Z</time>
      </trkpt>
      <trkpt lat="43.69712" lon="6.01114">
        <ele>485</ele>
        <time>2017-03-09T12:26:35Z</time>
      </trkpt>
      <trkpt lat="43.69738" lon="6.0105">
        <ele>488</ele>
        <time>2017-03-09T12:26:55Z</time>
      </trkpt>
      <trkpt lat="43.69774" lon="6.01043">
        <ele>481</ele>
        <time>2017-03-09T12:27:15Z</time>
      </trkpt>
      <trkpt lat="43.69793" lon="6.01057">
        <ele>480</ele>
        <time>2017-03-09T12:27:35Z</time>
      </trkpt>
      <trkpt lat="43.69802" lon="6.01093">
        <ele>477</ele>
        <time>2017-03-09T12:27:55Z</time>
      </trkpt>
      <trkpt lat="43.69824" lon="6.01106">
        <ele>477</ele>
        <time>2017-03-09T12:28:15Z</time>
      </trkpt>
      <trkpt lat="43.69889" lon="6.01088">
        <ele>478</ele>
        <time>2017-03-09T12:28:35Z</time>
      </trkpt>
      <trkpt lat="43.69931" lon="6.01085">
        <ele>476</ele>
        <time>2017-03-09T12:28:55Z</time>
      </trkpt>
      <trkpt lat="43.6995" lon="6.01094">
        <ele>475</ele>
        <time>2017-03-09T12:29:15Z</time>
      </trkpt>
      <trkpt lat="43.70028" lon="6.01188">
        <ele>469</ele>
        <time>2017-03-09T12:29:35Z</time>
      </trkpt>
      <trkpt lat="43.70051" lon="6.01197">
        <ele>468</ele>
        <time>2017-03-09T12:29:55Z</time>
      </trkpt>
      <trkpt lat="43.70051" lon="6.01197">
        <ele>468</ele>
        <time>2017-03-09T12:30:15Z</time>
      </trkpt>
      <trkpt lat="43.70087" lon="6.01206">
        <ele>462</ele>
        <time>2017-03-09T12:30:35Z</time>
      </trkpt>
      <trkpt lat="43.70108" lon="6.01186">
        <ele>461</ele>
        <time>2017-03-09T12:30:55Z</time>
      </trkpt>
      <trkpt lat="43.70116" lon="6.01146">
        <ele>460</ele>
        <time>2017-03-09T12:31:15Z</time>
      </trkpt>
      <trkpt lat="43.70102" lon="6.01081">
        <ele>461</ele>
        <time>2017-03-09T12:31:35Z</time>
      </trkpt>
      <trkpt lat="43.70063" lon="6.01029">
        <ele>466</ele>
        <time>2017-03-09T12:31:55Z</time>
      </trkpt>
      <trkpt lat="43.70029" lon="6.01002">
        <ele>471</ele>
        <time>2017-03-09T12:32:15Z</time>
      </trkpt>
      <trkpt lat="43.70022" lon="6.0096">
        <ele>474</ele>
        <time>2017-03-09T12:32:35Z</time>
      </trkpt>
      <trkpt lat="43.70032" lon="6.00923">
        <ele>475</ele>
        <time>2017-03-09T12:32:55Z</time>
      </trkpt>
      <trkpt lat="43.70049" lon="6.00908">
        <ele>475</ele>
        <time>2017-03-09T12:33:15Z</time>
      </trkpt>
      <trkpt lat="43.70089" lon="6.00923">
        <ele>457</ele>
        <time>2017-03-09T12:33:35Z</time>
      </trkpt>
      <trkpt lat="43.70135" lon="6.00931">
        <ele>456</ele>
        <time>2017-03-09T12:33:55Z</time>
      </trkpt>
      <trkpt lat="43.7016" lon="6.00894">
        <ele>453</ele>
        <time>2017-03-09T12:34:15Z</time>
      </trkpt>
      <trkpt lat="43.70161" lon="6.00855">
        <ele>454</ele>
        <time>2017-03-09T12:34:35Z</time>
      </trkpt>
      <trkpt lat="43.70151" lon="6.00823">
        <ele>455</ele>
        <time>2017-03-09T12:34:55Z</time>
      </trkpt>
      <trkpt lat="43.70091" lon="6.0077">
        <ele>457</ele>
        <time>2017-03-09T12:35:15Z</time>
      </trkpt>
      <trkpt lat="43.7009" lon="6.00728">
        <ele>458</ele>
        <time>2017-03-09T12:35:35Z</time>
      </trkpt>
      <trkpt lat="43.70123" lon="6.00662">
        <ele>462</ele>
        <time>2017-03-09T12:35:55Z</time>
      </trkpt>
      <trkpt lat="43.70152" lon="6.0063">
        <ele>456</ele>
        <time>2017-03-09T12:36:15Z</time>
      </trkpt>
      <trkpt lat="43.70176" lon="6.00575">
        <ele>443</ele>
        <time>2017-03-09T12:36:35Z</time>
      </trkpt>
      <trkpt lat="43.70222" lon="6.00503">
        <ele>444</ele>
        <time>2017-03-09T12:36:55Z</time>
      </trkpt>
      <trkpt lat="43.70257" lon="6.00498">
        <ele>438</ele>
        <time>2017-03-09T12:37:15Z</time>
      </trkpt>
      <trkpt lat="43.70295" lon="6.00515">
        <ele>426</ele>
        <time>2017-03-09T12:37:35Z</time>
      </trkpt>
      <trkpt lat="43.70336" lon="6.00573">
        <ele>414</ele>
        <time>2017-03-09T12:37:55Z</time>
      </trkpt>
      <trkpt lat="43.70374" lon="6.00565">
        <ele>412</ele>
        <time>2017-03-09T12:38:15Z</time>
      </trkpt>
      <trkpt lat="43.70403" lon="6.00534">
        <ele>413</ele>
        <time>2017-03-09T12:38:35Z</time>
      </trkpt>
      <trkpt lat="43.70426" lon="6.0054">
        <ele>419</ele>
        <time>2017-03-09T12:38:55Z</time>
      </trkpt>
      <trkpt lat="43.70449" lon="6.00572">
        <ele>418</ele>
        <time>2017-03-09T12:39:15Z</time>
      </trkpt>
      <trkpt lat="43.70454" lon="6.00616">
        <ele>408</ele>
        <time>2017-03-09T12:39:35Z</time>
      </trkpt>
      <trkpt lat="43.70433" lon="6.00687">
        <ele>394</ele>
        <time>2017-03-09T12:39:55Z</time>
      </trkpt>
      <trkpt lat="43.70398" lon="6.00728">
        <ele>402</ele>
        <time>2017-03-09T12:40:15Z</time>
      </trkpt>
      <trkpt lat="43.70361" lon="6.00786">
        <ele>399</ele>
        <time>2017-03-09T12:40:35Z</time>
      </trkpt>
      <trkpt lat="43.70327" lon="6.009">
        <ele>406</ele>
        <time>2017-03-09T12:40:55Z</time>
      </trkpt>
      <trkpt lat="43.70326" lon="6.00924">
        <ele>397</ele>
        <time>2017-03-09T12:41:15Z</time>
      </trkpt>
      <trkpt lat="43.70312" lon="6.00993">
        <ele>405</ele>
        <time>2017-03-09T12:41:35Z</time>
      </trkpt>
      <trkpt lat="43.70319" lon="6.01051">
        <ele>402</ele>
        <time>2017-03-09T12:41:55Z</time>
      </trkpt>
      <trkpt lat="43.70309" lon="6.01143">
        <ele>405</ele>
        <time>2017-03-09T12:42:15Z</time>
      </trkpt>
      <trkpt lat="43.70284" lon="6.0123">
        <ele>414</ele>
        <time>2017-03-09T12:42:35Z</time>
      </trkpt>
      <trkpt lat="43.7027" lon="6.01294">
        <ele>407</ele>
        <time>2017-03-09T12:42:55Z</time>
      </trkpt>
      <trkpt lat="43.70247" lon="6.0135">
        <ele>405</ele>
        <time>2017-03-09T12:43:15Z</time>
      </trkpt>
      <trkpt lat="43.70211" lon="6.01404">
        <ele>415</ele>
        <time>2017-03-09T12:43:35Z</time>
      </trkpt>
      <trkpt lat="43.70176" lon="6.01449">
        <ele>411</ele>
        <time>2017-03-09T12:43:55Z</time>
      </trkpt>
      <trkpt lat="43.70154" lon="6.01515">
        <ele>414</ele>
        <time>2017-03-09T12:44:15Z</time>
      </trkpt>
      <trkpt lat="43.70142" lon="6.01573">
        <ele>415</ele>
        <time>2017-03-09T12:44:35Z</time>
      </trkpt>
      <trkpt lat="43.70142" lon="6.01655">
        <ele>404</ele>
        <time>2017-03-09T12:44:55Z</time>
      </trkpt>
      <trkpt lat="43.70149" lon="6.01738">
        <ele>398</ele>
        <time>2017-03-09T12:45:15Z</time>
      </trkpt>
      <trkpt lat="43.70156" lon="6.0184">
        <ele>410</ele>
        <time>2017-03-09T12:45:35Z</time>
      </trkpt>
      <trkpt lat="43.70149" lon="6.0189">
        <ele>420</ele>
        <time>2017-03-09T12:45:55Z</time>
      </trkpt>
      <trkpt lat="43.70135" lon="6.01934">
        <ele>428</ele>
        <time>2017-03-09T12:46:15Z</time>
      </trkpt>
      <trkpt lat="43.70126" lon="6.02019">
        <ele>427</ele>
        <time>2017-03-09T12:46:35Z</time>
      </trkpt>
      <trkpt lat="43.70146" lon="6.02126">
        <ele>410</ele>
        <time>2017-03-09T12:46:55Z</time>
      </trkpt>
      <trkpt lat="43.70177" lon="6.02238">
        <ele>393</ele>
        <time>2017-03-09T12:47:15Z</time>
      </trkpt>
      <trkpt lat="43.70197" lon="6.02295">
        <ele>387</ele>
        <time>2017-03-09T12:47:35Z</time>
      </trkpt>
      <trkpt lat="43.70201" lon="6.02339">
        <ele>383</ele>
        <time>2017-03-09T12:47:55Z</time>
      </trkpt>
      <trkpt lat="43.70177" lon="6.02412">
        <ele>384</ele>
        <time>2017-03-09T12:48:15Z</time>
      </trkpt>
      <trkpt lat="43.70146" lon="6.0247">
        <ele>384</ele>
        <time>2017-03-09T12:48:35Z</time>
      </trkpt>
      <trkpt lat="43.70093" lon="6.02492">
        <ele>382</ele>
        <time>2017-03-09T12:48:55Z</time>
      </trkpt>
      <trkpt lat="43.6999" lon="6.02496">
        <ele>392</ele>
        <time>2017-03-09T12:49:15Z</time>
      </trkpt>
      <trkpt lat="43.69956" lon="6.02489">
        <ele>402</ele>
        <time>2017-03-09T12:49:35Z</time>
      </trkpt>
      <trkpt lat="43.69877" lon="6.02514">
        <ele>390</ele>
        <time>2017-03-09T12:49:55Z</time>
      </trkpt>
      <trkpt lat="43.69838" lon="6.02531">
        <ele>393</ele>
        <time>2017-03-09T12:50:15Z</time>
      </trkpt>
      <trkpt lat="43.69793" lon="6.02566">
        <ele>404</ele>
        <time>2017-03-09T12:50:35Z</time>
      </trkpt>
      <trkpt lat="43.69701" lon="6.02685">
        <ele>386</ele>
        <time>2017-03-09T12:50:55Z</time>
      </trkpt>
      <trkpt lat="43.69632" lon="6.02796">
        <ele>393</ele>
        <time>2017-03-09T12:51:15Z</time>
      </trkpt>
      <trkpt lat="43.69586" lon="6.02894">
        <ele>383</ele>
        <time>2017-03-09T12:51:35Z</time>
      </trkpt>
      <trkpt lat="43.69551" lon="6.02946">
        <ele>382</ele>
        <time>2017-03-09T12:51:55Z</time>
      </trkpt>
      <trkpt lat="43.69515" lon="6.0296">
        <ele>383</ele>
        <time>2017-03-09T12:52:15Z</time>
      </trkpt>
      <trkpt lat="43.69492" lon="6.0296">
        <ele>399</ele>
        <time>2017-03-09T12:52:35Z</time>
      </trkpt>
      <trkpt lat="43.69452" lon="6.02999">
        <ele>401</ele>
        <time>2017-03-09T12:52:55Z</time>
      </trkpt>
      <trkpt lat="43.69413" lon="6.03058">
        <ele>404</ele>
        <time>2017-03-09T12:53:15Z</time>
      </trkpt>
      <trkpt lat="43.69391" lon="6.03126">
        <ele>398</ele>
        <time>2017-03-09T12:53:35Z</time>
      </trkpt>
      <trkpt lat="43.69379" lon="6.03142">
        <ele>400</ele>
        <time>2017-03-09T12:53:55Z</time>
      </trkpt>
      <trkpt lat="43.69367" lon="6.03211">
        <ele>401</ele>
        <time>2017-03-09T12:54:15Z</time>
      </trkpt>
      <trkpt lat="43.69357" lon="6.03224">
        <ele>403</ele>
        <time>2017-03-09T12:54:35Z</time>
      </trkpt>
      <trkpt lat="43.69363" lon="6.03354">
        <ele>396</ele>
        <time>2017-03-09T12:54:55Z</time>
      </trkpt>
      <trkpt lat="43.69376" lon="6.03386">
        <ele>392</ele>
        <time>2017-03-09T12:55:15Z</time>
      </trkpt>
      <trkpt lat="43.69368" lon="6.03405">
        <ele>393</ele>
        <time>2017-03-09T12:55:35Z</time>
      </trkpt>
      <trkpt lat="43.69366" lon="6.03418">
        <ele>388</ele>
        <time>2017-03-09T12:55:55Z</time>
      </trkpt>
      <trkpt lat="43.69387" lon="6.03461">
        <ele>381</ele>
        <time>2017-03-09T12:56:15Z</time>
      </trkpt>
      <trkpt lat="43.69384" lon="6.03476">
        <ele>380</ele>
        <time>2017-03-09T12:56:35Z</time>
      </trkpt>
      <trkpt lat="43.69346" lon="6.03506">
        <ele>380</ele>
        <time>2017-03-09T12:56:55Z</time>
      </trkpt>
      <trkpt lat="43.69379" lon="6.03504">
        <ele>373</ele>
        <time>2017-03-09T12:57:15Z</time>
      </trkpt>
      <trkpt lat="43.69347" lon="6.03535">
        <ele>375</ele>
        <time>2017-03-09T12:57:35Z</time>
      </trkpt>
      <trkpt lat="43.69322" lon="6.03604">
        <ele>380</ele>
        <time>2017-03-09T12:57:55Z</time>
      </trkpt>
      <trkpt lat="43.69307" lon="6.03683">
        <ele>373</ele>
        <time>2017-03-09T12:58:15Z</time>
      </trkpt>
      <trkpt lat="43.69276" lon="6.03737">
        <ele>375</ele>
        <time>2017-03-09T12:58:35Z</time>
      </trkpt>
      <trkpt lat="43.69311" lon="6.03877">
        <ele>369</ele>
        <time>2017-03-09T12:58:55Z</time>
      </trkpt>
      <trkpt lat="43.6933" lon="6.03919">
        <ele>368</ele>
        <time>2017-03-09T12:59:15Z</time>
      </trkpt>
      <trkpt lat="43.69379" lon="6.03973">
        <ele>365</ele>
        <time>2017-03-09T12:59:35Z</time>
      </trkpt>
      <trkpt lat="43.69385" lon="6.03987">
        <ele>365</ele>
        <time>2017-03-09T12:59:55Z</time>
      </trkpt>
      <trkpt lat="43.69374" lon="6.04018">
        <ele>366</ele>
        <time>2017-03-09T13:00:15Z</time>
      </trkpt>
      <trkpt lat="43.69365" lon="6.04041">
        <ele>366</ele>
        <time>2017-03-09T13:00:35Z</time>
      </trkpt>
      <trkpt lat="43.69352" lon="6.04178">
        <ele>363</ele>
        <time>2017-03-09T13:00:55Z</time>
      </trkpt>
      <trkpt lat="43.69349" lon="6.04236">
        <ele>361</ele>
        <time>2017-03-09T13:01:15Z</time>
      </trkpt>
      <trkpt lat="43.69333" lon="6.04265">
        <ele>362</ele>
        <time>2017-03-09T13:01:35Z</time>
      </trkpt>
      <trkpt lat="43.69332" lon="6.04311">
        <ele>364</ele>
        <time>2017-03-09T13:01:55Z</time>
      </trkpt>
      <trkpt lat="43.6929" lon="6.04429">
        <ele>371</ele>
        <time>2017-03-09T13:02:15Z</time>
      </trkpt>
      <trkpt lat="43.69257" lon="6.04486">
        <ele>374</ele>
        <time>2017-03-09T13:02:35Z</time>
      </trkpt>
      <trkpt lat="43.69223" lon="6.04503">
        <ele>378</ele>
        <time>2017-03-09T13:02:55Z</time>
      </trkpt>
      <trkpt lat="43.69139" lon="6.04602">
        <ele>384</ele>
        <time>2017-03-09T13:03:15Z</time>
      </trkpt>
      <trkpt lat="43.69153" lon="6.04663">
        <ele>387</ele>
        <time>2017-03-09T13:03:35Z</time>
      </trkpt>
      <trkpt lat="43.69164" lon="6.04727">
        <ele>393</ele>
        <time>2017-03-09T13:03:55Z</time>
      </trkpt>
      <trkpt lat="43.69152" lon="6.04767">
        <ele>397</ele>
        <time>2017-03-09T13:04:15Z</time>
      </trkpt>
      <trkpt lat="43.69132" lon="6.04793">
        <ele>398</ele>
        <time>2017-03-09T13:04:35Z</time>
      </trkpt>
      <trkpt lat="43.69088" lon="6.04877">
        <ele>405</ele>
        <time>2017-03-09T13:04:55Z</time>
      </trkpt>
      <trkpt lat="43.69085" lon="6.04929">
        <ele>408</ele>
        <time>2017-03-09T13:05:15Z</time>
      </trkpt>
      <trkpt lat="43.69049" lon="6.05295">
        <ele>418</ele>
        <time>2017-03-09T13:05:35Z</time>
      </trkpt>
      <trkpt lat="43.6901" lon="6.05493">
        <ele>427</ele>
        <time>2017-03-09T13:05:55Z</time>
      </trkpt>
      <trkpt lat="43.68971" lon="6.05598">
        <ele>439</ele>
        <time>2017-03-09T13:06:15Z</time>
      </trkpt>
      <trkpt lat="43.6896" lon="6.05614">
        <ele>440</ele>
        <time>2017-03-09T13:06:35Z</time>
      </trkpt>
      <trkpt lat="43.68922" lon="6.05729">
        <ele>456</ele>
        <time>2017-03-09T13:06:55Z</time>
      </trkpt>
      <trkpt lat="43.68885" lon="6.05757">
        <ele>456</ele>
        <time>2017-03-09T13:07:15Z</time>
      </trkpt>
      <trkpt lat="43.68927" lon="6.05755">
        <ele>464</ele>
        <time>2017-03-09T13:07:35Z</time>
      </trkpt>
      <trkpt lat="43.68958" lon="6.05757">
        <ele>470</ele>
        <time>2017-03-09T13:07:55Z</time>
      </trkpt>
      <trkpt lat="43.68957" lon="6.05771">
        <ele>471</ele>
        <time>2017-03-09T13:08:15Z</time>
      </trkpt>
      <trkpt lat="43.68928" lon="6.05797">
        <ele>472</ele>
        <time>2017-03-09T13:08:35Z</time>
      </trkpt>
      <trkpt lat="43.68897" lon="6.05819">
        <ele>465</ele>
        <time>2017-03-09T13:08:55Z</time>
      </trkpt>
      <trkpt lat="43.68897" lon="6.05909">
        <ele>478</ele>
        <time>2017-03-09T13:09:15Z</time>
      </trkpt>
      <trkpt lat="43.6891" lon="6.05931">
        <ele>481</ele>
        <time>2017-03-09T13:09:35Z</time>
      </trkpt>
      <trkpt lat="43.68906" lon="6.05999">
        <ele>482</ele>
        <time>2017-03-09T13:09:55Z</time>
      </trkpt>
      <trkpt lat="43.68913" lon="6.0604">
        <ele>483</ele>
        <time>2017-03-09T13:10:15Z</time>
      </trkpt>
      <trkpt lat="43.68999" lon="6.06087">
        <ele>486</ele>
        <time>2017-03-09T13:10:35Z</time>
      </trkpt>
      <trkpt lat="43.69071" lon="6.06187">
        <ele>489</ele>
        <time>2017-03-09T13:10:55Z</time>
      </trkpt>
      <trkpt lat="43.69124" lon="6.06312">
        <ele>494</ele>
        <time>2017-03-09T13:11:15Z</time>
      </trkpt>
      <trkpt lat="43.69136" lon="6.06319">
        <ele>495</ele>
        <time>2017-03-09T13:11:35Z</time>
      </trkpt>
      <trkpt lat="43.6915" lon="6.06357">
        <ele>498</ele>
        <time>2017-03-09T13:11:55Z</time>
      </trkpt>
      <trkpt lat="43.69228" lon="6.06402">
        <ele>502</ele>
        <time>2017-03-09T13:12:15Z</time>
      </trkpt>
      <trkpt lat="43.6929" lon="6.06444">
        <ele>508</ele>
        <time>2017-03-09T13:12:35Z</time>
      </trkpt>
      <trkpt lat="43.69299" lon="6.06494">
        <ele>509</ele>
        <time>2017-03-09T13:12:55Z</time>
      </trkpt>
      <trkpt lat="43.69298" lon="6.0654">
        <ele>514</ele>
        <time>2017-03-09T13:13:15Z</time>
      </trkpt>
      <trkpt lat="43.69324" lon="6.06559">
        <ele>515</ele>
        <time>2017-03-09T13:13:35Z</time>
      </trkpt>
      <trkpt lat="43.69317" lon="6.06561">
        <ele>515</ele>
        <time>2017-03-09T13:13:55Z</time>
      </trkpt>
      <trkpt lat="43.69306" lon="6.06563">
        <ele>515</ele>
        <time>2017-03-09T13:14:15Z</time>
      </trkpt>
      <trkpt lat="43.69323" lon="6.06584">
        <ele>517</ele>
        <time>2017-03-09T13:14:35Z</time>
      </trkpt>
      <trkpt lat="43.69345" lon="6.06654">
        <ele>516</ele>
        <time>2017-03-09T13:14:55Z</time>
      </trkpt>
      <trkpt lat="43.69367" lon="6.06691">
        <ele>516</ele>
        <time>2017-03-09T13:15:15Z</time>
      </trkpt>
      <trkpt lat="43.69399" lon="6.06687">
        <ele>514</ele>
        <time>2017-03-09T13:15:35Z</time>
      </trkpt>
      <trkpt lat="43.69419" lon="6.06704">
        <ele>509</ele>
        <time>2017-03-09T13:15:55Z</time>
      </trkpt>
      <trkpt lat="43.69439" lon="6.06779">
        <ele>510</ele>
        <time>2017-03-09T13:16:15Z</time>
      </trkpt>
      <trkpt lat="43.69409" lon="6.06912">
        <ele>513</ele>
        <time>2017-03-09T13:16:35Z</time>
      </trkpt>
      <trkpt lat="43.69378" lon="6.06985">
        <ele>511</ele>
        <time>2017-03-09T13:16:55Z</time>
      </trkpt>
      <trkpt lat="43.69412" lon="6.07104">
        <ele>495</ele>
        <time>2017-03-09T13:17:15Z</time>
      </trkpt>
      <trkpt lat="43.69442" lon="6.07186">
        <ele>487</ele>
        <time>2017-03-09T13:17:35Z</time>
      </trkpt>
      <trkpt lat="43.6944" lon="6.07211">
        <ele>485</ele>
        <time>2017-03-09T13:17:55Z</time>
      </trkpt>
      <trkpt lat="43.6945" lon="6.07233">
        <ele>484</ele>
        <time>2017-03-09T13:18:15Z</time>
      </trkpt>
      <trkpt lat="43.69473" lon="6.07261">
        <ele>478</ele>
        <time>2017-03-09T13:18:35Z</time>
      </trkpt>
      <trkpt lat="43.69487" lon="6.07321">
        <ele>474</ele>
        <time>2017-03-09T13:18:55Z</time>
      </trkpt>
      <trkpt lat="43.69551" lon="6.07354">
        <ele>471</ele>
        <time>2017-03-09T13:19:15Z</time>
      </trkpt>
      <trkpt lat="43.69614" lon="6.07372">
        <ele>471</ele>
        <time>2017-03-09T13:19:35Z</time>
      </trkpt>
      <trkpt lat="43.69647" lon="6.0737">
        <ele>472</ele>
        <time>2017-03-09T13:19:55Z</time>
      </trkpt>
      <trkpt lat="43.69695" lon="6.07385">
        <ele>474</ele>
        <time>2017-03-09T13:20:15Z</time>
      </trkpt>
      <trkpt lat="43.69692" lon="6.07462">
        <ele>469</ele>
        <time>2017-03-09T13:20:35Z</time>
      </trkpt>
      <trkpt lat="43.69701" lon="6.07476">
        <ele>469</ele>
        <time>2017-03-09T13:20:55Z</time>
      </trkpt>
      <trkpt lat="43.69674" lon="6.07518">
        <ele>471</ele>
        <time>2017-03-09T13:21:15Z</time>
      </trkpt>
      <trkpt lat="43.69675" lon="6.07558">
        <ele>472</ele>
        <time>2017-03-09T13:21:35Z</time>
      </trkpt>
      <trkpt lat="43.69681" lon="6.07586">
        <ele>476</ele>
        <time>2017-03-09T13:21:55Z</time>
      </trkpt>
      <trkpt lat="43.69672" lon="6.07613">
        <ele>477</ele>
        <time>2017-03-09T13:22:15Z</time>
      </trkpt>
      <trkpt lat="43.69717" lon="6.0762">
        <ele>477</ele>
        <time>2017-03-09T13:22:35Z</time>
      </trkpt>
      <trkpt lat="43.69813" lon="6.07672">
        <ele>475</ele>
        <time>2017-03-09T13:22:55Z</time>
      </trkpt>
      <trkpt lat="43.69832" lon="6.07668">
        <ele>472</ele>
        <time>2017-03-09T13:23:15Z</time>
      </trkpt>
      <trkpt lat="43.69894" lon="6.07736">
        <ele>469</ele>
        <time>2017-03-09T13:23:35Z</time>
      </trkpt>
      <trkpt lat="43.69947" lon="6.07817">
        <ele>463</ele>
        <time>2017-03-09T13:23:55Z</time>
      </trkpt>
      <trkpt lat="43.69959" lon="6.07817">
        <ele>463</ele>
        <time>2017-03-09T13:24:15Z</time>
      </trkpt>
      <trkpt lat="43.69991" lon="6.07845">
        <ele>461</ele>
        <time>2017-03-09T13:24:35Z</time>
      </trkpt>
      <trkpt lat="43.7" lon="6.07865">
        <ele>458</ele>
        <time>2017-03-09T13:24:55Z</time>
      </trkpt>
      <trkpt lat="43.70035" lon="6.07893">
        <ele>456</ele>
        <time>2017-03-09T13:25:15Z</time>
      </trkpt>
      <trkpt lat="43.70083" lon="6.07953">
        <ele>452</ele>
        <time>2017-03-09T13:25:35Z</time>
      </trkpt>
      <trkpt lat="43.7013" lon="6.07989">
        <ele>445</ele>
        <time>2017-03-09T13:25:55Z</time>
      </trkpt>
      <trkpt lat="43.7015" lon="6.08017">
        <ele>442</ele>
        <time>2017-03-09T13:26:15Z</time>
      </trkpt>
      <trkpt lat="43.70183" lon="6.08043">
        <ele>437</ele>
        <time>2017-03-09T13:26:35Z</time>
      </trkpt>
      <trkpt lat="43.70197" lon="6.08102">
        <ele>436</ele>
        <time>2017-03-09T13:26:55Z</time>
      </trkpt>
      <trkpt lat="43.70215" lon="6.08104">
        <ele>434</ele>
        <time>2017-03-09T13:27:15Z</time>
      </trkpt>
      <trkpt lat="43.7023" lon="6.08129">
        <ele>434</ele>
        <time>2017-03-09T13:27:35Z</time>
      </trkpt>
      <trkpt lat="43.70228" lon="6.08169">
        <ele>434</ele>
        <time>2017-03-09T13:27:55Z</time>
      </trkpt>
      <trkpt lat="43.70234" lon="6.08201">
        <ele>435</ele>
        <time>2017-03-09T13:28:15Z</time>
      </trkpt>
      <trkpt lat="43.7023" lon="6.08262">
        <ele>438</ele>
        <time>2017-03-09T13:28:35Z</time>
      </trkpt>
      <trkpt lat="43.70219" lon="6.08297">
        <ele>439</ele>
        <time>2017-03-09T13:28:55Z</time>
      </trkpt>
      <trkpt lat="43.70226" lon="6.08316">
        <ele>440</ele>
        <time>2017-03-09T13:29:15Z</time>
      </trkpt>
      <trkpt lat="43.70224" lon="6.08583">
        <ele>466</ele>
        <time>2017-03-09T13:29:35Z</time>
      </trkpt>
      <trkpt lat="43.70241" lon="6.0861">
        <ele>471</ele>
        <time>2017-03-09T13:29:55Z</time>
      </trkpt>
      <trkpt lat="43.70244" lon="6.08691">
        <ele>476</ele>
        <time>2017-03-09T13:30:15Z</time>
      </trkpt>
      <trkpt lat="43.70236" lon="6.08751">
        <ele>480</ele>
        <time>2017-03-09T13:30:35Z</time>
      </trkpt>
      <trkpt lat="43.70242" lon="6.08782">
        <ele>478</ele>
        <time>2017-03-09T13:30:55Z</time>
      </trkpt>
      <trkpt lat="43.70262" lon="6.08809">
        <ele>483</ele>
        <time>2017-03-09T13:31:15Z</time>
      </trkpt>
      <trkpt lat="43.70264" lon="6.08826">
        <ele>483</ele>
        <time>2017-03-09T13:31:35Z</time>
      </trkpt>
      <trkpt lat="43.70289" lon="6.08942">
        <ele>494</ele>
        <time>2017-03-09T13:31:55Z</time>
      </trkpt>
      <trkpt lat="43.70313" lon="6.08966">
        <ele>495</ele>
        <time>2017-03-09T13:32:15Z</time>
      </trkpt>
      <trkpt lat="43.70335" lon="6.0907">
        <ele>505</ele>
        <time>2017-03-09T13:32:35Z</time>
      </trkpt>
      <trkpt lat="43.70325" lon="6.0908">
        <ele>503</ele>
        <time>2017-03-09T13:32:55Z</time>
      </trkpt>
      <trkpt lat="43.70328" lon="6.09202">
        <ele>501</ele>
        <time>2017-03-09T13:33:15Z</time>
      </trkpt>
      <trkpt lat="43.70357" lon="6.09216">
        <ele>510</ele>
        <time>2017-03-09T13:33:35Z</time>
      </trkpt>
      <trkpt lat="43.7041" lon="6.09255">
        <ele>514</ele>
        <time>2017-03-09T13:33:55Z</time>
      </trkpt>
      <trkpt lat="43.70442" lon="6.09273">
        <ele>516</ele>
        <time>2017-03-09T13:34:15Z</time>
      </trkpt>
      <trkpt lat="43.70496" lon="6.09343">
        <ele>520</ele>
        <time>2017-03-09T13:34:35Z</time>
      </trkpt>
      <trkpt lat="43.70541" lon="6.09475">
        <ele>516</ele>
        <time>2017-03-09T13:34:55Z</time>
      </trkpt>
      <trkpt lat="43.70536" lon="6.09577">
        <ele>517</ele>
        <time>2017-03-09T13:35:15Z</time>
      </trkpt>
      <trkpt lat="43.70531" lon="6.09609">
        <ele>519</ele>
        <time>2017-03-09T13:35:35Z</time>
      </trkpt>
      <trkpt lat="43.70528" lon="6.09675">
        <ele>522</ele>
        <time>2017-03-09T13:35:55Z</time>
      </trkpt>
      <trkpt lat="43.70509" lon="6.0974">
        <ele>522</ele>
        <time>2017-03-09T13:36:15Z</time>
      </trkpt>
      <trkpt lat="43.70511" lon="6.09769">
        <ele>522</ele>
        <time>2017-03-09T13:36:35Z</time>
      </trkpt>
      <trkpt lat="43.70551" lon="6.09817">
        <ele>522</ele>
        <time>2017-03-09T13:36:55Z</time>
      </trkpt>
      <trkpt lat="43.70575" lon="6.09922">
        <ele>526</ele>
        <time>2017-03-09T13:37:15Z</time>
      </trkpt>
      <trkpt lat="43.70578" lon="6.09962">
        <ele>527</ele>
        <time>2017-03-09T13:37:35Z</time>
      </trkpt>
      <trkpt lat="43.70587" lon="6.09999">
        <ele>528</ele>
        <time>2017-03-09T13:37:55Z</time>
      </trkpt>
      <trkpt lat="43.70588" lon="6.10131">
        <ele>518</ele>
        <time>2017-03-09T13:38:15Z</time>
      </trkpt>
      <trkpt lat="43.70559" lon="6.10252">
        <ele>522</ele>
        <time>2017-03-09T13:38:35Z</time>
      </trkpt>
      <trkpt lat="43.70558" lon="6.10384">
        <ele>519</ele>
        <time>2017-03-09T13:38:55Z</time>
      </trkpt>
      <trkpt lat="43.70577" lon="6.10488">
        <ele>515</ele>
        <time>2017-03-09T13:39:15Z</time>
      </trkpt>
      <trkpt lat="43.70574" lon="6.10576">
        <ele>510</ele>
        <time>2017-03-09T13:39:35Z</time>
      </trkpt>
      <trkpt lat="43.70596" lon="6.10632">
        <ele>499</ele>
        <time>2017-03-09T13:39:55Z</time>
      </trkpt>
      <trkpt lat="43.70662" lon="6.10728">
        <ele>496</ele>
        <time>2017-03-09T13:40:15Z</time>
      </trkpt>
      <trkpt lat="43.70691" lon="6.10735">
        <ele>492</ele>
        <time>2017-03-09T13:40:35Z</time>
      </trkpt>
      <trkpt lat="43.7071" lon="6.10779">
        <ele>494</ele>
        <time>2017-03-09T13:40:55Z</time>
      </trkpt>
      <trkpt lat="43.70735" lon="6.10806">
        <ele>494</ele>
        <time>2017-03-09T13:41:15Z</time>
      </trkpt>
      <trkpt lat="43.70749" lon="6.10853">
        <ele>496</ele>
        <time>2017-03-09T13:41:35Z</time>
      </trkpt>
      <trkpt lat="43.7079" lon="6.10877">
        <ele>495</ele>
        <time>2017-03-09T13:41:55Z</time>
      </trkpt>
      <trkpt lat="43.70809" lon="6.10882">
        <ele>496</ele>
        <time>2017-03-09T13:42:15Z</time>
      </trkpt>
      <trkpt lat="43.70832" lon="6.10882">
        <ele>496</ele>
        <time>2017-03-09T13:42:35Z</time>
      </trkpt>
      <trkpt lat="43.7088" lon="6.10899">
        <ele>496</ele>
        <time>2017-03-09T13:42:55Z</time>
      </trkpt>
      <trkpt lat="43.70927" lon="6.1088">
        <ele>493</ele>
        <time>2017-03-09T13:43:15Z</time>
      </trkpt>
      <trkpt lat="43.7095" lon="6.10887">
        <ele>493</ele>
        <time>2017-03-09T13:43:35Z</time>
      </trkpt>
      <trkpt lat="43.70974" lon="6.10884">
        <ele>492</ele>
        <time>2017-03-09T13:43:55Z</time>
      </trkpt>
      <trkpt lat="43.70989" lon="6.109">
        <ele>492</ele>
        <time>2017-03-09T13:44:15Z</time>
      </trkpt>
      <trkpt lat="43.70988" lon="6.10975">
        <ele>497</ele>
        <time>2017-03-09T13:44:35Z</time>
      </trkpt>
      <trkpt lat="43.70967" lon="6.11034">
        <ele>500</ele>
        <time>2017-03-09T13:44:55Z</time>
      </trkpt>
      <trkpt lat="43.70942" lon="6.11068">
        <ele>502</ele>
        <time>2017-03-09T13:45:15Z</time>
      </trkpt>
      <trkpt lat="43.70921" lon="6.11152">
        <ele>511</ele>
        <time>2017-03-09T13:45:35Z</time>
      </trkpt>
      <trkpt lat="43.70956" lon="6.11184">
        <ele>512</ele>
        <time>2017-03-09T13:45:55Z</time>
      </trkpt>
      <trkpt lat="43.70988" lon="6.11264">
        <ele>513</ele>
        <time>2017-03-09T13:46:15Z</time>
      </trkpt>
      <trkpt lat="43.71072" lon="6.1135">
        <ele>515</ele>
        <time>2017-03-09T13:46:35Z</time>
      </trkpt>
      <trkpt lat="43.71099" lon="6.11402">
        <ele>516</ele>
        <time>2017-03-09T13:46:55Z</time>
      </trkpt>
      <trkpt lat="43.71159" lon="6.11488">
        <ele>519</ele>
        <time>2017-03-09T13:47:15Z</time>
      </trkpt>
      <trkpt lat="43.71177" lon="6.11553">
        <ele>514</ele>
        <time>2017-03-09T13:47:35Z</time>
      </trkpt>
      <trkpt lat="43.71189" lon="6.11683">
        <ele>513</ele>
        <time>2017-03-09T13:47:55Z</time>
      </trkpt>
      <trkpt lat="43.71155" lon="6.11733">
        <ele>520</ele>
        <time>2017-03-09T13:48:15Z</time>
      </trkpt>
      <trkpt lat="43.71059" lon="6.11809">
        <ele>531</ele>
        <time>2017-03-09T13:48:35Z</time>
      </trkpt>
      <trkpt lat="43.71043" lon="6.11859">
        <ele>531</ele>
        <time>2017-03-09T13:48:55Z</time>
      </trkpt>
      <trkpt lat="43.71029" lon="6.11897">
        <ele>532</ele>
        <time>2017-03-09T13:49:15Z</time>
      </trkpt>
      <trkpt lat="43.71027" lon="6.11988">
        <ele>536</ele>
        <time>2017-03-09T13:49:35Z</time>
      </trkpt>
      <trkpt lat="43.71056" lon="6.12034">
        <ele>542</ele>
        <time>2017-03-09T13:49:55Z</time>
      </trkpt>
      <trkpt lat="43.71071" lon="6.12044">
        <ele>543</ele>
        <time>2017-03-09T13:50:15Z</time>
      </trkpt>
      <trkpt lat="43.71064" lon="6.12114">
        <ele>546</ele>
        <time>2017-03-09T13:50:35Z</time>
      </trkpt>
      <trkpt lat="43.71084" lon="6.12163">
        <ele>550</ele>
        <time>2017-03-09T13:50:55Z</time>
      </trkpt>
      <trkpt lat="43.71086" lon="6.1218">
        <ele>551</ele>
        <time>2017-03-09T13:51:15Z</time>
      </trkpt>
      <trkpt lat="43.71107" lon="6.12207">
        <ele>552</ele>
        <time>2017-03-09T13:51:35Z</time>
      </trkpt>
      <trkpt lat="43.71131" lon="6.12228">
        <ele>553</ele>
        <time>2017-03-09T13:51:55Z</time>
      </trkpt>
      <trkpt lat="43.71134" lon="6.12259">
        <ele>556</ele>
        <time>2017-03-09T13:52:15Z</time>
      </trkpt>
      <trkpt lat="43.71144" lon="6.12274">
        <ele>556</ele>
        <time>2017-03-09T13:52:35Z</time>
      </trkpt>
      <trkpt lat="43.71148" lon="6.12287">
        <ele>557</ele>
        <time>2017-03-09T13:52:55Z</time>
      </trkpt>
      <trkpt lat="43.71167" lon="6.12299">
        <ele>558</ele>
        <time>2017-03-09T13:53:15Z</time>
      </trkpt>
      <trkpt lat="43.7117" lon="6.12338">
        <ele>565</ele>
        <time>2017-03-09T13:53:35Z</time>
      </trkpt>
      <trkpt lat="43.7118" lon="6.12395">
        <ele>569</ele>
        <time>2017-03-09T13:53:55Z</time>
      </trkpt>
      <trkpt lat="43.71164" lon="6.1248">
        <ele>575</ele>
        <time>2017-03-09T13:54:15Z</time>
      </trkpt>
      <trkpt lat="43.71129" lon="6.12614">
        <ele>589</ele>
        <time>2017-03-09T13:54:35Z</time>
      </trkpt>
      <trkpt lat="43.71099" lon="6.12667">
        <ele>591</ele>
        <time>2017-03-09T13:54:55Z</time>
      </trkpt>
      <trkpt lat="43.71101" lon="6.12715">
        <ele>594</ele>
        <time>2017-03-09T13:55:15Z</time>
      </trkpt>
      <trkpt lat="43.71087" lon="6.12744">
        <ele>595</ele>
        <time>2017-03-09T13:55:35Z</time>
      </trkpt>
      <trkpt lat="43.7109" lon="6.1278">
        <ele>595</ele>
        <time>2017-03-09T13:55:55Z</time>
      </trkpt>
      <trkpt lat="43.71087" lon="6.128">
        <ele>595</ele>
        <time>2017-03-09T13:56:15Z</time>
      </trkpt>
      <trkpt lat="43.711" lon="6.12823">
        <ele>595</ele>
        <time>2017-03-09T13:56:35Z</time>
      </trkpt>
      <trkpt lat="43.71064" lon="6.129">
        <ele>598</ele>
        <time>2017-03-09T13:56:55Z</time>
      </trkpt>
      <trkpt lat="43.71067" lon="6.12936">
        <ele>601</ele>
        <time>2017-03-09T13:57:15Z</time>
      </trkpt>
      <trkpt lat="43.71101" lon="6.12943">
        <ele>598</ele>
        <time>2017-03-09T13:57:35Z</time>
      </trkpt>
      <trkpt lat="43.71157" lon="6.13026">
        <ele>604</ele>
        <time>2017-03-09T13:57:55Z</time>
      </trkpt>
      <trkpt lat="43.71174" lon="6.13067">
        <ele>603</ele>
        <time>2017-03-09T13:58:15Z</time>
      </trkpt>
      <trkpt lat="43.7125" lon="6.13076">
        <ele>598</ele>
        <time>2017-03-09T13:58:35Z</time>
      </trkpt>
      <trkpt lat="43.71292" lon="6.13127">
        <ele>598</ele>
        <time>2017-03-09T13:58:55Z</time>
      </trkpt>
      <trkpt lat="43.71322" lon="6.13138">
        <ele>596</ele>
        <time>2017-03-09T13:59:15Z</time>
      </trkpt>
      <trkpt lat="43.71368" lon="6.13199">
        <ele>585</ele>
        <time>2017-03-09T13:59:35Z</time>
      </trkpt>
      <trkpt lat="43.71393" lon="6.13245">
        <ele>583</ele>
        <time>2017-03-09T13:59:55Z</time>
      </trkpt>
      <trkpt lat="43.71441" lon="6.13295">
        <ele>587</ele>
        <time>2017-03-09T14:00:15Z</time>
      </trkpt>
      <trkpt lat="43.71478" lon="6.13364">
        <ele>593</ele>
        <time>2017-03-09T14:00:35Z</time>
      </trkpt>
      <trkpt lat="43.71503" lon="6.1342">
        <ele>597</ele>
        <time>2017-03-09T14:00:55Z</time>
      </trkpt>
      <trkpt lat="43.7153" lon="6.13398">
        <ele>606</ele>
        <time>2017-03-09T14:01:15Z</time>
      </trkpt>
      <trkpt lat="43.71557" lon="6.13412">
        <ele>612</ele>
        <time>2017-03-09T14:01:35Z</time>
      </trkpt>
      <trkpt lat="43.71573" lon="6.13444">
        <ele>615</ele>
        <time>2017-03-09T14:01:55Z</time>
      </trkpt>
      <trkpt lat="43.71581" lon="6.13446">
        <ele>615</ele>
        <time>2017-03-09T14:02:15Z</time>
      </trkpt>
      <trkpt lat="43.71597" lon="6.13509">
        <ele>623</ele>
        <time>2017-03-09T14:02:35Z</time>
      </trkpt>
      <trkpt lat="43.7161" lon="6.13498">
        <ele>626</ele>
        <time>2017-03-09T14:02:55Z</time>
      </trkpt>
      <trkpt lat="43.716" lon="6.13465">
        <ele>626</ele>
        <time>2017-03-09T14:03:15Z</time>
      </trkpt>
      <trkpt lat="43.71602" lon="6.13433">
        <ele>626</ele>
        <time>2017-03-09T14:03:35Z</time>
      </trkpt>
      <trkpt lat="43.71621" lon="6.13437">
        <ele>628</ele>
        <time>2017-03-09T14:03:55Z</time>
      </trkpt>
      <trkpt lat="43.71623" lon="6.13461">
        <ele>628</ele>
        <time>2017-03-09T14:04:15Z</time>
      </trkpt>
      <trkpt lat="43.71629" lon="6.13467">
        <ele>629</ele>
        <time>2017-03-09T14:04:35Z</time>
      </trkpt>
      <trkpt lat="43.71634" lon="6.13463">
        <ele>629</ele>
        <time>2017-03-09T14:04:55Z</time>
      </trkpt>
      <trkpt lat="43.71636" lon="6.1345">
        <ele>629</ele>
        <time>2017-03-09T14:05:15Z</time>
      </trkpt>
      <trkpt lat="43.71673" lon="6.13451">
        <ele>631</ele>
        <time>2017-03-09T14:05:35Z</time>
      </trkpt>
      <trkpt lat="43.71675" lon="6.13465">
        <ele>632</ele>
        <time>2017-03-09T14:05:55Z</time>
      </trkpt>
      <trkpt lat="43.7169" lon="6.13472">
        <ele>632</ele>
        <time>2017-03-09T14:06:15Z</time>
      </trkpt>
      <trkpt lat="43.71706" lon="6.13519">
        <ele>636</ele>
        <time>2017-03-09T14:06:35Z</time>
      </trkpt>
      <trkpt lat="43.71767" lon="6.13664">
        <ele>643</ele>
        <time>2017-03-09T14:06:55Z</time>
      </trkpt>
      <trkpt lat="43.71798" lon="6.13748">
        <ele>652</ele>
        <time>2017-03-09T14:07:15Z</time>
      </trkpt>
      <trkpt lat="43.71798" lon="6.1378">
        <ele>658</ele>
        <time>2017-03-09T14:07:35Z</time>
      </trkpt>
      <trkpt lat="43.71759" lon="6.13843">
        <ele>659</ele>
        <time>2017-03-09T14:07:55Z</time>
      </trkpt>
      <trkpt lat="43.71756" lon="6.13861">
        <ele>661</ele>
        <time>2017-03-09T14:08:15Z</time>
      </trkpt>
      <trkpt lat="43.71761" lon="6.13884">
        <ele>662</ele>
        <time>2017-03-09T14:08:35Z</time>
      </trkpt>
      <trkpt lat="43.71759" lon="6.13914">
        <ele>661</ele>
        <time>2017-03-09T14:08:55Z</time>
      </trkpt>
      <trkpt lat="43.71765" lon="6.13941">
        <ele>664</ele>
        <time>2017-03-09T14:09:15Z</time>
      </trkpt>
      <trkpt lat="43.71764" lon="6.13982">
        <ele>665</ele>
        <time>2017-03-09T14:09:35Z</time>
      </trkpt>
      <trkpt lat="43.71756" lon="6.13988">
        <ele>665</ele>
        <time>2017-03-09T14:09:55Z</time>
      </trkpt>
      <trkpt lat="43.71721" lon="6.14087">
        <ele>675</ele>
        <time>2017-03-09T14:10:15Z</time>
      </trkpt>
      <trkpt lat="43.7174" lon="6.1412">
        <ele>677</ele>
        <time>2017-03-09T14:10:35Z</time>
      </trkpt>
      <trkpt lat="43.71741" lon="6.14146">
        <ele>678</ele>
        <time>2017-03-09T14:10:55Z</time>
      </trkpt>
      <trkpt lat="43.7175" lon="6.14173">
        <ele>681</ele>
        <time>2017-03-09T14:11:15Z</time>
      </trkpt>
      <trkpt lat="43.71696" lon="6.14181">
        <ele>683</ele>
        <time>2017-03-09T14:11:35Z</time>
      </trkpt>
      <trkpt lat="43.7167" lon="6.14211">
        <ele>683</ele>
        <time>2017-03-09T14:11:55Z</time>
      </trkpt>
      <trkpt lat="43.71643" lon="6.14283">
        <ele>689</ele>
        <time>2017-03-09T14:12:15Z</time>
      </trkpt>
      <trkpt lat="43.71588" lon="6.14297">
        <ele>690</ele>
        <time>2017-03-09T14:12:35Z</time>
      </trkpt>
      <trkpt lat="43.71573" lon="6.14312">
        <ele>692</ele>
        <time>2017-03-09T14:12:55Z</time>
      </trkpt>
      <trkpt lat="43.71558" lon="6.14395">
        <ele>695</ele>
        <time>2017-03-09T14:13:15Z</time>
      </trkpt>
      <trkpt lat="43.71526" lon="6.14506">
        <ele>700</ele>
        <time>2017-03-09T14:13:35Z</time>
      </trkpt>
      <trkpt lat="43.71507" lon="6.14605">
        <ele>706</ele>
        <time>2017-03-09T14:13:55Z</time>
      </trkpt>
      <trkpt lat="43.7148" lon="6.14701">
        <ele>711</ele>
        <time>2017-03-09T14:14:15Z</time>
      </trkpt>
      <trkpt lat="43.71451" lon="6.14776">
        <ele>716</ele>
        <time>2017-03-09T14:14:35Z</time>
      </trkpt>
      <trkpt lat="43.71419" lon="6.14831">
        <ele>719</ele>
        <time>2017-03-09T14:14:55Z</time>
      </trkpt>
      <trkpt lat="43.71403" lon="6.14886">
        <ele>718</ele>
        <time>2017-03-09T14:15:15Z</time>
      </trkpt>
      <trkpt lat="43.71402" lon="6.14923">
        <ele>720</ele>
        <time>2017-03-09T14:15:35Z</time>
      </trkpt>
      <trkpt lat="43.71367" lon="6.15071">
        <ele>718</ele>
        <time>2017-03-09T14:15:55Z</time>
      </trkpt>
      <trkpt lat="43.71337" lon="6.15124">
        <ele>717</ele>
        <time>2017-03-09T14:16:15Z</time>
      </trkpt>
      <trkpt lat="43.71337" lon="6.15198">
        <ele>715</ele>
        <time>2017-03-09T14:16:35Z</time>
      </trkpt>
      <trkpt lat="43.71306" lon="6.15284">
        <ele>715</ele>
        <time>2017-03-09T14:16:55Z</time>
      </trkpt>
      <trkpt lat="43.71198" lon="6.15482">
        <ele>712</ele>
        <time>2017-03-09T14:17:15Z</time>
      </trkpt>
      <trkpt lat="43.7119" lon="6.15529">
        <ele>714</ele>
        <time>2017-03-09T14:17:35Z</time>
      </trkpt>
      <trkpt lat="43.7115" lon="6.15607">
        <ele>720</ele>
        <time>2017-03-09T14:17:55Z</time>
      </trkpt>
      <trkpt lat="43.71118" lon="6.15718">
        <ele>727</ele>
        <time>2017-03-09T14:18:15Z</time>
      </trkpt>
      <trkpt lat="43.71114" lon="6.1574">
        <ele>728</ele>
        <time>2017-03-09T14:18:35Z</time>
      </trkpt>
      <trkpt lat="43.71093" lon="6.15829">
        <ele>735</ele>
        <time>2017-03-09T14:18:55Z</time>
      </trkpt>
      <trkpt lat="43.71056" lon="6.15938">
        <ele>736</ele>
        <time>2017-03-09T14:19:15Z</time>
      </trkpt>
      <trkpt lat="43.71014" lon="6.16013">
        <ele>736</ele>
        <time>2017-03-09T14:19:35Z</time>
      </trkpt>
      <trkpt lat="43.70994" lon="6.16062">
        <ele>738</ele>
        <time>2017-03-09T14:19:55Z</time>
      </trkpt>
      <trkpt lat="43.7088" lon="6.16264">
        <ele>756</ele>
        <time>2017-03-09T14:20:15Z</time>
      </trkpt>
      <trkpt lat="43.70828" lon="6.16352">
        <ele>765</ele>
        <time>2017-03-09T14:20:35Z</time>
      </trkpt>
      <trkpt lat="43.70785" lon="6.16476">
        <ele>775</ele>
        <time>2017-03-09T14:20:55Z</time>
      </trkpt>
      <trkpt lat="43.70718" lon="6.16499">
        <ele>775</ele>
        <time>2017-03-09T14:21:15Z</time>
      </trkpt>
      <trkpt lat="43.70657" lon="6.16543">
        <ele>771</ele>
        <time>2017-03-09T14:21:35Z</time>
      </trkpt>
      <trkpt lat="43.70633" lon="6.16562">
        <ele>771</ele>
        <time>2017-03-09T14:21:55Z</time>
      </trkpt>
      <trkpt lat="43.70617" lon="6.16582">
        <ele>770</ele>
        <time>2017-03-09T14:22:15Z</time>
      </trkpt>
      <trkpt lat="43.70558" lon="6.16615">
        <ele>768</ele>
        <time>2017-03-09T14:22:35Z</time>
      </trkpt>
      <trkpt lat="43.70476" lon="6.16638">
        <ele>772</ele>
        <time>2017-03-09T14:22:55Z</time>
      </trkpt>
      <trkpt lat="43.70393" lon="6.16738">
        <ele>773</ele>
        <time>2017-03-09T14:23:15Z</time>
      </trkpt>
      <trkpt lat="43.703" lon="6.16822">
        <ele>777</ele>
        <time>2017-03-09T14:23:35Z</time>
      </trkpt>
      <trkpt lat="43.70202" lon="6.16932">
        <ele>780</ele>
        <time>2017-03-09T14:23:55Z</time>
      </trkpt>
      <trkpt lat="43.70092" lon="6.17005">
        <ele>781</ele>
        <time>2017-03-09T14:24:15Z</time>
      </trkpt>
      <trkpt lat="43.69984" lon="6.17091">
        <ele>777</ele>
        <time>2017-03-09T14:24:35Z</time>
      </trkpt>
      <trkpt lat="43.69864" lon="6.17202">
        <ele>776</ele>
        <time>2017-03-09T14:24:55Z</time>
      </trkpt>
      <trkpt lat="43.69798" lon="6.17293">
        <ele>772</ele>
        <time>2017-03-09T14:25:15Z</time>
      </trkpt>
      <trkpt lat="43.69759" lon="6.17337">
        <ele>770</ele>
        <time>2017-03-09T14:25:35Z</time>
      </trkpt>
      <trkpt lat="43.69747" lon="6.17485">
        <ele>773</ele>
        <time>2017-03-09T14:25:55Z</time>
      </trkpt>
      <trkpt lat="43.69778" lon="6.17475">
        <ele>770</ele>
        <time>2017-03-09T14:26:15Z</time>
      </trkpt>
      <trkpt lat="43.69844" lon="6.1741">
        <ele>766</ele>
        <time>2017-03-09T14:26:35Z</time>
      </trkpt>
      <trkpt lat="43.6989" lon="6.17351">
        <ele>764</ele>
        <time>2017-03-09T14:26:55Z</time>
      </trkpt>
      <trkpt lat="43.6992" lon="6.17321">
        <ele>761</ele>
        <time>2017-03-09T14:27:15Z</time>
      </trkpt>
      <trkpt lat="43.69951" lon="6.17263">
        <ele>762</ele>
        <time>2017-03-09T14:27:35Z</time>
      </trkpt>
      <trkpt lat="43.70015" lon="6.17257">
        <ele>756</ele>
        <time>2017-03-09T14:27:55Z</time>
      </trkpt>
      <trkpt lat="43.70041" lon="6.17314">
        <ele>757</ele>
        <time>2017-03-09T14:28:15Z</time>
      </trkpt>
      <trkpt lat="43.7006" lon="6.17314">
        <ele>757</ele>
        <time>2017-03-09T14:28:35Z</time>
      </trkpt>
      <trkpt lat="43.70089" lon="6.17271">
        <ele>756</ele>
        <time>2017-03-09T14:28:55Z</time>
      </trkpt>
      <trkpt lat="43.70123" lon="6.17247">
        <ele>755</ele>
        <time>2017-03-09T14:29:15Z</time>
      </trkpt>
      <trkpt lat="43.7015" lon="6.17211">
        <ele>756</ele>
        <time>2017-03-09T14:29:35Z</time>
      </trkpt>
      <trkpt lat="43.7017" lon="6.17215">
        <ele>752</ele>
        <time>2017-03-09T14:29:55Z</time>
      </trkpt>
      <trkpt lat="43.702" lon="6.17202">
        <ele>751</ele>
        <time>2017-03-09T14:30:15Z</time>
      </trkpt>
      <trkpt lat="43.70232" lon="6.17175">
        <ele>748</ele>
        <time>2017-03-09T14:30:35Z</time>
      </trkpt>
      <trkpt lat="43.70248" lon="6.17147">
        <ele>749</ele>
        <time>2017-03-09T14:30:55Z</time>
      </trkpt>
      <trkpt lat="43.70264" lon="6.17146">
        <ele>747</ele>
        <time>2017-03-09T14:31:15Z</time>
      </trkpt>
      <trkpt lat="43.70302" lon="6.17114">
        <ele>748</ele>
        <time>2017-03-09T14:31:35Z</time>
      </trkpt>
      <trkpt lat="43.70324" lon="6.17032">
        <ele>746</ele>
        <time>2017-03-09T14:31:55Z</time>
      </trkpt>
      <trkpt lat="43.70346" lon="6.16995">
        <ele>740</ele>
        <time>2017-03-09T14:32:15Z</time>
      </trkpt>
      <trkpt lat="43.70393" lon="6.16951">
        <ele>739</ele>
        <time>2017-03-09T14:32:35Z</time>
      </trkpt>
      <trkpt lat="43.7043" lon="6.16921">
        <ele>732</ele>
        <time>2017-03-09T14:32:55Z</time>
      </trkpt>
      <trkpt lat="43.70454" lon="6.16925">
        <ele>731</ele>
        <time>2017-03-09T14:33:15Z</time>
      </trkpt>
      <trkpt lat="43.70486" lon="6.16909">
        <ele>730</ele>
        <time>2017-03-09T14:33:35Z</time>
      </trkpt>
      <trkpt lat="43.70539" lon="6.16908">
        <ele>724</ele>
        <time>2017-03-09T14:33:55Z</time>
      </trkpt>
      <trkpt lat="43.70559" lon="6.16915">
        <ele>723</ele>
        <time>2017-03-09T14:34:15Z</time>
      </trkpt>
      <trkpt lat="43.7057" lon="6.1691">
        <ele>723</ele>
        <time>2017-03-09T14:34:35Z</time>
      </trkpt>
      <trkpt lat="43.70581" lon="6.16857">
        <ele>721</ele>
        <time>2017-03-09T14:34:55Z</time>
      </trkpt>
      <trkpt lat="43.70578" lon="6.16836">
        <ele>717</ele>
        <time>2017-03-09T14:35:15Z</time>
      </trkpt>
      <trkpt lat="43.70584" lon="6.16827">
        <ele>716</ele>
        <time>2017-03-09T14:35:35Z</time>
      </trkpt>
      <trkpt lat="43.70633" lon="6.1682">
        <ele>718</ele>
        <time>2017-03-09T14:35:55Z</time>
      </trkpt>
      <trkpt lat="43.70648" lon="6.16816">
        <ele>717</ele>
        <time>2017-03-09T14:36:15Z</time>
      </trkpt>
      <trkpt lat="43.70667" lon="6.16787">
        <ele>713</ele>
        <time>2017-03-09T14:36:35Z</time>
      </trkpt>
      <trkpt lat="43.70704" lon="6.168">
        <ele>710</ele>
        <time>2017-03-09T14:36:55Z</time>
      </trkpt>
      <trkpt lat="43.70728" lon="6.16786">
        <ele>710</ele>
        <time>2017-03-09T14:37:15Z</time>
      </trkpt>
      <trkpt lat="43.70777" lon="6.16807">
        <ele>702</ele>
        <time>2017-03-09T14:37:35Z</time>
      </trkpt>
      <trkpt lat="43.70778" lon="6.16835">
        <ele>699</ele>
        <time>2017-03-09T14:37:55Z</time>
      </trkpt>
      <trkpt lat="43.70812" lon="6.16831">
        <ele>696</ele>
        <time>2017-03-09T14:38:15Z</time>
      </trkpt>
      <trkpt lat="43.70839" lon="6.16797">
        <ele>696</ele>
        <time>2017-03-09T14:38:35Z</time>
      </trkpt>
      <trkpt lat="43.70861" lon="6.16809">
        <ele>694</ele>
        <time>2017-03-09T14:38:55Z</time>
      </trkpt>
      <trkpt lat="43.70872" lon="6.1686">
        <ele>686</ele>
        <time>2017-03-09T14:39:15Z</time>
      </trkpt>
      <trkpt lat="43.70885" lon="6.16868">
        <ele>685</ele>
        <time>2017-03-09T14:39:35Z</time>
      </trkpt>
      <trkpt lat="43.70916" lon="6.16848">
        <ele>682</ele>
        <time>2017-03-09T14:39:55Z</time>
      </trkpt>
      <trkpt lat="43.70975" lon="6.16836">
        <ele>679</ele>
        <time>2017-03-09T14:40:15Z</time>
      </trkpt>
      <trkpt lat="43.70974" lon="6.16888">
        <ele>676</ele>
        <time>2017-03-09T14:40:35Z</time>
      </trkpt>
      <trkpt lat="43.70982" lon="6.16898">
        <ele>674</ele>
        <time>2017-03-09T14:40:55Z</time>
      </trkpt>
      <trkpt lat="43.71" lon="6.169">
        <ele>673</ele>
        <time>2017-03-09T14:41:15Z</time>
      </trkpt>
      <trkpt lat="43.71016" lon="6.16929">
        <ele>670</ele>
        <time>2017-03-09T14:41:35Z</time>
      </trkpt>
      <trkpt lat="43.71016" lon="6.16955">
        <ele>670</ele>
        <time>2017-03-09T14:41:55Z</time>
      </trkpt>
      <trkpt lat="43.70999" lon="6.16975">
        <ele>671</ele>
        <time>2017-03-09T14:42:15Z</time>
      </trkpt>
      <trkpt lat="43.71015" lon="6.17055">
        <ele>670</ele>
        <time>2017-03-09T14:42:35Z</time>
      </trkpt>
      <trkpt lat="43.71066" lon="6.17123">
        <ele>674</ele>
        <time>2017-03-09T14:42:55Z</time>
      </trkpt>
      <trkpt lat="43.71084" lon="6.17166">
        <ele>675</ele>
        <time>2017-03-09T14:43:15Z</time>
      </trkpt>
      <trkpt lat="43.71108" lon="6.17196">
        <ele>674</ele>
        <time>2017-03-09T14:43:35Z</time>
      </trkpt>
      <trkpt lat="43.71137" lon="6.17213">
        <ele>672</ele>
        <time>2017-03-09T14:43:55Z</time>
      </trkpt>
      <trkpt lat="43.71151" lon="6.17256">
        <ele>677</ele>
        <time>2017-03-09T14:44:15Z</time>
      </trkpt>
      <trkpt lat="43.71209" lon="6.17308">
        <ele>670</ele>
        <time>2017-03-09T14:44:35Z</time>
      </trkpt>
      <trkpt lat="43.71257" lon="6.17316">
        <ele>666</ele>
        <time>2017-03-09T14:44:55Z</time>
      </trkpt>
      <trkpt lat="43.71351" lon="6.1735">
        <ele>666</ele>
        <time>2017-03-09T14:45:15Z</time>
      </trkpt>
      <trkpt lat="43.71392" lon="6.17365">
        <ele>665</ele>
        <time>2017-03-09T14:45:35Z</time>
      </trkpt>
      <trkpt lat="43.71407" lon="6.17382">
        <ele>664</ele>
        <time>2017-03-09T14:45:55Z</time>
      </trkpt>
      <trkpt lat="43.71519" lon="6.17484">
        <ele>656</ele>
        <time>2017-03-09T14:46:15Z</time>
      </trkpt>
      <trkpt lat="43.71664" lon="6.17662">
        <ele>647</ele>
        <time>2017-03-09T14:46:35Z</time>
      </trkpt>
      <trkpt lat="43.71693" lon="6.17755">
        <ele>641</ele>
        <time>2017-03-09T14:46:55Z</time>
      </trkpt>
      <trkpt lat="43.71703" lon="6.17803">
        <ele>639</ele>
        <time>2017-03-09T14:47:15Z</time>
      </trkpt>
      <trkpt lat="43.71706" lon="6.17835">
        <ele>633</ele>
        <time>2017-03-09T14:47:35Z</time>
      </trkpt>
      <trkpt lat="43.71674" lon="6.17901">
        <ele>629</ele>
        <time>2017-03-09T14:47:55Z</time>
      </trkpt>
      <trkpt lat="43.71655" lon="6.17921">
        <ele>626</ele>
        <time>2017-03-09T14:48:15Z</time>
      </trkpt>
      <trkpt lat="43.71697" lon="6.17926">
        <ele>618</ele>
        <time>2017-03-09T14:48:35Z</time>
      </trkpt>
      <trkpt lat="43.71802" lon="6.17898">
        <ele>616</ele>
        <time>2017-03-09T14:48:55Z</time>
      </trkpt>
      <trkpt lat="43.71872" lon="6.17837">
        <ele>606</ele>
        <time>2017-03-09T14:49:15Z</time>
      </trkpt>
      <trkpt lat="43.71923" lon="6.17823">
        <ele>601</ele>
        <time>2017-03-09T14:49:35Z</time>
      </trkpt>
      <trkpt lat="43.71978" lon="6.17776">
        <ele>599</ele>
        <time>2017-03-09T14:49:55Z</time>
      </trkpt>
      <trkpt lat="43.72023" lon="6.17791">
        <ele>587</ele>
        <time>2017-03-09T14:50:15Z</time>
      </trkpt>
      <trkpt lat="43.72072" lon="6.17747">
        <ele>591</ele>
        <time>2017-03-09T14:50:35Z</time>
      </trkpt>
      <trkpt lat="43.72067" lon="6.17766">
        <ele>586</ele>
        <time>2017-03-09T14:50:55Z</time>
      </trkpt>
      <trkpt lat="43.7204" lon="6.17794">
        <ele>586</ele>
        <time>2017-03-09T14:51:15Z</time>
      </trkpt>
      <trkpt lat="43.72005" lon="6.17872">
        <ele>571</ele>
        <time>2017-03-09T14:51:35Z</time>
      </trkpt>
      <trkpt lat="43.71979" lon="6.17887">
        <ele>580</ele>
        <time>2017-03-09T14:51:55Z</time>
      </trkpt>
      <trkpt lat="43.7191" lon="6.17952">
        <ele>580</ele>
        <time>2017-03-09T14:52:15Z</time>
      </trkpt>
      <trkpt lat="43.71879" lon="6.17999">
        <ele>577</ele>
        <time>2017-03-09T14:52:35Z</time>
      </trkpt>
      <trkpt lat="43.71821" lon="6.18037">
        <ele>572</ele>
        <time>2017-03-09T14:52:55Z</time>
      </trkpt>
      <trkpt lat="43.71793" lon="6.18044">
        <ele>573</ele>
        <time>2017-03-09T14:53:15Z</time>
      </trkpt>
      <trkpt lat="43.71789" lon="6.18082">
        <ele>570</ele>
        <time>2017-03-09T14:53:35Z</time>
      </trkpt>
      <trkpt lat="43.71822" lon="6.18096">
        <ele>554</ele>
        <time>2017-03-09T14:53:55Z</time>
      </trkpt>
      <trkpt lat="43.71823" lon="6.18181">
        <ele>546</ele>
        <time>2017-03-09T14:54:15Z</time>
      </trkpt>
      <trkpt lat="43.71861" lon="6.18228">
        <ele>540</ele>
        <time>2017-03-09T14:54:35Z</time>
      </trkpt>
      <trkpt lat="43.71887" lon="6.18295">
        <ele>540</ele>
        <time>2017-03-09T14:54:55Z</time>
      </trkpt>
      <trkpt lat="43.71946" lon="6.18281">
        <ele>534</ele>
        <time>2017-03-09T14:55:15Z</time>
      </trkpt>
      <trkpt lat="43.72071" lon="6.18206">
        <ele>525</ele>
        <time>2017-03-09T14:55:35Z</time>
      </trkpt>
      <trkpt lat="43.7209" lon="6.18164">
        <ele>523</ele>
        <time>2017-03-09T14:55:55Z</time>
      </trkpt>
      <trkpt lat="43.72114" lon="6.18157">
        <ele>521</ele>
        <time>2017-03-09T14:56:15Z</time>
      </trkpt>
      <trkpt lat="43.72194" lon="6.18561">
        <ele>498</ele>
        <time>2017-03-09T14:56:35Z</time>
      </trkpt>
      <trkpt lat="43.72217" lon="6.18617">
        <ele>493</ele>
        <time>2017-03-09T14:56:55Z</time>
      </trkpt>
      <trkpt lat="43.723" lon="6.18804">
        <ele>493</ele>
        <time>2017-03-09T14:57:15Z</time>
      </trkpt>
      <trkpt lat="43.72355" lon="6.18826">
        <ele>496</ele>
        <time>2017-03-09T14:57:35Z</time>
      </trkpt>
      <trkpt lat="43.72427" lon="6.18824">
        <ele>498</ele>
        <time>2017-03-09T14:57:55Z</time>
      </trkpt>
      <trkpt lat="43.72463" lon="6.18815">
        <ele>499</ele>
        <time>2017-03-09T14:58:15Z</time>
      </trkpt>
      <trkpt lat="43.72479" lon="6.18802">
        <ele>498</ele>
        <time>2017-03-09T14:58:35Z</time>
      </trkpt>
      <trkpt lat="43.7256" lon="6.18771">
        <ele>502</ele>
        <time>2017-03-09T14:58:55Z</time>
      </trkpt>
      <trkpt lat="43.72585" lon="6.18736">
        <ele>498</ele>
        <time>2017-03-09T14:59:15Z</time>
      </trkpt>
      <trkpt lat="43.72622" lon="6.18669">
        <ele>494</ele>
        <time>2017-03-09T14:59:35Z</time>
      </trkpt>
      <trkpt lat="43.72851" lon="6.18599">
        <ele>493</ele>
        <time>2017-03-09T14:59:55Z</time>
      </trkpt>
      <trkpt lat="43.72906" lon="6.18584">
        <ele>495</ele>
        <time>2017-03-09T15:00:15Z</time>
      </trkpt>
      <trkpt lat="43.72975" lon="6.18589">
        <ele>499</ele>
        <time>2017-03-09T15:00:35Z</time>
      </trkpt>
      <trkpt lat="43.73034" lon="6.1856">
        <ele>492</ele>
        <time>2017-03-09T15:00:55Z</time>
      </trkpt>
      <trkpt lat="43.73117" lon="6.18447">
        <ele>483</ele>
        <time>2017-03-09T15:01:15Z</time>
      </trkpt>
      <trkpt lat="43.73163" lon="6.18434">
        <ele>482</ele>
        <time>2017-03-09T15:01:35Z</time>
      </trkpt>
      <trkpt lat="43.73284" lon="6.18588">
        <ele>500</ele>
        <time>2017-03-09T15:01:55Z</time>
      </trkpt>
      <trkpt lat="43.73331" lon="6.18605">
        <ele>496</ele>
        <time>2017-03-09T15:02:15Z</time>
      </trkpt>
      <trkpt lat="43.73455" lon="6.18603">
        <ele>487</ele>
        <time>2017-03-09T15:02:35Z</time>
      </trkpt>
      <trkpt lat="43.73502" lon="6.18593">
        <ele>488</ele>
        <time>2017-03-09T15:02:55Z</time>
      </trkpt>
      <trkpt lat="43.7352" lon="6.18565">
        <ele>491</ele>
        <time>2017-03-09T15:03:15Z</time>
      </trkpt>
      <trkpt lat="43.73524" lon="6.18511">
        <ele>492</ele>
        <time>2017-03-09T15:03:35Z</time>
      </trkpt>
      <trkpt lat="43.73472" lon="6.18413">
        <ele>492</ele>
        <time>2017-03-09T15:03:55Z</time>
      </trkpt>
      <trkpt lat="43.73413" lon="6.1838">
        <ele>481</ele>
        <time>2017-03-09T15:04:15Z</time>
      </trkpt>
      <trkpt lat="43.73393" lon="6.18349">
        <ele>483</ele>
        <time>2017-03-09T15:04:35Z</time>
      </trkpt>
      <trkpt lat="43.73356" lon="6.1824">
        <ele>489</ele>
        <time>2017-03-09T15:04:55Z</time>
      </trkpt>
      <trkpt lat="43.73342" lon="6.18112">
        <ele>491</ele>
        <time>2017-03-09T15:05:15Z</time>
      </trkpt>
      <trkpt lat="43.73338" lon="6.18088">
        <ele>487</ele>
        <time>2017-03-09T15:05:35Z</time>
      </trkpt>
      <trkpt lat="43.73295" lon="6.18004">
        <ele>483</ele>
        <time>2017-03-09T15:05:55Z</time>
      </trkpt>
      <trkpt lat="43.73274" lon="6.17879">
        <ele>493</ele>
        <time>2017-03-09T15:06:15Z</time>
      </trkpt>
      <trkpt lat="43.73291" lon="6.17822">
        <ele>499</ele>
        <time>2017-03-09T15:06:35Z</time>
      </trkpt>
      <trkpt lat="43.73309" lon="6.17818">
        <ele>503</ele>
        <time>2017-03-09T15:06:55Z</time>
      </trkpt>
      <trkpt lat="43.73312" lon="6.17811">
        <ele>503</ele>
        <time>2017-03-09T15:07:15Z</time>
      </trkpt>
      <trkpt lat="43.73329" lon="6.17748">
        <ele>508</ele>
        <time>2017-03-09T15:07:35Z</time>
      </trkpt>
      <trkpt lat="43.73337" lon="6.17756">
        <ele>515</ele>
        <time>2017-03-09T15:07:55Z</time>
      </trkpt>
      <trkpt lat="43.73339" lon="6.17791">
        <ele>523</ele>
        <time>2017-03-09T15:08:15Z</time>
      </trkpt>
      <trkpt lat="43.73399" lon="6.17948">
        <ele>521</ele>
        <time>2017-03-09T15:08:35Z</time>
      </trkpt>
      <trkpt lat="43.73434" lon="6.17989">
        <ele>533</ele>
        <time>2017-03-09T15:08:55Z</time>
      </trkpt>
      <trkpt lat="43.7347" lon="6.18074">
        <ele>529</ele>
        <time>2017-03-09T15:09:15Z</time>
      </trkpt>
      <trkpt lat="43.73476" lon="6.18144">
        <ele>524</ele>
        <time>2017-03-09T15:09:35Z</time>
      </trkpt>
      <trkpt lat="43.73504" lon="6.1821">
        <ele>537</ele>
        <time>2017-03-09T15:09:55Z</time>
      </trkpt>
      <trkpt lat="43.73536" lon="6.18225">
        <ele>539</ele>
        <time>2017-03-09T15:10:15Z</time>
      </trkpt>
      <trkpt lat="43.73575" lon="6.18276">
        <ele>533</ele>
        <time>2017-03-09T15:10:35Z</time>
      </trkpt>
      <trkpt lat="43.73616" lon="6.18296">
        <ele>552</ele>
        <time>2017-03-09T15:10:55Z</time>
      </trkpt>
      <trkpt lat="43.73652" lon="6.18361">
        <ele>547</ele>
        <time>2017-03-09T15:11:15Z</time>
      </trkpt>
      <trkpt lat="43.73656" lon="6.18408">
        <ele>546</ele>
        <time>2017-03-09T15:11:35Z</time>
      </trkpt>
      <trkpt lat="43.73668" lon="6.18471">
        <ele>557</ele>
        <time>2017-03-09T15:11:55Z</time>
      </trkpt>
      <trkpt lat="43.73649" lon="6.18544">
        <ele>530</ele>
        <time>2017-03-09T15:12:15Z</time>
      </trkpt>
      <trkpt lat="43.73656" lon="6.18553">
        <ele>531</ele>
        <time>2017-03-09T15:12:35Z</time>
      </trkpt>
      <trkpt lat="43.73683" lon="6.18557">
        <ele>552</ele>
        <time>2017-03-09T15:12:55Z</time>
      </trkpt>
      <trkpt lat="43.73702" lon="6.1859">
        <ele>554</ele>
        <time>2017-03-09T15:13:15Z</time>
      </trkpt>
      <trkpt lat="43.73741" lon="6.18625">
        <ele>560</ele>
        <time>2017-03-09T15:13:35Z</time>
      </trkpt>
      <trkpt lat="43.73726" lon="6.1866">
        <ele>560</ele>
        <time>2017-03-09T15:13:55Z</time>
      </trkpt>
      <trkpt lat="43.73754" lon="6.18804">
        <ele>579</ele>
        <time>2017-03-09T15:14:15Z</time>
      </trkpt>
      <trkpt lat="43.73766" lon="6.1883">
        <ele>578</ele>
        <time>2017-03-09T15:14:35Z</time>
      </trkpt>
      <trkpt lat="43.73802" lon="6.1887">
        <ele>585</ele>
        <time>2017-03-09T15:14:55Z</time>
      </trkpt>
      <trkpt lat="43.73833" lon="6.18921">
        <ele>584</ele>
        <time>2017-03-09T15:15:15Z</time>
      </trkpt>
      <trkpt lat="43.73887" lon="6.1892">
        <ele>597</ele>
        <time>2017-03-09T15:15:35Z</time>
      </trkpt>
      <trkpt lat="43.73935" lon="6.18909">
        <ele>609</ele>
        <time>2017-03-09T15:15:55Z</time>
      </trkpt>
      <trkpt lat="43.73886" lon="6.18987">
        <ele>598</ele>
        <time>2017-03-09T15:16:15Z</time>
      </trkpt>
      <trkpt lat="43.73928" lon="6.19101">
        <ele>619</ele>
        <time>2017-03-09T15:16:35Z</time>
      </trkpt>
      <trkpt lat="43.73946" lon="6.19221">
        <ele>629</ele>
        <time>2017-03-09T15:16:55Z</time>
      </trkpt>
      <trkpt lat="43.73909" lon="6.19305">
        <ele>633</ele>
        <time>2017-03-09T15:17:15Z</time>
      </trkpt>
      <trkpt lat="43.73892" lon="6.19371">
        <ele>635</ele>
        <time>2017-03-09T15:17:35Z</time>
      </trkpt>
      <trkpt lat="43.73921" lon="6.1947">
        <ele>641</ele>
        <time>2017-03-09T15:17:55Z</time>
      </trkpt>
      <trkpt lat="43.73881" lon="6.19505">
        <ele>641</ele>
        <time>2017-03-09T15:18:15Z</time>
      </trkpt>
      <trkpt lat="43.73898" lon="6.19586">
        <ele>650</ele>
        <time>2017-03-09T15:18:35Z</time>
      </trkpt>
      <trkpt lat="43.73881" lon="6.19642">
        <ele>652</ele>
        <time>2017-03-09T15:18:55Z</time>
      </trkpt>
      <trkpt lat="43.73879" lon="6.19777">
        <ele>663</ele>
        <time>2017-03-09T15:19:15Z</time>
      </trkpt>
      <trkpt lat="43.73878" lon="6.19878">
        <ele>666</ele>
        <time>2017-03-09T15:19:35Z</time>
      </trkpt>
      <trkpt lat="43.73895" lon="6.19914">
        <ele>668</ele>
        <time>2017-03-09T15:19:55Z</time>
      </trkpt>
      <trkpt lat="43.73903" lon="6.19951">
        <ele>669</ele>
        <time>2017-03-09T15:20:15Z</time>
      </trkpt>
      <trkpt lat="43.74155" lon="6.20262">
        <ele>696</ele>
        <time>2017-03-09T15:20:35Z</time>
      </trkpt>
      <trkpt lat="43.74181" lon="6.20323">
        <ele>697</ele>
        <time>2017-03-09T15:20:55Z</time>
      </trkpt>
      <trkpt lat="43.74184" lon="6.20323">
        <ele>697</ele>
        <time>2017-03-09T15:21:15Z</time>
      </trkpt>
      <trkpt lat="43.74221" lon="6.20365">
        <ele>693</ele>
        <time>2017-03-09T15:21:35Z</time>
      </trkpt>
      <trkpt lat="43.7424" lon="6.20416">
        <ele>689</ele>
        <time>2017-03-09T15:21:55Z</time>
      </trkpt>
      <trkpt lat="43.74292" lon="6.20531">
        <ele>667</ele>
        <time>2017-03-09T15:22:15Z</time>
      </trkpt>
      <trkpt lat="43.74314" lon="6.20561">
        <ele>661</ele>
        <time>2017-03-09T15:22:35Z</time>
      </trkpt>
      <trkpt lat="43.74338" lon="6.20578">
        <ele>648</ele>
        <time>2017-03-09T15:22:55Z</time>
      </trkpt>
      <trkpt lat="43.74366" lon="6.20596">
        <ele>639</ele>
        <time>2017-03-09T15:23:15Z</time>
      </trkpt>
      <trkpt lat="43.74381" lon="6.20621">
        <ele>637</ele>
        <time>2017-03-09T15:23:35Z</time>
      </trkpt>
      <trkpt lat="43.74416" lon="6.20652">
        <ele>627</ele>
        <time>2017-03-09T15:23:55Z</time>
      </trkpt>
      <trkpt lat="43.74436" lon="6.20654">
        <ele>622</ele>
        <time>2017-03-09T15:24:15Z</time>
      </trkpt>
      <trkpt lat="43.74471" lon="6.20702">
        <ele>608</ele>
        <time>2017-03-09T15:24:35Z</time>
      </trkpt>
      <trkpt lat="43.74482" lon="6.2075">
        <ele>601</ele>
        <time>2017-03-09T15:24:55Z</time>
      </trkpt>
      <trkpt lat="43.74482" lon="6.2085">
        <ele>577</ele>
        <time>2017-03-09T15:25:15Z</time>
      </trkpt>
      <trkpt lat="43.74497" lon="6.20893">
        <ele>569</ele>
        <time>2017-03-09T15:25:35Z</time>
      </trkpt>
      <trkpt lat="43.74533" lon="6.20929">
        <ele>551</ele>
        <time>2017-03-09T15:25:55Z</time>
      </trkpt>
      <trkpt lat="43.74575" lon="6.20935">
        <ele>550</ele>
        <time>2017-03-09T15:26:15Z</time>
      </trkpt>
      <trkpt lat="43.74678" lon="6.209">
        <ele>543</ele>
        <time>2017-03-09T15:26:35Z</time>
      </trkpt>
      <trkpt lat="43.74733" lon="6.20905">
        <ele>540</ele>
        <time>2017-03-09T15:26:55Z</time>
      </trkpt>
      <trkpt lat="43.74757" lon="6.20921">
        <ele>532</ele>
        <time>2017-03-09T15:27:15Z</time>
      </trkpt>
      <trkpt lat="43.74796" lon="6.2099">
        <ele>524</ele>
        <time>2017-03-09T15:27:35Z</time>
      </trkpt>
      <trkpt lat="43.74843" lon="6.21027">
        <ele>513</ele>
        <time>2017-03-09T15:27:55Z</time>
      </trkpt>
      <trkpt lat="43.74863" lon="6.21053">
        <ele>512</ele>
        <time>2017-03-09T15:28:15Z</time>
      </trkpt>
      <trkpt lat="43.74889" lon="6.21064">
        <ele>512</ele>
        <time>2017-03-09T15:28:35Z</time>
      </trkpt>
      <trkpt lat="43.74989" lon="6.21038">
        <ele>509</ele>
        <time>2017-03-09T15:28:55Z</time>
      </trkpt>
      <trkpt lat="43.75044" lon="6.21011">
        <ele>510</ele>
        <time>2017-03-09T15:29:15Z</time>
      </trkpt>
      <trkpt lat="43.75084" lon="6.20951">
        <ele>503</ele>
        <time>2017-03-09T15:29:35Z</time>
      </trkpt>
      <trkpt lat="43.75118" lon="6.20978">
        <ele>505</ele>
        <time>2017-03-09T15:29:55Z</time>
      </trkpt>
      <trkpt lat="43.75176" lon="6.20999">
        <ele>511</ele>
        <time>2017-03-09T15:30:15Z</time>
      </trkpt>
      <trkpt lat="43.75187" lon="6.2099">
        <ele>511</ele>
        <time>2017-03-09T15:30:35Z</time>
      </trkpt>
      <trkpt lat="43.7523" lon="6.20942">
        <ele>510</ele>
        <time>2017-03-09T15:30:55Z</time>
      </trkpt>
      <trkpt lat="43.75243" lon="6.20942">
        <ele>510</ele>
        <time>2017-03-09T15:31:15Z</time>
      </trkpt>
      <trkpt lat="43.75253" lon="6.20993">
        <ele>515</ele>
        <time>2017-03-09T15:31:35Z</time>
      </trkpt>
      <trkpt lat="43.75282" lon="6.20995">
        <ele>513</ele>
        <time>2017-03-09T15:31:55Z</time>
      </trkpt>
      <trkpt lat="43.75375" lon="6.20972">
        <ele>504</ele>
        <time>2017-03-09T15:32:15Z</time>
      </trkpt>
      <trkpt lat="43.75435" lon="6.20976">
        <ele>496</ele>
        <time>2017-03-09T15:32:35Z</time>
      </trkpt>
      <trkpt lat="43.75471" lon="6.2101">
        <ele>497</ele>
        <time>2017-03-09T15:32:55Z</time>
      </trkpt>
      <trkpt lat="43.75504" lon="6.21015">
        <ele>491</ele>
        <time>2017-03-09T15:33:15Z</time>
      </trkpt>
      <trkpt lat="43.75523" lon="6.21079">
        <ele>489</ele>
        <time>2017-03-09T15:33:35Z</time>
      </trkpt>
      <trkpt lat="43.75521" lon="6.21151">
        <ele>485</ele>
        <time>2017-03-09T15:33:55Z</time>
      </trkpt>
      <trkpt lat="43.75508" lon="6.21182">
        <ele>484</ele>
        <time>2017-03-09T15:34:15Z</time>
      </trkpt>
      <trkpt lat="43.75465" lon="6.21243">
        <ele>487</ele>
        <time>2017-03-09T15:34:35Z</time>
      </trkpt>
      <trkpt lat="43.75425" lon="6.2125">
        <ele>486</ele>
        <time>2017-03-09T15:34:55Z</time>
      </trkpt>
      <trkpt lat="43.75426" lon="6.21272">
        <ele>485</ele>
        <time>2017-03-09T15:35:15Z</time>
      </trkpt>
      <trkpt lat="43.75435" lon="6.21305">
        <ele>485</ele>
        <time>2017-03-09T15:35:35Z</time>
      </trkpt>
      <trkpt lat="43.75451" lon="6.21325">
        <ele>485</ele>
        <time>2017-03-09T15:35:55Z</time>
      </trkpt>
      <trkpt lat="43.75478" lon="6.2134">
        <ele>486</ele>
        <time>2017-03-09T15:36:15Z</time>
      </trkpt>
      <trkpt lat="43.7553" lon="6.21413">
        <ele>485</ele>
        <time>2017-03-09T15:36:35Z</time>
      </trkpt>
      <trkpt lat="43.75533" lon="6.21438">
        <ele>488</ele>
        <time>2017-03-09T15:36:55Z</time>
      </trkpt>
      <trkpt lat="43.75586" lon="6.21436">
        <ele>485</ele>
        <time>2017-03-09T15:37:15Z</time>
      </trkpt>
      <trkpt lat="43.75627" lon="6.21444">
        <ele>487</ele>
        <time>2017-03-09T15:37:35Z</time>
      </trkpt>
      <trkpt lat="43.75702" lon="6.21363">
        <ele>483</ele>
        <time>2017-03-09T15:37:55Z</time>
      </trkpt>
      <trkpt lat="43.75782" lon="6.21318">
        <ele>476</ele>
        <time>2017-03-09T15:38:15Z</time>
      </trkpt>
      <trkpt lat="43.75802" lon="6.21349">
        <ele>479</ele>
        <time>2017-03-09T15:38:35Z</time>
      </trkpt>
      <trkpt lat="43.758" lon="6.21421">
        <ele>484</ele>
        <time>2017-03-09T15:38:55Z</time>
      </trkpt>
      <trkpt lat="43.75716" lon="6.21613">
        <ele>496</ele>
        <time>2017-03-09T15:39:15Z</time>
      </trkpt>
      <trkpt lat="43.75718" lon="6.21714">
        <ele>497</ele>
        <time>2017-03-09T15:39:35Z</time>
      </trkpt>
      <trkpt lat="43.75682" lon="6.21832">
        <ele>504</ele>
        <time>2017-03-09T15:39:55Z</time>
      </trkpt>
      <trkpt lat="43.75684" lon="6.21893">
        <ele>503</ele>
        <time>2017-03-09T15:40:15Z</time>
      </trkpt>
      <trkpt lat="43.75663" lon="6.21925">
        <ele>511</ele>
        <time>2017-03-09T15:40:35Z</time>
      </trkpt>
      <trkpt lat="43.75671" lon="6.21949">
        <ele>504</ele>
        <time>2017-03-09T15:40:55Z</time>
      </trkpt>
      <trkpt lat="43.75662" lon="6.21993">
        <ele>508</ele>
        <time>2017-03-09T15:41:15Z</time>
      </trkpt>
      <trkpt lat="43.75728" lon="6.22003">
        <ele>497</ele>
        <time>2017-03-09T15:41:35Z</time>
      </trkpt>
      <trkpt lat="43.75784" lon="6.21982">
        <ele>495</ele>
        <time>2017-03-09T15:41:55Z</time>
      </trkpt>
      <trkpt lat="43.7583" lon="6.2194">
        <ele>494</ele>
        <time>2017-03-09T15:42:15Z</time>
      </trkpt>
      <trkpt lat="43.75863" lon="6.21897">
        <ele>498</ele>
        <time>2017-03-09T15:42:35Z</time>
      </trkpt>
      <trkpt lat="43.7587" lon="6.21939">
        <ele>501</ele>
        <time>2017-03-09T15:42:55Z</time>
      </trkpt>
      <trkpt lat="43.75863" lon="6.22106">
        <ele>505</ele>
        <time>2017-03-09T15:43:15Z</time>
      </trkpt>
      <trkpt lat="43.75832" lon="6.22118">
        <ele>500</ele>
        <time>2017-03-09T15:43:35Z</time>
      </trkpt>
      <trkpt lat="43.758" lon="6.22119">
        <ele>499</ele>
        <time>2017-03-09T15:43:55Z</time>
      </trkpt>
      <trkpt lat="43.75737" lon="6.22179">
        <ele>500</ele>
        <time>2017-03-09T15:44:15Z</time>
      </trkpt>
      <trkpt lat="43.7572" lon="6.22211">
        <ele>500</ele>
        <time>2017-03-09T15:44:35Z</time>
      </trkpt>
      <trkpt lat="43.7574" lon="6.2219">
        <ele>500</ele>
        <time>2017-03-09T15:44:55Z</time>
      </trkpt>
      <trkpt lat="43.75788" lon="6.22158">
        <ele>500</ele>
        <time>2017-03-09T15:45:15Z</time>
      </trkpt>
      <trkpt lat="43.75853" lon="6.22166">
        <ele>506</ele>
        <time>2017-03-09T15:45:35Z</time>
      </trkpt>
      <trkpt lat="43.75886" lon="6.22221">
        <ele>515</ele>
        <time>2017-03-09T15:45:55Z</time>
      </trkpt>
      <trkpt lat="43.75865" lon="6.22251">
        <ele>522</ele>
        <time>2017-03-09T15:46:15Z</time>
      </trkpt>
      <trkpt lat="43.75852" lon="6.22247">
        <ele>516</ele>
        <time>2017-03-09T15:46:35Z</time>
      </trkpt>
      <trkpt lat="43.75824" lon="6.22232">
        <ele>512</ele>
        <time>2017-03-09T15:46:55Z</time>
      </trkpt>
      <trkpt lat="43.75784" lon="6.22237">
        <ele>509</ele>
        <time>2017-03-09T15:47:15Z</time>
      </trkpt>
      <trkpt lat="43.7576" lon="6.22261">
        <ele>512</ele>
        <time>2017-03-09T15:47:35Z</time>
      </trkpt>
      <trkpt lat="43.75779" lon="6.22344">
        <ele>523</ele>
        <time>2017-03-09T15:47:55Z</time>
      </trkpt>
      <trkpt lat="43.758" lon="6.22345">
        <ele>526</ele>
        <time>2017-03-09T15:48:15Z</time>
      </trkpt>
      <trkpt lat="43.75856" lon="6.2235">
        <ele>533</ele>
        <time>2017-03-09T15:48:35Z</time>
      </trkpt>
      <trkpt lat="43.75892" lon="6.2238">
        <ele>536</ele>
        <time>2017-03-09T15:48:55Z</time>
      </trkpt>
      <trkpt lat="43.7585" lon="6.22423">
        <ele>542</ele>
        <time>2017-03-09T15:49:15Z</time>
      </trkpt>
      <trkpt lat="43.75827" lon="6.22456">
        <ele>536</ele>
        <time>2017-03-09T15:49:35Z</time>
      </trkpt>
      <trkpt lat="43.75844" lon="6.22538">
        <ele>548</ele>
        <time>2017-03-09T15:49:55Z</time>
      </trkpt>
      <trkpt lat="43.75898" lon="6.22602">
        <ele>555</ele>
        <time>2017-03-09T15:50:15Z</time>
      </trkpt>
      <trkpt lat="43.75908" lon="6.2266">
        <ele>559</ele>
        <time>2017-03-09T15:50:35Z</time>
      </trkpt>
      <trkpt lat="43.7591" lon="6.22711">
        <ele>562</ele>
        <time>2017-03-09T15:50:55Z</time>
      </trkpt>
      <trkpt lat="43.75917" lon="6.22764">
        <ele>570</ele>
        <time>2017-03-09T15:51:15Z</time>
      </trkpt>
      <trkpt lat="43.75935" lon="6.22776">
        <ele>572</ele>
        <time>2017-03-09T15:51:35Z</time>
      </trkpt>
      <trkpt lat="43.75949" lon="6.2278">
        <ele>573</ele>
        <time>2017-03-09T15:51:55Z</time>
      </trkpt>
      <trkpt lat="43.75962" lon="6.22819">
        <ele>575</ele>
        <time>2017-03-09T15:52:15Z</time>
      </trkpt>
      <trkpt lat="43.7599" lon="6.22845">
        <ele>581</ele>
        <time>2017-03-09T15:52:35Z</time>
      </trkpt>
      <trkpt lat="43.76032" lon="6.22869">
        <ele>592</ele>
        <time>2017-03-09T15:52:55Z</time>
      </trkpt>
      <trkpt lat="43.76056" lon="6.22853">
        <ele>593</ele>
        <time>2017-03-09T15:53:15Z</time>
      </trkpt>
      <trkpt lat="43.76082" lon="6.22858">
        <ele>594</ele>
        <time>2017-03-09T15:53:35Z</time>
      </trkpt>
      <trkpt lat="43.76094" lon="6.2283">
        <ele>595</ele>
        <time>2017-03-09T15:53:55Z</time>
      </trkpt>
      <trkpt lat="43.76119" lon="6.22797">
        <ele>597</ele>
        <time>2017-03-09T15:54:15Z</time>
      </trkpt>
      <trkpt lat="43.76131" lon="6.22748">
        <ele>593</ele>
        <time>2017-03-09T15:54:35Z</time>
      </trkpt>
      <trkpt lat="43.76261" lon="6.22679">
        <ele>602</ele>
        <time>2017-03-09T15:54:55Z</time>
      </trkpt>
      <trkpt lat="43.76364" lon="6.22616">
        <ele>598</ele>
        <time>2017-03-09T15:55:15Z</time>
      </trkpt>
      <trkpt lat="43.76372" lon="6.2263">
        <ele>598</ele>
        <time>2017-03-09T15:55:35Z</time>
      </trkpt>
      <trkpt lat="43.76373" lon="6.2266">
        <ele>599</ele>
        <time>2017-03-09T15:55:55Z</time>
      </trkpt>
      <trkpt lat="43.76371" lon="6.2293">
        <ele>628</ele>
        <time>2017-03-09T15:56:15Z</time>
      </trkpt>
      <trkpt lat="43.76384" lon="6.22958">
        <ele>630</ele>
        <time>2017-03-09T15:56:35Z</time>
      </trkpt>
      <trkpt lat="43.76353" lon="6.22976">
        <ele>630</ele>
        <time>2017-03-09T15:56:55Z</time>
      </trkpt>
      <trkpt lat="43.76398" lon="6.23">
        <ele>632</ele>
        <time>2017-03-09T15:57:15Z</time>
      </trkpt>
      <trkpt lat="43.76363" lon="6.23038">
        <ele>638</ele>
        <time>2017-03-09T15:57:35Z</time>
      </trkpt>
      <trkpt lat="43.76328" lon="6.23064">
        <ele>637</ele>
        <time>2017-03-09T15:57:55Z</time>
      </trkpt>
      <trkpt lat="43.76328" lon="6.23083">
        <ele>640</ele>
        <time>2017-03-09T15:58:15Z</time>
      </trkpt>
      <trkpt lat="43.76366" lon="6.23116">
        <ele>645</ele>
        <time>2017-03-09T15:58:35Z</time>
      </trkpt>
      <trkpt lat="43.76338" lon="6.23153">
        <ele>647</ele>
        <time>2017-03-09T15:58:55Z</time>
      </trkpt>
      <trkpt lat="43.76335" lon="6.23173">
        <ele>649</ele>
        <time>2017-03-09T15:59:15Z</time>
      </trkpt>
      <trkpt lat="43.76366" lon="6.23226">
        <ele>653</ele>
        <time>2017-03-09T15:59:35Z</time>
      </trkpt>
      <trkpt lat="43.76345" lon="6.23268">
        <ele>658</ele>
        <time>2017-03-09T15:59:55Z</time>
      </trkpt>
      <trkpt lat="43.76414" lon="6.23316">
        <ele>663</ele>
        <time>2017-03-09T16:00:15Z</time>
      </trkpt>
      <trkpt lat="43.76459" lon="6.2334">
        <ele>666</ele>
        <time>2017-03-09T16:00:35Z</time>
      </trkpt>
      <trkpt lat="43.76459" lon="6.2334">
        <ele>666</ele>
        <time>2017-03-09T16:00:55Z</time>
      </trkpt>
      <trkpt lat="43.7646" lon="6.23409">
        <ele>667</ele>
        <time>2017-03-09T16:01:15Z</time>
      </trkpt>
      <trkpt lat="43.76465" lon="6.23437">
        <ele>672</ele>
        <time>2017-03-09T16:01:35Z</time>
      </trkpt>
      <trkpt lat="43.76457" lon="6.23464">
        <ele>673</ele>
        <time>2017-03-09T16:01:55Z</time>
      </trkpt>
      <trkpt lat="43.76379" lon="6.2349">
        <ele>672</ele>
        <time>2017-03-09T16:02:15Z</time>
      </trkpt>
      <trkpt lat="43.76348" lon="6.2348">
        <ele>672</ele>
        <time>2017-03-09T16:02:35Z</time>
      </trkpt>
      <trkpt lat="43.76307" lon="6.23501">
        <ele>678</ele>
        <time>2017-03-09T16:02:55Z</time>
      </trkpt>
      <trkpt lat="43.76265" lon="6.23514">
        <ele>679</ele>
        <time>2017-03-09T16:03:15Z</time>
      </trkpt>
      <trkpt lat="43.76221" lon="6.2354">
        <ele>681</ele>
        <time>2017-03-09T16:03:35Z</time>
      </trkpt>
      <trkpt lat="43.76218" lon="6.23623">
        <ele>691</ele>
        <time>2017-03-09T16:03:55Z</time>
      </trkpt>
      <trkpt lat="43.76176" lon="6.23677">
        <ele>699</ele>
        <time>2017-03-09T16:04:15Z</time>
      </trkpt>
      <trkpt lat="43.76147" lon="6.23776">
        <ele>705</ele>
        <time>2017-03-09T16:04:35Z</time>
      </trkpt>
      <trkpt lat="43.76193" lon="6.23804">
        <ele>711</ele>
        <time>2017-03-09T16:04:55Z</time>
      </trkpt>
      <trkpt lat="43.76232" lon="6.23739">
        <ele>704</ele>
        <time>2017-03-09T16:05:15Z</time>
      </trkpt>
      <trkpt lat="43.76313" lon="6.23722">
        <ele>703</ele>
        <time>2017-03-09T16:05:35Z</time>
      </trkpt>
      <trkpt lat="43.76364" lon="6.23722">
        <ele>701</ele>
        <time>2017-03-09T16:05:55Z</time>
      </trkpt>
      <trkpt lat="43.76412" lon="6.23788">
        <ele>710</ele>
        <time>2017-03-09T16:06:15Z</time>
      </trkpt>
      <trkpt lat="43.76452" lon="6.2372">
        <ele>700</ele>
        <time>2017-03-09T16:06:35Z</time>
      </trkpt>
      <trkpt lat="43.76513" lon="6.23662">
        <ele>697</ele>
        <time>2017-03-09T16:06:55Z</time>
      </trkpt>
      <trkpt lat="43.76554" lon="6.23602">
        <ele>696</ele>
        <time>2017-03-09T16:07:15Z</time>
      </trkpt>
      <trkpt lat="43.76599" lon="6.23598">
        <ele>700</ele>
        <time>2017-03-09T16:07:35Z</time>
      </trkpt>
      <trkpt lat="43.76632" lon="6.23574">
        <ele>694</ele>
        <time>2017-03-09T16:07:55Z</time>
      </trkpt>
      <trkpt lat="43.76668" lon="6.23557">
        <ele>694</ele>
        <time>2017-03-09T16:08:15Z</time>
      </trkpt>
      <trkpt lat="43.76705" lon="6.23507">
        <ele>692</ele>
        <time>2017-03-09T16:08:35Z</time>
      </trkpt>
      <trkpt lat="43.76747" lon="6.23507">
        <ele>692</ele>
        <time>2017-03-09T16:08:55Z</time>
      </trkpt>
      <trkpt lat="43.76775" lon="6.23476">
        <ele>690</ele>
        <time>2017-03-09T16:09:15Z</time>
      </trkpt>
      <trkpt lat="43.76816" lon="6.23451">
        <ele>690</ele>
        <time>2017-03-09T16:09:35Z</time>
      </trkpt>
      <trkpt lat="43.76877" lon="6.23453">
        <ele>694</ele>
        <time>2017-03-09T16:09:55Z</time>
      </trkpt>
      <trkpt lat="43.76897" lon="6.23476">
        <ele>696</ele>
        <time>2017-03-09T16:10:15Z</time>
      </trkpt>
      <trkpt lat="43.76908" lon="6.23563">
        <ele>702</ele>
        <time>2017-03-09T16:10:35Z</time>
      </trkpt>
      <trkpt lat="43.76919" lon="6.23579">
        <ele>704</ele>
        <time>2017-03-09T16:10:55Z</time>
      </trkpt>
      <trkpt lat="43.76968" lon="6.23617">
        <ele>709</ele>
        <time>2017-03-09T16:11:15Z</time>
      </trkpt>
      <trkpt lat="43.76986" lon="6.23632">
        <ele>710</ele>
        <time>2017-03-09T16:11:35Z</time>
      </trkpt>
      <trkpt lat="43.77003" lon="6.23666">
        <ele>714</ele>
        <time>2017-03-09T16:11:55Z</time>
      </trkpt>
      <trkpt lat="43.77047" lon="6.23713">
        <ele>721</ele>
        <time>2017-03-09T16:12:15Z</time>
      </trkpt>
      <trkpt lat="43.77105" lon="6.23737">
        <ele>725</ele>
        <time>2017-03-09T16:12:35Z</time>
      </trkpt>
      <trkpt lat="43.77144" lon="6.23767">
        <ele>732</ele>
        <time>2017-03-09T16:12:55Z</time>
      </trkpt>
      <trkpt lat="43.77144" lon="6.23767">
        <ele>732</ele>
        <time>2017-03-09T16:13:15Z</time>
      </trkpt>
      <trkpt lat="43.77153" lon="6.23821">
        <ele>734</ele>
        <time>2017-03-09T16:13:35Z</time>
      </trkpt>
      <trkpt lat="43.77264" lon="6.2378">
        <ele>737</ele>
        <time>2017-03-09T16:13:55Z</time>
      </trkpt>
      <trkpt lat="43.77332" lon="6.23763">
        <ele>739</ele>
        <time>2017-03-09T16:14:15Z</time>
      </trkpt>
      <trkpt lat="43.77362" lon="6.23726">
        <ele>731</ele>
        <time>2017-03-09T16:14:35Z</time>
      </trkpt>
      <trkpt lat="43.77394" lon="6.23771">
        <ele>738</ele>
        <time>2017-03-09T16:14:55Z</time>
      </trkpt>
      <trkpt lat="43.77407" lon="6.23844">
        <ele>746</ele>
        <time>2017-03-09T16:15:15Z</time>
      </trkpt>
      <trkpt lat="43.77458" lon="6.23945">
        <ele>756</ele>
        <time>2017-03-09T16:15:35Z</time>
      </trkpt>
      <trkpt lat="43.77518" lon="6.23999">
        <ele>756</ele>
        <time>2017-03-09T16:15:55Z</time>
      </trkpt>
      <trkpt lat="43.77588" lon="6.2414">
        <ele>763</ele>
        <time>2017-03-09T16:16:15Z</time>
      </trkpt>
      <trkpt lat="43.77586" lon="6.24235">
        <ele>776</ele>
        <time>2017-03-09T16:16:35Z</time>
      </trkpt>
      <trkpt lat="43.77568" lon="6.24267">
        <ele>783</ele>
        <time>2017-03-09T16:16:55Z</time>
      </trkpt>
      <trkpt lat="43.77585" lon="6.24269">
        <ele>784</ele>
        <time>2017-03-09T16:17:15Z</time>
      </trkpt>
      <trkpt lat="43.77591" lon="6.24328">
        <ele>793</ele>
        <time>2017-03-09T16:17:35Z</time>
      </trkpt>
      <trkpt lat="43.77604" lon="6.24318">
        <ele>791</ele>
        <time>2017-03-09T16:17:55Z</time>
      </trkpt>
      <trkpt lat="43.77618" lon="6.24356">
        <ele>805</ele>
        <time>2017-03-09T16:18:15Z</time>
      </trkpt>
      <trkpt lat="43.77648" lon="6.24344">
        <ele>805</ele>
        <time>2017-03-09T16:18:35Z</time>
      </trkpt>
      <trkpt lat="43.77682" lon="6.24339">
        <ele>802</ele>
        <time>2017-03-09T16:18:55Z</time>
      </trkpt>
      <trkpt lat="43.77706" lon="6.24332">
        <ele>790</ele>
        <time>2017-03-09T16:19:15Z</time>
      </trkpt>
      <trkpt lat="43.7774" lon="6.2434">
        <ele>796</ele>
        <time>2017-03-09T16:19:35Z</time>
      </trkpt>
      <trkpt lat="43.7774" lon="6.2434">
        <ele>796</ele>
        <time>2017-03-09T16:19:55Z</time>
      </trkpt>
      <trkpt lat="43.77682" lon="6.24395">
        <ele>809</ele>
        <time>2017-03-09T16:20:15Z</time>
      </trkpt>
      <trkpt lat="43.77675" lon="6.24423">
        <ele>818</ele>
        <time>2017-03-09T16:20:35Z</time>
      </trkpt>
      <trkpt lat="43.77622" lon="6.24468">
        <ele>825</ele>
        <time>2017-03-09T16:20:55Z</time>
      </trkpt>
      <trkpt lat="43.77594" lon="6.24483">
        <ele>829</ele>
        <time>2017-03-09T16:21:15Z</time>
      </trkpt>
      <trkpt lat="43.77589" lon="6.24511">
        <ele>834</ele>
        <time>2017-03-09T16:21:35Z</time>
      </trkpt>
      <trkpt lat="43.77587" lon="6.24555">
        <ele>835</ele>
        <time>2017-03-09T16:21:55Z</time>
      </trkpt>
      <trkpt lat="43.77571" lon="6.2456">
        <ele>845</ele>
        <time>2017-03-09T16:22:15Z</time>
      </trkpt>
      <trkpt lat="43.77565" lon="6.24588">
        <ele>850</ele>
        <time>2017-03-09T16:22:35Z</time>
      </trkpt>
      <trkpt lat="43.77552" lon="6.24597">
        <ele>854</ele>
        <time>2017-03-09T16:22:55Z</time>
      </trkpt>
      <trkpt lat="43.77539" lon="6.24613">
        <ele>857</ele>
        <time>2017-03-09T16:23:15Z</time>
      </trkpt>
      <trkpt lat="43.77529" lon="6.24639">
        <ele>860</ele>
        <time>2017-03-09T16:23:35Z</time>
      </trkpt>
      <trkpt lat="43.77499" lon="6.24644">
        <ele>879</ele>
        <time>2017-03-09T16:23:55Z</time>
      </trkpt>
      <trkpt lat="43.77489" lon="6.2467">
        <ele>883</ele>
        <time>2017-03-09T16:24:15Z</time>
      </trkpt>
      <trkpt lat="43.77477" lon="6.24662">
        <ele>881</ele>
        <time>2017-03-09T16:24:35Z</time>
      </trkpt>
      <trkpt lat="43.77474" lon="6.2468">
        <ele>890</ele>
        <time>2017-03-09T16:24:55Z</time>
      </trkpt>
      <trkpt lat="43.77445" lon="6.24689">
        <ele>898</ele>
        <time>2017-03-09T16:25:15Z</time>
      </trkpt>
      <trkpt lat="43.77433" lon="6.24704">
        <ele>901</ele>
        <time>2017-03-09T16:25:35Z</time>
      </trkpt>
      <trkpt lat="43.77419" lon="6.247">
        <ele>902</ele>
        <time>2017-03-09T16:25:55Z</time>
      </trkpt>
      <trkpt lat="43.77403" lon="6.24713">
        <ele>919</ele>
        <time>2017-03-09T16:26:15Z</time>
      </trkpt>
      <trkpt lat="43.77398" lon="6.24729">
        <ele>921</ele>
        <time>2017-03-09T16:26:35Z</time>
      </trkpt>
      <trkpt lat="43.77382" lon="6.24744">
        <ele>923</ele>
        <time>2017-03-09T16:26:55Z</time>
      </trkpt>
      <trkpt lat="43.77381" lon="6.24798">
        <ele>940</ele>
        <time>2017-03-09T16:27:15Z</time>
      </trkpt>
      <trkpt lat="43.77392" lon="6.24813">
        <ele>940</ele>
        <time>2017-03-09T16:27:35Z</time>
      </trkpt>
      <trkpt lat="43.77374" lon="6.24828">
        <ele>943</ele>
        <time>2017-03-09T16:27:55Z</time>
      </trkpt>
      <trkpt lat="43.77373" lon="6.2485">
        <ele>956</ele>
        <time>2017-03-09T16:28:15Z</time>
      </trkpt>
      <trkpt lat="43.77361" lon="6.24879">
        <ele>960</ele>
        <time>2017-03-09T16:28:35Z</time>
      </trkpt>
      <trkpt lat="43.77379" lon="6.24909">
        <ele>961</ele>
        <time>2017-03-09T16:28:55Z</time>
      </trkpt>
      <trkpt lat="43.77393" lon="6.24919">
        <ele>971</ele>
        <time>2017-03-09T16:29:15Z</time>
      </trkpt>
      <trkpt lat="43.77351" lon="6.24978">
        <ele>984</ele>
        <time>2017-03-09T16:29:35Z</time>
      </trkpt>
      <trkpt lat="43.77355" lon="6.24993">
        <ele>986</ele>
        <time>2017-03-09T16:29:55Z</time>
      </trkpt>
      <trkpt lat="43.77348" lon="6.25011">
        <ele>998</ele>
        <time>2017-03-09T16:30:15Z</time>
      </trkpt>
      <trkpt lat="43.77331" lon="6.25024">
        <ele>1004</ele>
        <time>2017-03-09T16:30:35Z</time>
      </trkpt>
      <trkpt lat="43.7733" lon="6.25049">
        <ele>1010</ele>
        <time>2017-03-09T16:30:55Z</time>
      </trkpt>
      <trkpt lat="43.7734" lon="6.2507">
        <ele>1011</ele>
        <time>2017-03-09T16:31:15Z</time>
      </trkpt>
      <trkpt lat="43.77328" lon="6.25128">
        <ele>1032</ele>
        <time>2017-03-09T16:31:35Z</time>
      </trkpt>
      <trkpt lat="43.77302" lon="6.25154">
        <ele>1036</ele>
        <time>2017-03-09T16:31:55Z</time>
      </trkpt>
      <trkpt lat="43.77307" lon="6.25169">
        <ele>1046</ele>
        <time>2017-03-09T16:32:15Z</time>
      </trkpt>
      <trkpt lat="43.77294" lon="6.25177">
        <ele>1048</ele>
        <time>2017-03-09T16:32:35Z</time>
      </trkpt>
      <trkpt lat="43.77286" lon="6.25195">
        <ele>1050</ele>
        <time>2017-03-09T16:32:55Z</time>
      </trkpt>
      <trkpt lat="43.77262" lon="6.252">
        <ele>1051</ele>
        <time>2017-03-09T16:33:15Z</time>
      </trkpt>
      <trkpt lat="43.77221" lon="6.25233">
        <ele>1059</ele>
        <time>2017-03-09T16:33:35Z</time>
      </trkpt>
      <trkpt lat="43.77203" lon="6.2524">
        <ele>1060</ele>
        <time>2017-03-09T16:33:55Z</time>
      </trkpt>
      <trkpt lat="43.77194" lon="6.2525">
        <ele>1065</ele>
        <time>2017-03-09T16:34:15Z</time>
      </trkpt>
      <trkpt lat="43.77179" lon="6.25251">
        <ele>1066</ele>
        <time>2017-03-09T16:34:35Z</time>
      </trkpt>
      <trkpt lat="43.77159" lon="6.25263">
        <ele>1069</ele>
        <time>2017-03-09T16:34:55Z</time>
      </trkpt>
      <trkpt lat="43.7713" lon="6.25303">
        <ele>1073</ele>
        <time>2017-03-09T16:35:15Z</time>
      </trkpt>
      <trkpt lat="43.77115" lon="6.25309">
        <ele>1075</ele>
        <time>2017-03-09T16:35:35Z</time>
      </trkpt>
      <trkpt lat="43.77107" lon="6.25318">
        <ele>1076</ele>
        <time>2017-03-09T16:35:55Z</time>
      </trkpt>
      <trkpt lat="43.7709" lon="6.25319">
        <ele>1079</ele>
        <time>2017-03-09T16:36:15Z</time>
      </trkpt>
      <trkpt lat="43.77088" lon="6.25336">
        <ele>1083</ele>
        <time>2017-03-09T16:36:35Z</time>
      </trkpt>
      <trkpt lat="43.77071" lon="6.25328">
        <ele>1081</ele>
        <time>2017-03-09T16:36:55Z</time>
      </trkpt>
      <trkpt lat="43.77048" lon="6.25368">
        <ele>1085</ele>
        <time>2017-03-09T16:37:15Z</time>
      </trkpt>
      <trkpt lat="43.7703" lon="6.25366">
        <ele>1085</ele>
        <time>2017-03-09T16:37:35Z</time>
      </trkpt>
      <trkpt lat="43.76985" lon="6.25383">
        <ele>1084</ele>
        <time>2017-03-09T16:37:55Z</time>
      </trkpt>
      <trkpt lat="43.76966" lon="6.25418">
        <ele>1084</ele>
        <time>2017-03-09T16:38:15Z</time>
      </trkpt>
      <trkpt lat="43.76955" lon="6.25427">
        <ele>1083</ele>
        <time>2017-03-09T16:38:35Z</time>
      </trkpt>
      <trkpt lat="43.7695" lon="6.25441">
        <ele>1083</ele>
        <time>2017-03-09T16:38:55Z</time>
      </trkpt>
      <trkpt lat="43.76936" lon="6.25451">
        <ele>1083</ele>
        <time>2017-03-09T16:39:15Z</time>
      </trkpt>
      <trkpt lat="43.76926" lon="6.25476">
        <ele>1083</ele>
        <time>2017-03-09T16:39:35Z</time>
      </trkpt>
      <trkpt lat="43.76896" lon="6.25483">
        <ele>1082</ele>
        <time>2017-03-09T16:39:55Z</time>
      </trkpt>
      <trkpt lat="43.7689" lon="6.25501">
        <ele>1087</ele>
        <time>2017-03-09T16:40:15Z</time>
      </trkpt>
      <trkpt lat="43.76897" lon="6.25531">
        <ele>1088</ele>
        <time>2017-03-09T16:40:35Z</time>
      </trkpt>
      <trkpt lat="43.76889" lon="6.25546">
        <ele>1089</ele>
        <time>2017-03-09T16:40:55Z</time>
      </trkpt>
      <trkpt lat="43.76859" lon="6.25554">
        <ele>1092</ele>
        <time>2017-03-09T16:41:15Z</time>
      </trkpt>
      <trkpt lat="43.76852" lon="6.2557">
        <ele>1094</ele>
        <time>2017-03-09T16:41:35Z</time>
      </trkpt>
      <trkpt lat="43.76838" lon="6.25586">
        <ele>1101</ele>
        <time>2017-03-09T16:41:55Z</time>
      </trkpt>
      <trkpt lat="43.76828" lon="6.25611">
        <ele>1106</ele>
        <time>2017-03-09T16:42:15Z</time>
      </trkpt>
      <trkpt lat="43.76811" lon="6.25627">
        <ele>1108</ele>
        <time>2017-03-09T16:42:35Z</time>
      </trkpt>
      <trkpt lat="43.76817" lon="6.25642">
        <ele>1110</ele>
        <time>2017-03-09T16:42:55Z</time>
      </trkpt>
      <trkpt lat="43.76811" lon="6.25649">
        <ele>1110</ele>
        <time>2017-03-09T16:43:15Z</time>
      </trkpt>
      <trkpt lat="43.76815" lon="6.25682">
        <ele>1119</ele>
        <time>2017-03-09T16:43:35Z</time>
      </trkpt>
      <trkpt lat="43.76783" lon="6.25718">
        <ele>1125</ele>
        <time>2017-03-09T16:43:55Z</time>
      </trkpt>
      <trkpt lat="43.76757" lon="6.25732">
        <ele>1129</ele>
        <time>2017-03-09T16:44:15Z</time>
      </trkpt>
      <trkpt lat="43.76753" lon="6.25748">
        <ele>1133</ele>
        <time>2017-03-09T16:44:35Z</time>
      </trkpt>
      <trkpt lat="43.76757" lon="6.25785">
        <ele>1138</ele>
        <time>2017-03-09T16:44:55Z</time>
      </trkpt>
      <trkpt lat="43.76748" lon="6.25815">
        <ele>1143</ele>
        <time>2017-03-09T16:45:15Z</time>
      </trkpt>
      <trkpt lat="43.76714" lon="6.25865">
        <ele>1153</ele>
        <time>2017-03-09T16:45:35Z</time>
      </trkpt>
      <trkpt lat="43.7671" lon="6.25897">
        <ele>1156</ele>
        <time>2017-03-09T16:45:55Z</time>
      </trkpt>
      <trkpt lat="43.76728" lon="6.25971">
        <ele>1175</ele>
        <time>2017-03-09T16:46:15Z</time>
      </trkpt>
      <trkpt lat="43.76736" lon="6.26043">
        <ele>1187</ele>
        <time>2017-03-09T16:46:35Z</time>
      </trkpt>
      <trkpt lat="43.76721" lon="6.26061">
        <ele>1188</ele>
        <time>2017-03-09T16:46:55Z</time>
      </trkpt>
      <trkpt lat="43.7671" lon="6.26068">
        <ele>1191</ele>
        <time>2017-03-09T16:47:15Z</time>
      </trkpt>
      <trkpt lat="43.76708" lon="6.26084">
        <ele>1189</ele>
        <time>2017-03-09T16:47:35Z</time>
      </trkpt>
      <trkpt lat="43.76682" lon="6.26099">
        <ele>1197</ele>
        <time>2017-03-09T16:47:55Z</time>
      </trkpt>
      <trkpt lat="43.76673" lon="6.26095">
        <ele>1201</ele>
        <time>2017-03-09T16:48:15Z</time>
      </trkpt>
      <trkpt lat="43.76667" lon="6.26103">
        <ele>1218</ele>
        <time>2017-03-09T16:48:35Z</time>
      </trkpt>
      <trkpt lat="43.7666" lon="6.26102">
        <ele>1218</ele>
        <time>2017-03-09T16:48:55Z</time>
      </trkpt>
      <trkpt lat="43.76657" lon="6.26113">
        <ele>1221</ele>
        <time>2017-03-09T16:49:15Z</time>
      </trkpt>
      <trkpt lat="43.76639" lon="6.26109">
        <ele>1223</ele>
        <time>2017-03-09T16:49:35Z</time>
      </trkpt>
      <trkpt lat="43.76626" lon="6.26129">
        <ele>1227</ele>
        <time>2017-03-09T16:49:55Z</time>
      </trkpt>
      <trkpt lat="43.76605" lon="6.26135">
        <ele>1232</ele>
        <time>2017-03-09T16:50:15Z</time>
      </trkpt>
      <trkpt lat="43.76597" lon="6.26157">
        <ele>1240</ele>
        <time>2017-03-09T16:50:35Z</time>
      </trkpt>
      <trkpt lat="43.76598" lon="6.26187">
        <ele>1238</ele>
        <time>2017-03-09T16:50:55Z</time>
      </trkpt>
      <trkpt lat="43.76574" lon="6.26197">
        <ele>1256</ele>
        <time>2017-03-09T16:51:15Z</time>
      </trkpt>
      <trkpt lat="43.76567" lon="6.26211">
        <ele>1257</ele>
        <time>2017-03-09T16:51:35Z</time>
      </trkpt>
      <trkpt lat="43.76549" lon="6.26222">
        <ele>1259</ele>
        <time>2017-03-09T16:51:55Z</time>
      </trkpt>
      <trkpt lat="43.76552" lon="6.26239">
        <ele>1259</ele>
        <time>2017-03-09T16:52:15Z</time>
      </trkpt>
      <trkpt lat="43.76537" lon="6.26243">
        <ele>1262</ele>
        <time>2017-03-09T16:52:35Z</time>
      </trkpt>
      <trkpt lat="43.76519" lon="6.26232">
        <ele>1265</ele>
        <time>2017-03-09T16:52:55Z</time>
      </trkpt>
      <trkpt lat="43.76508" lon="6.26239">
        <ele>1270</ele>
        <time>2017-03-09T16:53:15Z</time>
      </trkpt>
      <trkpt lat="43.76468" lon="6.26273">
        <ele>1284</ele>
        <time>2017-03-09T16:53:35Z</time>
      </trkpt>
      <trkpt lat="43.76448" lon="6.26277">
        <ele>1284</ele>
        <time>2017-03-09T16:53:55Z</time>
      </trkpt>
      <trkpt lat="43.76421" lon="6.26308">
        <ele>1290</ele>
        <time>2017-03-09T16:54:15Z</time>
      </trkpt>
      <trkpt lat="43.76402" lon="6.26338">
        <ele>1304</ele>
        <time>2017-03-09T16:54:35Z</time>
      </trkpt>
      <trkpt lat="43.76377" lon="6.26348">
        <ele>1305</ele>
        <time>2017-03-09T16:54:55Z</time>
      </trkpt>
      <trkpt lat="43.7627" lon="6.26415">
        <ele>1319</ele>
        <time>2017-03-09T16:55:15Z</time>
      </trkpt>
      <trkpt lat="43.7629" lon="6.2643">
        <ele>1331</ele>
        <time>2017-03-09T16:55:35Z</time>
      </trkpt>
      <trkpt lat="43.76262" lon="6.26438">
        <ele>1332</ele>
        <time>2017-03-09T16:55:55Z</time>
      </trkpt>
      <trkpt lat="43.76255" lon="6.26453">
        <ele>1335</ele>
        <time>2017-03-09T16:56:15Z</time>
      </trkpt>
      <trkpt lat="43.76241" lon="6.26465">
        <ele>1347</ele>
        <time>2017-03-09T16:56:35Z</time>
      </trkpt>
      <trkpt lat="43.76239" lon="6.2648">
        <ele>1350</ele>
        <time>2017-03-09T16:56:55Z</time>
      </trkpt>
      <trkpt lat="43.7623" lon="6.26494">
        <ele>1352</ele>
        <time>2017-03-09T16:57:15Z</time>
      </trkpt>
      <trkpt lat="43.76229" lon="6.26511">
        <ele>1363</ele>
        <time>2017-03-09T16:57:35Z</time>
      </trkpt>
      <trkpt lat="43.76219" lon="6.2653">
        <ele>1367</ele>
        <time>2017-03-09T16:57:55Z</time>
      </trkpt>
      <trkpt lat="43.76192" lon="6.26543">
        <ele>1370</ele>
        <time>2017-03-09T16:58:15Z</time>
      </trkpt>
      <trkpt lat="43.76178" lon="6.26557">
        <ele>1373</ele>
        <time>2017-03-09T16:58:35Z</time>
      </trkpt>
      <trkpt lat="43.76144" lon="6.2657">
        <ele>1386</ele>
        <time>2017-03-09T16:58:55Z</time>
      </trkpt>
      <trkpt lat="43.76157" lon="6.26627">
        <ele>1390</ele>
        <time>2017-03-09T16:59:15Z</time>
      </trkpt>
      <trkpt lat="43.76107" lon="6.26699">
        <ele>1390</ele>
        <time>2017-03-09T16:59:35Z</time>
      </trkpt>
      <trkpt lat="43.76092" lon="6.26713">
        <ele>1391</ele>
        <time>2017-03-09T16:59:55Z</time>
      </trkpt>
      <trkpt lat="43.76071" lon="6.26759">
        <ele>1397</ele>
        <time>2017-03-09T17:00:15Z</time>
      </trkpt>
      <trkpt lat="43.76042" lon="6.26812">
        <ele>1397</ele>
        <time>2017-03-09T17:00:35Z</time>
      </trkpt>
      <trkpt lat="43.75989" lon="6.26904">
        <ele>1399</ele>
        <time>2017-03-09T17:00:55Z</time>
      </trkpt>
      <trkpt lat="43.75896" lon="6.26962">
        <ele>1402</ele>
        <time>2017-03-09T17:01:15Z</time>
      </trkpt>
      <trkpt lat="43.75912" lon="6.27135">
        <ele>1411</ele>
        <time>2017-03-09T17:01:35Z</time>
      </trkpt>
      <trkpt lat="43.75938" lon="6.27135">
        <ele>1416</ele>
        <time>2017-03-09T17:01:55Z</time>
      </trkpt>
      <trkpt lat="43.75954" lon="6.27154">
        <ele>1418</ele>
        <time>2017-03-09T17:02:15Z</time>
      </trkpt>
      <trkpt lat="43.75964" lon="6.27156">
        <ele>1419</ele>
        <time>2017-03-09T17:02:35Z</time>
      </trkpt>
      <trkpt lat="43.75973" lon="6.27175">
        <ele>1429</ele>
        <time>2017-03-09T17:02:55Z</time>
      </trkpt>
      <trkpt lat="43.75998" lon="6.2719">
        <ele>1430</ele>
        <time>2017-03-09T17:03:15Z</time>
      </trkpt>
      <trkpt lat="43.76" lon="6.27215">
        <ele>1436</ele>
        <time>2017-03-09T17:03:35Z</time>
      </trkpt>
      <trkpt lat="43.76012" lon="6.27232">
        <ele>1437</ele>
        <time>2017-03-09T17:03:55Z</time>
      </trkpt>
      <trkpt lat="43.75986" lon="6.27308">
        <ele>1447</ele>
        <time>2017-03-09T17:04:15Z</time>
      </trkpt>
      <trkpt lat="43.75979" lon="6.27354">
        <ele>1459</ele>
        <time>2017-03-09T17:04:35Z</time>
      </trkpt>
      <trkpt lat="43.75943" lon="6.27361">
        <ele>1462</ele>
        <time>2017-03-09T17:04:55Z</time>
      </trkpt>
      <trkpt lat="43.75907" lon="6.274">
        <ele>1471</ele>
        <time>2017-03-09T17:05:15Z</time>
      </trkpt>
      <trkpt lat="43.75859" lon="6.27431">
        <ele>1481</ele>
        <time>2017-03-09T17:05:35Z</time>
      </trkpt>
      <trkpt lat="43.7583" lon="6.27475">
        <ele>1483</ele>
        <time>2017-03-09T17:05:55Z</time>
      </trkpt>
      <trkpt lat="43.75824" lon="6.2749">
        <ele>1485</ele>
        <time>2017-03-09T17:06:15Z</time>
      </trkpt>
      <trkpt lat="43.75806" lon="6.27512">
        <ele>1493</ele>
        <time>2017-03-09T17:06:35Z</time>
      </trkpt>
      <trkpt lat="43.75788" lon="6.27543">
        <ele>1496</ele>
        <time>2017-03-09T17:06:55Z</time>
      </trkpt>
      <trkpt lat="43.7579" lon="6.27556">
        <ele>1497</ele>
        <time>2017-03-09T17:07:15Z</time>
      </trkpt>
      <trkpt lat="43.7578" lon="6.27576">
        <ele>1499</ele>
        <time>2017-03-09T17:07:35Z</time>
      </trkpt>
      <trkpt lat="43.75796" lon="6.27613">
        <ele>1512</ele>
        <time>2017-03-09T17:07:55Z</time>
      </trkpt>
      <trkpt lat="43.75796" lon="6.27637">
        <ele>1515</ele>
        <time>2017-03-09T17:08:15Z</time>
      </trkpt>
      <trkpt lat="43.75772" lon="6.27655">
        <ele>1517</ele>
        <time>2017-03-09T17:08:35Z</time>
      </trkpt>
      <trkpt lat="43.75771" lon="6.27718">
        <ele>1520</ele>
        <time>2017-03-09T17:08:55Z</time>
      </trkpt>
      <trkpt lat="43.75753" lon="6.27744">
        <ele>1527</ele>
        <time>2017-03-09T17:09:15Z</time>
      </trkpt>
      <trkpt lat="43.7572" lon="6.27764">
        <ele>1528</ele>
        <time>2017-03-09T17:09:35Z</time>
      </trkpt>
      <trkpt lat="43.75703" lon="6.27792">
        <ele>1527</ele>
        <time>2017-03-09T17:09:55Z</time>
      </trkpt>
      <trkpt lat="43.75681" lon="6.27809">
        <ele>1531</ele>
        <time>2017-03-09T17:10:15Z</time>
      </trkpt>
      <trkpt lat="43.75654" lon="6.2781">
        <ele>1546</ele>
        <time>2017-03-09T17:10:35Z</time>
      </trkpt>
      <trkpt lat="43.75639" lon="6.27817">
        <ele>1547</ele>
        <time>2017-03-09T17:10:55Z</time>
      </trkpt>
      <trkpt lat="43.75615" lon="6.27817">
        <ele>1550</ele>
        <time>2017-03-09T17:11:15Z</time>
      </trkpt>
      <trkpt lat="43.75569" lon="6.27825">
        <ele>1553</ele>
        <time>2017-03-09T17:11:35Z</time>
      </trkpt>
      <trkpt lat="43.75554" lon="6.27848">
        <ele>1558</ele>
        <time>2017-03-09T17:11:55Z</time>
      </trkpt>
      <trkpt lat="43.75531" lon="6.27861">
        <ele>1557</ele>
        <time>2017-03-09T17:12:15Z</time>
      </trkpt>
      <trkpt lat="43.75493" lon="6.27936">
        <ele>1559</ele>
        <time>2017-03-09T17:12:35Z</time>
      </trkpt>
      <trkpt lat="43.75498" lon="6.27964">
        <ele>1557</ele>
        <time>2017-03-09T17:12:55Z</time>
      </trkpt>
      <trkpt lat="43.75469" lon="6.27999">
        <ele>1557</ele>
        <time>2017-03-09T17:13:15Z</time>
      </trkpt>
      <trkpt lat="43.7547" lon="6.28025">
        <ele>1550</ele>
        <time>2017-03-09T17:13:35Z</time>
      </trkpt>
      <trkpt lat="43.75413" lon="6.28067">
        <ele>1556</ele>
        <time>2017-03-09T17:13:55Z</time>
      </trkpt>
      <trkpt lat="43.75339" lon="6.28091">
        <ele>1551</ele>
        <time>2017-03-09T17:14:15Z</time>
      </trkpt>
      <trkpt lat="43.75322" lon="6.28123">
        <ele>1542</ele>
        <time>2017-03-09T17:14:35Z</time>
      </trkpt>
      <trkpt lat="43.75303" lon="6.28133">
        <ele>1540</ele>
        <time>2017-03-09T17:14:55Z</time>
      </trkpt>
      <trkpt lat="43.75297" lon="6.28149">
        <ele>1539</ele>
        <time>2017-03-09T17:15:15Z</time>
      </trkpt>
      <trkpt lat="43.75283" lon="6.28156">
        <ele>1537</ele>
        <time>2017-03-09T17:15:35Z</time>
      </trkpt>
      <trkpt lat="43.75278" lon="6.28167">
        <ele>1530</ele>
        <time>2017-03-09T17:15:55Z</time>
      </trkpt>
      <trkpt lat="43.75263" lon="6.28181">
        <ele>1529</ele>
        <time>2017-03-09T17:16:15Z</time>
      </trkpt>
      <trkpt lat="43.75259" lon="6.28193">
        <ele>1529</ele>
        <time>2017-03-09T17:16:35Z</time>
      </trkpt>
      <trkpt lat="43.75242" lon="6.28196">
        <ele>1519</ele>
        <time>2017-03-09T17:16:55Z</time>
      </trkpt>
      <trkpt lat="43.75226" lon="6.28184">
        <ele>1519</ele>
        <time>2017-03-09T17:17:15Z</time>
      </trkpt>
      <trkpt lat="43.75224" lon="6.28199">
        <ele>1517</ele>
        <time>2017-03-09T17:17:35Z</time>
      </trkpt>
      <trkpt lat="43.75194" lon="6.28208">
        <ele>1513</ele>
        <time>2017-03-09T17:17:55Z</time>
      </trkpt>
      <trkpt lat="43.75201" lon="6.28241">
        <ele>1513</ele>
        <time>2017-03-09T17:18:15Z</time>
      </trkpt>
      <trkpt lat="43.7519" lon="6.28264">
        <ele>1506</ele>
        <time>2017-03-09T17:18:35Z</time>
      </trkpt>
      <trkpt lat="43.75202" lon="6.28283">
        <ele>1506</ele>
        <time>2017-03-09T17:18:55Z</time>
      </trkpt>
      <trkpt lat="43.75187" lon="6.28298">
        <ele>1505</ele>
        <time>2017-03-09T17:19:15Z</time>
      </trkpt>
      <trkpt lat="43.75162" lon="6.28283">
        <ele>1497</ele>
        <time>2017-03-09T17:19:35Z</time>
      </trkpt>
      <trkpt lat="43.75143" lon="6.28327">
        <ele>1496</ele>
        <time>2017-03-09T17:19:55Z</time>
      </trkpt>
      <trkpt lat="43.75134" lon="6.28332">
        <ele>1495</ele>
        <time>2017-03-09T17:20:15Z</time>
      </trkpt>
      <trkpt lat="43.75129" lon="6.28353">
        <ele>1491</ele>
        <time>2017-03-09T17:20:35Z</time>
      </trkpt>
      <trkpt lat="43.75134" lon="6.28364">
        <ele>1491</ele>
        <time>2017-03-09T17:20:55Z</time>
      </trkpt>
      <trkpt lat="43.75135" lon="6.28376">
        <ele>1490</ele>
        <time>2017-03-09T17:21:15Z</time>
      </trkpt>
      <trkpt lat="43.75142" lon="6.28393">
        <ele>1489</ele>
        <time>2017-03-09T17:21:35Z</time>
      </trkpt>
      <trkpt lat="43.75138" lon="6.28403">
        <ele>1489</ele>
        <time>2017-03-09T17:21:55Z</time>
      </trkpt>
      <trkpt lat="43.75141" lon="6.28425">
        <ele>1483</ele>
        <time>2017-03-09T17:22:15Z</time>
      </trkpt>
      <trkpt lat="43.75131" lon="6.28447">
        <ele>1481</ele>
        <time>2017-03-09T17:22:35Z</time>
      </trkpt>
      <trkpt lat="43.75113" lon="6.28461">
        <ele>1480</ele>
        <time>2017-03-09T17:22:55Z</time>
      </trkpt>
      <trkpt lat="43.75111" lon="6.28475">
        <ele>1479</ele>
        <time>2017-03-09T17:23:15Z</time>
      </trkpt>
      <trkpt lat="43.75115" lon="6.28489">
        <ele>1478</ele>
        <time>2017-03-09T17:23:35Z</time>
      </trkpt>
      <trkpt lat="43.7511" lon="6.28501">
        <ele>1472</ele>
        <time>2017-03-09T17:23:55Z</time>
      </trkpt>
      <trkpt lat="43.75117" lon="6.2852">
        <ele>1471</ele>
        <time>2017-03-09T17:24:15Z</time>
      </trkpt>
      <trkpt lat="43.75068" lon="6.28626">
        <ele>1465</ele>
        <time>2017-03-09T17:24:35Z</time>
      </trkpt>
      <trkpt lat="43.75057" lon="6.28639">
        <ele>1465</ele>
        <time>2017-03-09T17:24:55Z</time>
      </trkpt>
      <trkpt lat="43.75052" lon="6.28664">
        <ele>1465</ele>
        <time>2017-03-09T17:25:15Z</time>
      </trkpt>
      <trkpt lat="43.7504" lon="6.28687">
        <ele>1462</ele>
        <time>2017-03-09T17:25:35Z</time>
      </trkpt>
      <trkpt lat="43.75037" lon="6.28706">
        <ele>1462</ele>
        <time>2017-03-09T17:25:55Z</time>
      </trkpt>
      <trkpt lat="43.75016" lon="6.28756">
        <ele>1458</ele>
        <time>2017-03-09T17:26:15Z</time>
      </trkpt>
      <trkpt lat="43.74998" lon="6.28765">
        <ele>1456</ele>
        <time>2017-03-09T17:26:35Z</time>
      </trkpt>
      <trkpt lat="43.7498" lon="6.28768">
        <ele>1453</ele>
        <time>2017-03-09T17:26:55Z</time>
      </trkpt>
      <trkpt lat="43.74969" lon="6.28779">
        <ele>1451</ele>
        <time>2017-03-09T17:27:15Z</time>
      </trkpt>
      <trkpt lat="43.7497" lon="6.28811">
        <ele>1450</ele>
        <time>2017-03-09T17:27:35Z</time>
      </trkpt>
      <trkpt lat="43.74961" lon="6.28813">
        <ele>1449</ele>
        <time>2017-03-09T17:27:55Z</time>
      </trkpt>
      <trkpt lat="43.74936" lon="6.28806">
        <ele>1447</ele>
        <time>2017-03-09T17:28:15Z</time>
      </trkpt>
      <trkpt lat="43.74917" lon="6.28832">
        <ele>1442</ele>
        <time>2017-03-09T17:28:35Z</time>
      </trkpt>
      <trkpt lat="43.74916" lon="6.28849">
        <ele>1439</ele>
        <time>2017-03-09T17:28:55Z</time>
      </trkpt>
      <trkpt lat="43.74909" lon="6.28862">
        <ele>1438</ele>
        <time>2017-03-09T17:29:15Z</time>
      </trkpt>
      <trkpt lat="43.74898" lon="6.28894">
        <ele>1438</ele>
        <time>2017-03-09T17:29:35Z</time>
      </trkpt>
      <trkpt lat="43.74885" lon="6.28909">
        <ele>1437</ele>
        <time>2017-03-09T17:29:55Z</time>
      </trkpt>
      <trkpt lat="43.74875" lon="6.28927">
        <ele>1434</ele>
        <time>2017-03-09T17:30:15Z</time>
      </trkpt>
      <trkpt lat="43.74867" lon="6.28934">
        <ele>1433</ele>
        <time>2017-03-09T17:30:35Z</time>
      </trkpt>
      <trkpt lat="43.74863" lon="6.28942">
        <ele>1432</ele>
        <time>2017-03-09T17:30:55Z</time>
      </trkpt>
      <trkpt lat="43.74849" lon="6.28954">
        <ele>1431</ele>
        <time>2017-03-09T17:31:15Z</time>
      </trkpt>
      <trkpt lat="43.74845" lon="6.28971">
        <ele>1430</ele>
        <time>2017-03-09T17:31:35Z</time>
      </trkpt>
      <trkpt lat="43.7482" lon="6.29">
        <ele>1419</ele>
        <time>2017-03-09T17:31:55Z</time>
      </trkpt>
      <trkpt lat="43.74818" lon="6.29015">
        <ele>1417</ele>
        <time>2017-03-09T17:32:15Z</time>
      </trkpt>
      <trkpt lat="43.74811" lon="6.29031">
        <ele>1415</ele>
        <time>2017-03-09T17:32:35Z</time>
      </trkpt>
      <trkpt lat="43.74805" lon="6.29056">
        <ele>1412</ele>
        <time>2017-03-09T17:32:55Z</time>
      </trkpt>
      <trkpt lat="43.74792" lon="6.29067">
        <ele>1411</ele>
        <time>2017-03-09T17:33:15Z</time>
      </trkpt>
      <trkpt lat="43.74794" lon="6.29084">
        <ele>1402</ele>
        <time>2017-03-09T17:33:35Z</time>
      </trkpt>
      <trkpt lat="43.74776" lon="6.29157">
        <ele>1396</ele>
        <time>2017-03-09T17:33:55Z</time>
      </trkpt>
      <trkpt lat="43.74757" lon="6.29173">
        <ele>1389</ele>
        <time>2017-03-09T17:34:15Z</time>
      </trkpt>
      <trkpt lat="43.7475" lon="6.292">
        <ele>1383</ele>
        <time>2017-03-09T17:34:35Z</time>
      </trkpt>
      <trkpt lat="43.74727" lon="6.29239">
        <ele>1383</ele>
        <time>2017-03-09T17:34:55Z</time>
      </trkpt>
      <trkpt lat="43.74723" lon="6.29255">
        <ele>1381</ele>
        <time>2017-03-09T17:35:15Z</time>
      </trkpt>
      <trkpt lat="43.74665" lon="6.29321">
        <ele>1372</ele>
        <time>2017-03-09T17:35:35Z</time>
      </trkpt>
      <trkpt lat="43.7466" lon="6.29342">
        <ele>1372</ele>
        <time>2017-03-09T17:35:55Z</time>
      </trkpt>
      <trkpt lat="43.74635" lon="6.29376">
        <ele>1367</ele>
        <time>2017-03-09T17:36:15Z</time>
      </trkpt>
      <trkpt lat="43.74639" lon="6.29423">
        <ele>1362</ele>
        <time>2017-03-09T17:36:35Z</time>
      </trkpt>
      <trkpt lat="43.74626" lon="6.29482">
        <ele>1358</ele>
        <time>2017-03-09T17:36:55Z</time>
      </trkpt>
      <trkpt lat="43.746" lon="6.29541">
        <ele>1349</ele>
        <time>2017-03-09T17:37:15Z</time>
      </trkpt>
      <trkpt lat="43.74558" lon="6.29578">
        <ele>1345</ele>
        <time>2017-03-09T17:37:35Z</time>
      </trkpt>
      <trkpt lat="43.74555" lon="6.29605">
        <ele>1342</ele>
        <time>2017-03-09T17:37:55Z</time>
      </trkpt>
      <trkpt lat="43.74484" lon="6.29679">
        <ele>1337</ele>
        <time>2017-03-09T17:38:15Z</time>
      </trkpt>
      <trkpt lat="43.74472" lon="6.29709">
        <ele>1336</ele>
        <time>2017-03-09T17:38:35Z</time>
      </trkpt>
      <trkpt lat="43.74455" lon="6.29733">
        <ele>1336</ele>
        <time>2017-03-09T17:38:55Z</time>
      </trkpt>
      <trkpt lat="43.74448" lon="6.29764">
        <ele>1337</ele>
        <time>2017-03-09T17:39:15Z</time>
      </trkpt>
      <trkpt lat="43.74414" lon="6.29832">
        <ele>1337</ele>
        <time>2017-03-09T17:39:35Z</time>
      </trkpt>
      <trkpt lat="43.74391" lon="6.29898">
        <ele>1334</ele>
        <time>2017-03-09T17:39:55Z</time>
      </trkpt>
      <trkpt lat="43.74368" lon="6.29974">
        <ele>1330</ele>
        <time>2017-03-09T17:40:15Z</time>
      </trkpt>
      <trkpt lat="43.74336" lon="6.30042">
        <ele>1326</ele>
        <time>2017-03-09T17:40:35Z</time>
      </trkpt>
      <trkpt lat="43.7434" lon="6.30073">
        <ele>1324</ele>
        <time>2017-03-09T17:40:55Z</time>
      </trkpt>
      <trkpt lat="43.74353" lon="6.301">
        <ele>1322</ele>
        <time>2017-03-09T17:41:15Z</time>
      </trkpt>
      <trkpt lat="43.7435" lon="6.30137">
        <ele>1321</ele>
        <time>2017-03-09T17:41:35Z</time>
      </trkpt>
      <trkpt lat="43.74324" lon="6.30172">
        <ele>1317</ele>
        <time>2017-03-09T17:41:55Z</time>
      </trkpt>
      <trkpt lat="43.74319" lon="6.30207">
        <ele>1315</ele>
        <time>2017-03-09T17:42:15Z</time>
      </trkpt>
      <trkpt lat="43.74324" lon="6.30259">
        <ele>1314</ele>
        <time>2017-03-09T17:42:35Z</time>
      </trkpt>
      <trkpt lat="43.74307" lon="6.30299">
        <ele>1312</ele>
        <time>2017-03-09T17:42:55Z</time>
      </trkpt>
      <trkpt lat="43.74303" lon="6.30348">
        <ele>1311</ele>
        <time>2017-03-09T17:43:15Z</time>
      </trkpt>
      <trkpt lat="43.7431" lon="6.30387">
        <ele>1311</ele>
        <time>2017-03-09T17:43:35Z</time>
      </trkpt>
      <trkpt lat="43.74343" lon="6.30413">
        <ele>1311</ele>
        <time>2017-03-09T17:43:55Z</time>
      </trkpt>
      <trkpt lat="43.74382" lon="6.30466">
        <ele>1308</ele>
        <time>2017-03-09T17:44:15Z</time>
      </trkpt>
      <trkpt lat="43.74384" lon="6.30487">
        <ele>1308</ele>
        <time>2017-03-09T17:44:35Z</time>
      </trkpt>
      <trkpt lat="43.74396" lon="6.30502">
        <ele>1305</ele>
        <time>2017-03-09T17:44:55Z</time>
      </trkpt>
      <trkpt lat="43.74397" lon="6.30525">
        <ele>1305</ele>
        <time>2017-03-09T17:45:15Z</time>
      </trkpt>
      <trkpt lat="43.74412" lon="6.30531">
        <ele>1304</ele>
        <time>2017-03-09T17:45:35Z</time>
      </trkpt>
      <trkpt lat="43.74426" lon="6.30551">
        <ele>1292</ele>
        <time>2017-03-09T17:45:55Z</time>
      </trkpt>
      <trkpt lat="43.74445" lon="6.30519">
        <ele>1291</ele>
        <time>2017-03-09T17:46:15Z</time>
      </trkpt>
      <trkpt lat="43.74492" lon="6.30484">
        <ele>1286</ele>
        <time>2017-03-09T17:46:35Z</time>
      </trkpt>
      <trkpt lat="43.74531" lon="6.30484">
        <ele>1267</ele>
        <time>2017-03-09T17:46:55Z</time>
      </trkpt>
      <trkpt lat="43.74545" lon="6.3054">
        <ele>1253</ele>
        <time>2017-03-09T17:47:15Z</time>
      </trkpt>
      <trkpt lat="43.74579" lon="6.30532">
        <ele>1247</ele>
        <time>2017-03-09T17:47:35Z</time>
      </trkpt>
      <trkpt lat="43.74573" lon="6.30574">
        <ele>1239</ele>
        <time>2017-03-09T17:47:55Z</time>
      </trkpt>
      <trkpt lat="43.746" lon="6.30542">
        <ele>1221</ele>
        <time>2017-03-09T17:48:15Z</time>
      </trkpt>
      <trkpt lat="43.74619" lon="6.30532">
        <ele>1219</ele>
        <time>2017-03-09T17:48:35Z</time>
      </trkpt>
      <trkpt lat="43.74635" lon="6.30515">
        <ele>1217</ele>
        <time>2017-03-09T17:48:55Z</time>
      </trkpt>
      <trkpt lat="43.74655" lon="6.30516">
        <ele>1214</ele>
        <time>2017-03-09T17:49:15Z</time>
      </trkpt>
      <trkpt lat="43.74666" lon="6.3055">
        <ele>1208</ele>
        <time>2017-03-09T17:49:35Z</time>
      </trkpt>
      <trkpt lat="43.74692" lon="6.30551">
        <ele>1191</ele>
        <time>2017-03-09T17:49:55Z</time>
      </trkpt>
      <trkpt lat="43.74711" lon="6.30543">
        <ele>1190</ele>
        <time>2017-03-09T17:50:15Z</time>
      </trkpt>
      <trkpt lat="43.74728" lon="6.30547">
        <ele>1187</ele>
        <time>2017-03-09T17:50:35Z</time>
      </trkpt>
      <trkpt lat="43.74753" lon="6.30552">
        <ele>1173</ele>
        <time>2017-03-09T17:50:55Z</time>
      </trkpt>
      <trkpt lat="43.74765" lon="6.30573">
        <ele>1169</ele>
        <time>2017-03-09T17:51:15Z</time>
      </trkpt>
      <trkpt lat="43.74777" lon="6.30625">
        <ele>1144</ele>
        <time>2017-03-09T17:51:35Z</time>
      </trkpt>
      <trkpt lat="43.74815" lon="6.30647">
        <ele>1134</ele>
        <time>2017-03-09T17:51:55Z</time>
      </trkpt>
      <trkpt lat="43.74858" lon="6.30646">
        <ele>1116</ele>
        <time>2017-03-09T17:52:15Z</time>
      </trkpt>
      <trkpt lat="43.74877" lon="6.30634">
        <ele>1115</ele>
        <time>2017-03-09T17:52:35Z</time>
      </trkpt>
      <trkpt lat="43.74905" lon="6.30631">
        <ele>1110</ele>
        <time>2017-03-09T17:52:55Z</time>
      </trkpt>
      <trkpt lat="43.74895" lon="6.30665">
        <ele>1106</ele>
        <time>2017-03-09T17:53:15Z</time>
      </trkpt>
      <trkpt lat="43.74934" lon="6.30649">
        <ele>1086</ele>
        <time>2017-03-09T17:53:35Z</time>
      </trkpt>
      <trkpt lat="43.74999" lon="6.30594">
        <ele>1076</ele>
        <time>2017-03-09T17:53:55Z</time>
      </trkpt>
      <trkpt lat="43.75041" lon="6.30535">
        <ele>1055</ele>
        <time>2017-03-09T17:54:15Z</time>
      </trkpt>
      <trkpt lat="43.75068" lon="6.30495">
        <ele>1050</ele>
        <time>2017-03-09T17:54:35Z</time>
      </trkpt>
      <trkpt lat="43.75075" lon="6.30475">
        <ele>1055</ele>
        <time>2017-03-09T17:54:55Z</time>
      </trkpt>
      <trkpt lat="43.75109" lon="6.30458">
        <ele>1031</ele>
        <time>2017-03-09T17:55:15Z</time>
      </trkpt>
      <trkpt lat="43.75167" lon="6.30392">
        <ele>1019</ele>
        <time>2017-03-09T17:55:35Z</time>
      </trkpt>
      <trkpt lat="43.75202" lon="6.30362">
        <ele>1019</ele>
        <time>2017-03-09T17:55:55Z</time>
      </trkpt>
      <trkpt lat="43.75256" lon="6.30291">
        <ele>1009</ele>
        <time>2017-03-09T17:56:15Z</time>
      </trkpt>
      <trkpt lat="43.75315" lon="6.30237">
        <ele>1009</ele>
        <time>2017-03-09T17:56:35Z</time>
      </trkpt>
      <trkpt lat="43.75411" lon="6.30153">
        <ele>992</ele>
        <time>2017-03-09T17:56:55Z</time>
      </trkpt>
      <trkpt lat="43.75397" lon="6.3019">
        <ele>986</ele>
        <time>2017-03-09T17:57:15Z</time>
      </trkpt>
      <trkpt lat="43.75402" lon="6.30211">
        <ele>984</ele>
        <time>2017-03-09T17:57:35Z</time>
      </trkpt>
      <trkpt lat="43.75393" lon="6.30222">
        <ele>983</ele>
        <time>2017-03-09T17:57:55Z</time>
      </trkpt>
      <trkpt lat="43.75392" lon="6.30237">
        <ele>981</ele>
        <time>2017-03-09T17:58:15Z</time>
      </trkpt>
      <trkpt lat="43.75378" lon="6.3027">
        <ele>974</ele>
        <time>2017-03-09T17:58:35Z</time>
      </trkpt>
      <trkpt lat="43.75375" lon="6.30294">
        <ele>973</ele>
        <time>2017-03-09T17:58:55Z</time>
      </trkpt>
      <trkpt lat="43.75392" lon="6.30313">
        <ele>967</ele>
        <time>2017-03-09T17:59:15Z</time>
      </trkpt>
      <trkpt lat="43.75396" lon="6.30355">
        <ele>958</ele>
        <time>2017-03-09T17:59:35Z</time>
      </trkpt>
      <trkpt lat="43.75373" lon="6.30436">
        <ele>952</ele>
        <time>2017-03-09T17:59:55Z</time>
      </trkpt>
      <trkpt lat="43.75314" lon="6.30503">
        <ele>957</ele>
        <time>2017-03-09T18:00:15Z</time>
      </trkpt>
      <trkpt lat="43.75268" lon="6.30623">
        <ele>956</ele>
        <time>2017-03-09T18:00:35Z</time>
      </trkpt>
      <trkpt lat="43.75183" lon="6.30757">
        <ele>960</ele>
        <time>2017-03-09T18:00:55Z</time>
      </trkpt>
      <trkpt lat="43.75169" lon="6.30808">
        <ele>957</ele>
        <time>2017-03-09T18:01:15Z</time>
      </trkpt>
      <trkpt lat="43.75173" lon="6.30861">
        <ele>953</ele>
        <time>2017-03-09T18:01:35Z</time>
      </trkpt>
      <trkpt lat="43.75169" lon="6.30997">
        <ele>951</ele>
        <time>2017-03-09T18:01:55Z</time>
      </trkpt>
      <trkpt lat="43.75121" lon="6.31101">
        <ele>947</ele>
        <time>2017-03-09T18:02:15Z</time>
      </trkpt>
      <trkpt lat="43.75048" lon="6.31196">
        <ele>952</ele>
        <time>2017-03-09T18:02:35Z</time>
      </trkpt>
      <trkpt lat="43.75014" lon="6.31282">
        <ele>942</ele>
        <time>2017-03-09T18:02:55Z</time>
      </trkpt>
      <trkpt lat="43.74928" lon="6.31369">
        <ele>949</ele>
        <time>2017-03-09T18:03:15Z</time>
      </trkpt>
      <trkpt lat="43.74904" lon="6.31419">
        <ele>953</ele>
        <time>2017-03-09T18:03:35Z</time>
      </trkpt>
      <trkpt lat="43.74847" lon="6.31642">
        <ele>939</ele>
        <time>2017-03-09T18:03:55Z</time>
      </trkpt>
      <trkpt lat="43.74777" lon="6.31867">
        <ele>938</ele>
        <time>2017-03-09T18:04:15Z</time>
      </trkpt>
      <trkpt lat="43.7472" lon="6.31983">
        <ele>940</ele>
        <time>2017-03-09T18:04:35Z</time>
      </trkpt>
      <trkpt lat="43.74636" lon="6.3203">
        <ele>937</ele>
        <time>2017-03-09T18:04:55Z</time>
      </trkpt>
      <trkpt lat="43.74562" lon="6.32058">
        <ele>947</ele>
        <time>2017-03-09T18:05:15Z</time>
      </trkpt>
      <trkpt lat="43.74511" lon="6.32189">
        <ele>923</ele>
        <time>2017-03-09T18:05:35Z</time>
      </trkpt>
      <trkpt lat="43.74411" lon="6.32249">
        <ele>945</ele>
        <time>2017-03-09T18:05:55Z</time>
      </trkpt>
      <trkpt lat="43.74382" lon="6.32339">
        <ele>927</ele>
        <time>2017-03-09T18:06:15Z</time>
      </trkpt>
      <trkpt lat="43.74346" lon="6.32397">
        <ele>934</ele>
        <time>2017-03-09T18:06:35Z</time>
      </trkpt>
      <trkpt lat="43.74335" lon="6.32425">
        <ele>934</ele>
        <time>2017-03-09T18:06:55Z</time>
      </trkpt>
      <trkpt lat="43.74357" lon="6.3247">
        <ele>917</ele>
        <time>2017-03-09T18:07:15Z</time>
      </trkpt>
      <trkpt lat="43.74325" lon="6.32563">
        <ele>919</ele>
        <time>2017-03-09T18:07:35Z</time>
      </trkpt>
      <trkpt lat="43.74334" lon="6.32653">
        <ele>893</ele>
        <time>2017-03-09T18:07:55Z</time>
      </trkpt>
      <trkpt lat="43.74242" lon="6.32764">
        <ele>907</ele>
        <time>2017-03-09T18:08:15Z</time>
      </trkpt>
      <trkpt lat="43.7418" lon="6.32899">
        <ele>903</ele>
        <time>2017-03-09T18:08:35Z</time>
      </trkpt>
      <trkpt lat="43.741" lon="6.3309">
        <ele>899</ele>
        <time>2017-03-09T18:08:55Z</time>
      </trkpt>
      <trkpt lat="43.74055" lon="6.33159">
        <ele>905</ele>
        <time>2017-03-09T18:09:15Z</time>
      </trkpt>
      <trkpt lat="43.74053" lon="6.33202">
        <ele>896</ele>
        <time>2017-03-09T18:09:35Z</time>
      </trkpt>
      <trkpt lat="43.74032" lon="6.33253">
        <ele>887</ele>
        <time>2017-03-09T18:09:55Z</time>
      </trkpt>
      <trkpt lat="43.74028" lon="6.33286">
        <ele>885</ele>
        <time>2017-03-09T18:10:15Z</time>
      </trkpt>
      <trkpt lat="43.74007" lon="6.33397">
        <ele>873</ele>
        <time>2017-03-09T18:10:35Z</time>
      </trkpt>
      <trkpt lat="43.74021" lon="6.33436">
        <ele>866</ele>
        <time>2017-03-09T18:10:55Z</time>
      </trkpt>
      <trkpt lat="43.73985" lon="6.33494">
        <ele>869</ele>
        <time>2017-03-09T18:11:15Z</time>
      </trkpt>
      <trkpt lat="43.73982" lon="6.33535">
        <ele>863</ele>
        <time>2017-03-09T18:11:35Z</time>
      </trkpt>
      <trkpt lat="43.73996" lon="6.33601">
        <ele>852</ele>
        <time>2017-03-09T18:11:55Z</time>
      </trkpt>
      <trkpt lat="43.74017" lon="6.33628">
        <ele>846</ele>
        <time>2017-03-09T18:12:15Z</time>
      </trkpt>
      <trkpt lat="43.74022" lon="6.33671">
        <ele>840</ele>
        <time>2017-03-09T18:12:35Z</time>
      </trkpt>
      <trkpt lat="43.73993" lon="6.3373">
        <ele>840</ele>
        <time>2017-03-09T18:12:55Z</time>
      </trkpt>
      <trkpt lat="43.73969" lon="6.33754">
        <ele>835</ele>
        <time>2017-03-09T18:13:15Z</time>
      </trkpt>
      <trkpt lat="43.7396" lon="6.33796">
        <ele>833</ele>
        <time>2017-03-09T18:13:35Z</time>
      </trkpt>
      <trkpt lat="43.73971" lon="6.33831">
        <ele>830</ele>
        <time>2017-03-09T18:13:55Z</time>
      </trkpt>
      <trkpt lat="43.73966" lon="6.33843">
        <ele>826</ele>
        <time>2017-03-09T18:14:15Z</time>
      </trkpt>
      <trkpt lat="43.7397" lon="6.33869">
        <ele>825</ele>
        <time>2017-03-09T18:14:35Z</time>
      </trkpt>
      <trkpt lat="43.73985" lon="6.3388">
        <ele>824</ele>
        <time>2017-03-09T18:14:55Z</time>
      </trkpt>
      <trkpt lat="43.73989" lon="6.33904">
        <ele>822</ele>
        <time>2017-03-09T18:15:15Z</time>
      </trkpt>
      <trkpt lat="43.7399" lon="6.33949">
        <ele>819</ele>
        <time>2017-03-09T18:15:35Z</time>
      </trkpt>
      <trkpt lat="43.74014" lon="6.33967">
        <ele>815</ele>
        <time>2017-03-09T18:15:55Z</time>
      </trkpt>
      <trkpt lat="43.74024" lon="6.33995">
        <ele>814</ele>
        <time>2017-03-09T18:16:15Z</time>
      </trkpt>
      <trkpt lat="43.74012" lon="6.34025">
        <ele>810</ele>
        <time>2017-03-09T18:16:35Z</time>
      </trkpt>
      <trkpt lat="43.73964" lon="6.34028">
        <ele>813</ele>
        <time>2017-03-09T18:16:55Z</time>
      </trkpt>
      <trkpt lat="43.73917" lon="6.3406">
        <ele>817</ele>
        <time>2017-03-09T18:17:15Z</time>
      </trkpt>
      <trkpt lat="43.73847" lon="6.34157">
        <ele>811</ele>
        <time>2017-03-09T18:17:35Z</time>
      </trkpt>
      <trkpt lat="43.73824" lon="6.3421">
        <ele>810</ele>
        <time>2017-03-09T18:17:55Z</time>
      </trkpt>
      <trkpt lat="43.73817" lon="6.34299">
        <ele>801</ele>
        <time>2017-03-09T18:18:15Z</time>
      </trkpt>
      <trkpt lat="43.73842" lon="6.34312">
        <ele>791</ele>
        <time>2017-03-09T18:18:35Z</time>
      </trkpt>
      <trkpt lat="43.7379" lon="6.34407">
        <ele>796</ele>
        <time>2017-03-09T18:18:55Z</time>
      </trkpt>
      <trkpt lat="43.73781" lon="6.34451">
        <ele>796</ele>
        <time>2017-03-09T18:19:15Z</time>
      </trkpt>
      <trkpt lat="43.73933" lon="6.34386">
        <ele>760</ele>
        <time>2017-03-09T18:19:35Z</time>
      </trkpt>
      <trkpt lat="43.7394" lon="6.34347">
        <ele>757</ele>
        <time>2017-03-09T18:19:55Z</time>
      </trkpt>
      <trkpt lat="43.73959" lon="6.34327">
        <ele>749</ele>
        <time>2017-03-09T18:20:15Z</time>
      </trkpt>
      <trkpt lat="43.73944" lon="6.34297">
        <ele>755</ele>
        <time>2017-03-09T18:20:35Z</time>
      </trkpt>
      <trkpt lat="43.73952" lon="6.34281">
        <ele>754</ele>
        <time>2017-03-09T18:20:55Z</time>
      </trkpt>
      <trkpt lat="43.73969" lon="6.34276">
        <ele>750</ele>
        <time>2017-03-09T18:21:15Z</time>
      </trkpt>
      <trkpt lat="43.73986" lon="6.34284">
        <ele>746</ele>
        <time>2017-03-09T18:21:35Z</time>
      </trkpt>
      <trkpt lat="43.74003" lon="6.3432">
        <ele>708</ele>
        <time>2017-03-09T18:21:55Z</time>
      </trkpt>
      <trkpt lat="43.74006" lon="6.34362">
        <ele>699</ele>
        <time>2017-03-09T18:22:15Z</time>
      </trkpt>
      <trkpt lat="43.74029" lon="6.34414">
        <ele>696</ele>
        <time>2017-03-09T18:22:35Z</time>
      </trkpt>
      <trkpt lat="43.74032" lon="6.34345">
        <ele>689</ele>
        <time>2017-03-09T18:22:55Z</time>
      </trkpt>
      <trkpt lat="43.74039" lon="6.34338">
        <ele>684</ele>
        <time>2017-03-09T18:23:15Z</time>
      </trkpt>
      <trkpt lat="43.74055" lon="6.34381">
        <ele>679</ele>
        <time>2017-03-09T18:23:35Z</time>
      </trkpt>
      <trkpt lat="43.74069" lon="6.34383">
        <ele>673</ele>
        <time>2017-03-09T18:23:55Z</time>
      </trkpt>
      <trkpt lat="43.74065" lon="6.34433">
        <ele>680</ele>
        <time>2017-03-09T18:24:15Z</time>
      </trkpt>
      <trkpt lat="43.74074" lon="6.34435">
        <ele>676</ele>
        <time>2017-03-09T18:24:35Z</time>
      </trkpt>
      <trkpt lat="43.74096" lon="6.34402">
        <ele>633</ele>
        <time>2017-03-09T18:24:55Z</time>
      </trkpt>
      <trkpt lat="43.74099" lon="6.34375">
        <ele>627</ele>
        <time>2017-03-09T18:25:15Z</time>
      </trkpt>
      <trkpt lat="43.74107" lon="6.34362">
        <ele>625</ele>
        <time>2017-03-09T18:25:35Z</time>
      </trkpt>
      <trkpt lat="43.7411" lon="6.34329">
        <ele>636</ele>
        <time>2017-03-09T18:25:55Z</time>
      </trkpt>
      <trkpt lat="43.74126" lon="6.34312">
        <ele>633</ele>
        <time>2017-03-09T18:26:15Z</time>
      </trkpt>
      <trkpt lat="43.74159" lon="6.34309">
        <ele>623</ele>
        <time>2017-03-09T18:26:35Z</time>
      </trkpt>
      <trkpt lat="43.74162" lon="6.34346">
        <ele>606</ele>
        <time>2017-03-09T18:26:55Z</time>
      </trkpt>
      <trkpt lat="43.74192" lon="6.34339">
        <ele>597</ele>
        <time>2017-03-09T18:27:15Z</time>
      </trkpt>
      <trkpt lat="43.7419" lon="6.3437">
        <ele>596</ele>
        <time>2017-03-09T18:27:35Z</time>
      </trkpt>
      <trkpt lat="43.74219" lon="6.34328">
        <ele>618</ele>
        <time>2017-03-09T18:27:55Z</time>
      </trkpt>
      <trkpt lat="43.74252" lon="6.34254">
        <ele>656</ele>
        <time>2017-03-09T18:28:15Z</time>
      </trkpt>
      <trkpt lat="43.74268" lon="6.34196">
        <ele>704</ele>
        <time>2017-03-09T18:28:35Z</time>
      </trkpt>
      <trkpt lat="43.74283" lon="6.3414">
        <ele>750</ele>
        <time>2017-03-09T18:28:55Z</time>
      </trkpt>
      <trkpt lat="43.74323" lon="6.34168">
        <ele>724</ele>
        <time>2017-03-09T18:29:15Z</time>
      </trkpt>
      <trkpt lat="43.74319" lon="6.34229">
        <ele>687</ele>
        <time>2017-03-09T18:29:35Z</time>
      </trkpt>
      <trkpt lat="43.74313" lon="6.34259">
        <ele>650</ele>
        <time>2017-03-09T18:29:55Z</time>
      </trkpt>
      <trkpt lat="43.74311" lon="6.34297">
        <ele>637</ele>
        <time>2017-03-09T18:30:15Z</time>
      </trkpt>
      <trkpt lat="43.74284" lon="6.34403">
        <ele>602</ele>
        <time>2017-03-09T18:30:35Z</time>
      </trkpt>
      <trkpt lat="43.74286" lon="6.34436">
        <ele>600</ele>
        <time>2017-03-09T18:30:55Z</time>
      </trkpt>
      <trkpt lat="43.74304" lon="6.3448">
        <ele>604</ele>
        <time>2017-03-09T18:31:15Z</time>
      </trkpt>
      <trkpt lat="43.74284" lon="6.34526">
        <ele>618</ele>
        <time>2017-03-09T18:31:35Z</time>
      </trkpt>
      <trkpt lat="43.74227" lon="6.34608">
        <ele>611</ele>
        <time>2017-03-09T18:31:55Z</time>
      </trkpt>
      <trkpt lat="43.74211" lon="6.34655">
        <ele>615</ele>
        <time>2017-03-09T18:32:15Z</time>
      </trkpt>
    </trkseg>
  </trk>
</gpx>